[[{"header":{"parameterUnit":"m.s-1","parameterCategory":1,"la1":30.6,"la2":29.2853,"lo1":-89.7004,"lo2":-87.6739,"dy":0.0162,"dx":0.0183,"nx":112,"ny":82,"refTime":"2023-05-14T12:00:00:Z","depth":0,"parameterNumber":2,"parameterNumberName":"U-component_of_WINDS"},"data":[0.0,0.0,0.0,0.0,0.0,0.0,0.0,0.0,0.0,0.0,0.0,0.0,0.0,0.0,0.0,0.0,0.0,0.0,0.0,0.0,0.0,0.0,0.0,0.0,0.0,0.0,0.0,0.0,0.0,0.0,0.0,0.0,0.0,0.0,0.0,0.0,0.0,0.0,0.0,0.0,0.0,0.0,0.0,0.0,0.0,0.0,0.0,0.0,0.0,0.0,0.0,0.0,0.0,0.0,0.0,0.0,0.0,0.0,0.0,0.0,0.0,0.0,0.0,0.0,0.0,0.0,0.0,0.0,0.0,0.0,0.0,0.0,0.0,0.0,0.0,0.0,0.0,0.0,0.0,0.0,0.0,0.0,0.0,0.0,0.0,0.0,0.0,0.0,0.0,0.0,-0.9551,-1.0734,-1.2909,-1.4643,-1.5409,-1.5504,-1.4682,-1.2788,0.0,0.0,0.0,0.0,0.0,0.0,0.0,0.0,0.0,0.0,0.0,0.0,0.0,0.0,0.0,0.0,0.0,0.0,0.0,0.0,0.0,0.0,0.0,0.0,0.0,0.0,0.0,0.0,0.0,0.0,0.0,0.0,0.0,0.0,0.0,0.0,0.0,0.0,0.0,0.0,0.0,0.0,0.0,0.0,0.0,0.0,0.0,0.0,0.0,0.0,0.0,0.0,0.0,0.0,0.0,0.0,0.0,0.0,0.0,0.0,0.0,0.0,0.0,0.0,0.0,0.0,0.0,0.0,0.0,0.0,0.0,0.0,0.0,0.0,0.0,0.0,0.0,0.0,0.0,0.0,0.0,0.0,0.0,0.0,0.0,0.0,0.0,0.0,0.0,0.0,0.0,0.0,0.0,0.0,0.0,0.0,0.0,0.0,0.0,0.0,0.0,0.0,0.0,0.0,-0.9649,-1.2043,-1.4685,-1.652,-1.6908,-1.679,-1.5904,-1.402,0.0,0.0,0.0,0.0,0.0,0.0,0.0,0.0,0.0,0.0,0.0,0.0,0.0,0.0,0.0,0.0,0.0,0.0,0.0,0.0,0.0,0.0,0.0,0.0,0.0,0.0,0.0,0.0,0.0,0.0,0.0,0.0,0.0,0.0,0.0,0.0,0.0,0.0,0.0,0.0,0.0,0.0,0.0,0.0,0.0,0.0,0.0,0.0,0.0,0.0,0.0,0.0,0.0,0.0,0.0,0.0,0.0,0.0,0.0,0.0,0.0,0.0,0.0,0.0,0.0,0.0,0.0,0.0,0.0,0.0,0.0,0.0,0.0,0.0,0.0,0.0,0.0,0.0,0.0,0.0,0.0,0.0,0.0,0.0,0.0,0.0,0.0,0.0,0.0,0.0,0.0,0.0,0.0,0.0,0.0,0.0,0.0,0.0,0.0,0.0,0.0,0.0,0.0,-1.1729,-1.2963,-1.3866,-1.594,-1.7508,-1.8201,-1.7329,-1.6312,-1.5373,-1.2961,0.0,0.0,0.0,0.0,0.0,0.0,0.0,0.0,0.0,0.0,0.0,0.0,0.0,0.0,0.0,0.0,0.0,0.0,0.0,0.0,0.0,0.0,0.0,0.0,0.0,0.0,0.0,0.0,0.0,0.0,0.0,0.0,0.0,0.0,0.0,0.0,0.0,0.0,0.0,0.0,0.0,0.0,0.0,0.0,0.0,0.0,0.0,0.0,0.0,0.0,0.0,0.0,0.0,0.0,0.0,0.0,0.0,0.0,0.0,0.0,0.0,0.0,0.0,0.0,0.0,0.0,0.0,0.0,0.0,0.0,0.0,0.0,0.0,0.0,0.0,0.0,0.0,0.0,0.0,0.0,0.0,0.0,0.0,0.0,0.0,0.0,0.0,0.0,0.0,0.0,0.0,0.0,0.0,0.0,0.0,0.0,0.0,0.0,0.0,0.0,0.0,0.0,-1.3774,-1.518,-1.5281,-1.6953,-1.8296,-1.9006,-1.7821,-1.7011,-1.6759,-1.4714,0.0,0.0,0.0,0.0,0.0,0.0,0.0,0.0,0.0,0.0,0.0,0.0,0.0,0.0,0.0,0.0,0.0,0.0,0.0,0.0,0.0,0.0,0.0,0.0,0.0,0.0,0.0,0.0,0.0,0.0,0.0,0.0,0.0,0.0,0.0,0.0,0.0,0.0,0.0,0.0,0.0,0.0,0.0,0.0,0.0,0.0,0.0,0.0,0.0,0.0,0.0,0.0,0.0,0.0,0.0,0.0,0.0,0.0,0.0,0.0,0.0,0.0,0.0,0.0,0.0,0.0,0.0,0.0,0.0,0.0,0.0,0.0,0.0,0.0,0.0,0.0,0.0,0.0,0.0,0.0,0.0,0.0,0.0,0.0,0.0,0.0,0.0,0.0,0.0,0.0,0.0,0.0,0.0,0.0,0.0,0.0,0.0,0.0,0.0,0.0,0.0,0.0,-1.2432,-1.349,-1.5607,-1.769,-1.8975,-1.9268,-1.876,-1.8346,-1.8105,-1.5824,0.0,0.0,0.0,0.0,0.0,0.0,0.0,0.0,0.0,0.0,0.0,0.0,0.0,0.0,0.0,0.0,0.0,0.0,0.0,0.0,0.0,0.0,0.0,0.0,0.0,0.0,0.0,0.0,0.0,0.0,0.0,0.0,0.0,0.0,0.0,0.0,0.0,0.0,0.0,0.0,0.0,0.0,0.0,0.0,0.0,0.0,0.0,0.0,0.0,0.0,0.0,0.0,0.0,0.0,0.0,0.0,0.0,0.0,0.0,0.0,0.0,0.0,0.0,0.0,0.0,0.0,0.0,0.0,0.0,0.0,0.0,0.0,0.0,0.0,0.0,0.0,0.0,0.0,0.0,0.0,0.0,0.0,0.0,0.0,0.0,0.0,0.0,0.0,0.0,0.0,0.0,0.0,0.0,0.0,0.0,0.0,0.0,0.0,0.0,0.0,0.0,0.0,-1.3554,-1.5029,0.0,-1.8108,-1.9401,-1.9476,-1.8828,-1.8319,-1.8137,0.0,0.0,0.0,0.0,0.0,0.0,0.0,0.0,0.0,0.0,0.0,0.0,0.0,0.0,0.0,0.0,0.0,0.0,0.0,0.0,0.0,0.0,0.0,0.0,0.0,0.0,0.0,0.0,0.0,0.0,0.0,0.0,0.0,0.0,0.0,0.0,0.0,0.0,0.0,0.0,0.0,0.0,0.0,0.0,0.0,0.0,0.0,0.0,0.0,0.0,0.0,0.0,0.0,0.0,0.0,0.0,0.0,0.0,0.0,0.0,0.0,0.0,0.0,0.0,0.0,0.0,0.0,0.0,0.0,0.0,0.0,0.0,0.0,0.0,0.0,0.0,0.0,0.0,0.0,0.0,0.0,0.0,0.0,0.0,0.0,0.0,0.0,0.0,0.0,0.0,0.0,0.0,0.0,0.0,0.0,0.0,0.0,0.0,0.0,0.0,0.0,0.0,-1.2523,-1.3969,-1.5386,0.0,-1.8133,-1.9229,-1.9505,-1.833,-1.77,-1.8005,0.0,0.0,0.0,0.0,0.0,0.0,0.0,0.0,0.0,0.0,0.0,0.0,0.0,0.0,0.0,0.0,0.0,0.0,0.0,0.0,0.0,0.0,0.0,0.0,0.0,0.0,0.0,0.0,0.0,0.0,0.0,0.0,0.0,0.0,0.0,0.0,0.0,0.0,0.0,0.0,0.0,0.0,0.0,0.0,0.0,0.0,0.0,0.0,0.0,0.0,0.0,0.0,0.0,0.0,0.0,0.0,0.0,0.0,0.0,0.0,0.0,0.0,0.0,0.0,0.0,0.0,0.0,0.0,0.0,0.0,0.0,0.0,0.0,0.0,0.0,0.0,0.0,0.0,0.0,0.0,0.0,0.0,0.0,0.0,0.0,0.0,0.0,0.0,0.0,0.0,0.0,0.0,0.0,0.0,0.0,0.0,0.0,0.0,0.0,0.0,0.0,0.0,-1.349,-1.3224,-1.3941,-1.7048,-1.7754,-1.834,-1.9189,-1.736,-1.655,0.0,0.0,0.0,0.0,0.0,0.0,0.0,0.0,0.0,0.0,0.0,0.0,0.0,0.0,0.0,0.0,0.0,0.0,0.0,0.0,0.0,0.0,0.0,0.0,0.0,0.0,0.0,0.0,0.0,0.0,0.0,0.0,0.0,0.0,0.0,0.0,0.0,0.0,0.0,0.0,0.0,0.0,0.0,0.0,0.0,0.0,0.0,0.0,0.0,0.0,0.0,0.0,0.0,0.0,0.0,0.0,0.0,0.0,0.0,0.0,0.0,0.0,0.0,0.0,0.0,0.0,0.0,0.0,0.0,0.0,0.0,0.0,0.0,0.0,0.0,0.0,0.0,0.0,0.0,0.0,0.0,0.0,0.0,0.0,0.0,0.0,0.0,0.0,0.0,0.0,0.0,0.0,0.0,0.0,0.0,0.0,0.0,0.0,0.0,0.0,0.0,0.0,0.0,-1.2797,-1.233,-1.2922,-1.5679,-1.6496,-1.7111,-1.7754,-1.6862,-1.6486,-1.7053,0.0,0.0,0.0,0.0,0.0,0.0,0.0,0.0,0.0,0.0,0.0,0.0,0.0,0.0,0.0,0.0,0.0,0.0,0.0,0.0,0.0,0.0,0.0,0.0,0.0,0.0,0.0,0.0,0.0,0.0,0.0,0.0,0.0,0.0,0.0,0.0,0.0,0.0,0.0,0.0,0.0,0.0,0.0,0.0,0.0,0.0,0.0,0.0,0.0,0.0,0.0,0.0,0.0,0.0,0.0,0.0,0.0,0.0,0.0,0.0,0.0,0.0,0.0,0.0,0.0,0.0,0.0,0.0,0.0,0.0,0.0,0.0,0.0,0.0,0.0,0.0,0.0,0.0,0.0,0.0,0.0,0.0,0.0,0.0,0.0,0.0,0.0,0.0,0.0,0.0,0.0,0.0,0.0,0.0,0.0,0.0,0.0,0.0,0.0,0.0,0.0,0.0,-1.2634,-1.1914,-1.2212,-1.4708,-1.5449,-1.6139,-1.6928,-1.6187,-1.587,-1.6207,0.0,0.0,0.0,0.0,0.0,0.0,0.0,0.0,0.0,0.0,0.0,0.0,0.0,0.0,0.0,0.0,0.0,0.0,0.0,0.0,0.0,0.0,0.0,0.0,0.0,0.0,0.0,0.0,0.0,0.0,0.0,0.0,0.0,0.0,0.0,0.0,0.0,0.0,0.0,0.0,0.0,0.0,0.0,0.0,0.0,0.0,0.0,0.0,0.0,0.0,0.0,0.0,0.0,0.0,0.0,0.0,0.0,0.0,0.0,0.0,0.0,0.0,0.0,0.0,0.0,0.0,0.0,0.0,0.0,0.0,0.0,0.0,0.0,0.0,0.0,0.0,0.0,0.0,0.0,0.0,0.0,0.0,0.0,0.0,0.0,0.0,0.0,0.0,0.0,0.0,0.0,0.0,0.0,0.0,0.0,0.0,0.0,0.0,0.0,0.0,0.0,0.0,-1.276,-1.1704,-1.1783,-1.4064,-1.4626,-1.539,-1.6519,-1.5527,-1.499,-1.5332,0.0,0.0,0.0,0.0,0.0,0.0,0.0,0.0,0.0,0.0,0.0,0.0,0.0,0.0,0.0,0.0,0.0,0.0,0.0,0.0,0.0,0.0,0.0,0.0,0.0,0.0,0.0,0.0,0.0,0.0,0.0,0.0,0.0,0.0,0.0,0.0,0.0,0.0,0.0,0.0,0.0,0.0,0.0,0.0,0.0,0.0,0.0,0.0,0.0,0.0,0.0,0.0,0.0,0.0,0.0,0.0,0.0,0.0,0.0,0.0,-1.6599,0.0,0.0,0.0,0.0,0.0,0.0,0.0,0.0,0.0,0.0,0.0,0.0,0.0,0.0,0.0,0.0,0.0,0.0,0.0,0.0,0.0,0.0,0.0,0.0,0.0,0.0,0.0,0.0,0.0,0.0,0.0,0.0,0.0,0.0,0.0,0.0,0.0,0.0,0.0,0.0,0.0,-1.2672,-1.1679,-1.1553,-1.3254,-1.4311,-1.5158,-1.5861,-1.5508,-1.5233,-1.511,-1.3836,0.0,0.0,0.0,0.0,0.0,0.0,0.0,0.0,0.0,0.0,0.0,0.0,0.0,0.0,0.0,0.0,0.0,0.0,0.0,0.0,0.0,0.0,0.0,0.0,0.0,0.0,0.0,0.0,0.0,0.0,0.0,0.0,0.0,0.0,0.0,0.0,0.0,0.0,0.0,0.0,0.0,0.0,0.0,0.0,0.0,0.0,0.0,0.0,0.0,0.0,0.0,0.0,0.0,0.0,0.0,0.0,0.0,0.0,0.0,0.0,-1.2461,0.0,0.0,0.0,0.0,0.0,0.0,0.0,0.0,0.0,0.0,0.0,0.0,0.0,0.0,0.0,0.0,0.0,0.0,0.0,0.0,0.0,0.0,0.0,0.0,0.0,0.0,0.0,0.0,0.0,0.0,0.0,0.0,0.0,0.0,0.0,0.0,0.0,0.0,0.0,0.0,-1.3094,-1.1841,-1.1547,-1.3319,-1.4156,-1.48,-1.5508,-1.5292,-1.4906,-1.4336,-1.358,0.0,0.0,0.0,0.0,0.0,0.0,0.0,0.0,0.0,0.0,0.0,0.0,0.0,0.0,0.0,0.0,0.0,0.0,0.0,0.0,0.0,0.0,0.0,0.0,0.0,0.0,0.0,0.0,0.0,0.0,0.0,0.0,0.0,0.0,0.0,0.0,0.0,0.0,0.0,0.0,0.0,0.0,0.0,0.0,0.0,0.0,0.0,0.0,0.0,0.0,0.0,0.0,0.0,-1.6377,-1.5415,-1.4919,-1.3881,-1.2431,-1.067,-1.1592,-0.7605,-0.118,-1.0606,0.0,0.0,0.0,0.0,0.0,0.0,0.0,0.0,0.0,0.0,0.0,0.0,0.0,0.0,0.0,0.0,0.0,0.0,0.0,0.0,0.0,0.0,0.0,0.0,-0.9191,-0.8021,-0.8145,0.0,0.0,0.0,0.0,0.0,0.0,0.0,0.0,0.0,0.0,0.0,-1.3489,-1.2077,-1.1686,-1.3681,-1.396,-1.4345,-1.5118,-1.4802,-1.424,-1.3464,-1.3191,-1.2616,0.0,0.0,0.0,0.0,0.0,0.0,0.0,0.0,0.0,0.0,0.0,0.0,0.0,0.0,0.0,0.0,0.0,0.0,0.0,0.0,0.0,0.0,0.0,0.0,0.0,0.0,0.0,0.0,0.0,0.0,0.0,0.0,-2.1075,-2.2743,0.0,0.0,0.0,0.0,0.0,0.0,0.0,0.0,0.0,0.0,0.0,0.0,0.0,-1.976,-1.9356,-1.8033,-1.7123,-1.6724,-1.4241,-1.2472,-1.1234,-0.9986,-0.8814,-0.7544,-0.5414,0.0,-0.2485,-0.399,0.0,0.0,0.0,0.0,0.0,0.0,0.0,0.0,0.0,0.0,0.0,0.0,0.0,0.0,0.0,0.0,0.0,0.0,0.0,0.0,0.0,0.0,-0.7894,-0.7509,-0.6583,-0.5869,0.0,-0.7832,-0.9273,-0.9195,-0.9088,0.0,0.0,0.0,0.0,0.0,0.0,0.0,-1.2746,-1.1889,-1.1984,-1.3969,-1.3742,-1.3712,-1.43,-1.3856,-1.3317,-1.2572,-1.194,-1.1733,-1.2157,-1.096,0.0,0.0,0.0,0.0,0.0,0.0,0.0,0.0,0.0,0.0,0.0,0.0,0.0,0.0,0.0,0.0,0.0,0.0,0.0,0.0,0.0,0.0,0.0,0.0,0.0,0.0,0.0,0.0,0.0,-2.4261,-2.4015,-2.3301,-2.5416,-2.7712,0.0,0.0,0.0,0.0,0.0,0.0,0.0,0.0,0.0,-2.1093,-1.9263,-1.7778,-1.662,-1.6224,-1.5855,-1.5634,-1.3003,-1.1513,-1.1081,-0.8938,-0.7809,-0.7272,-0.4693,-0.2725,-0.1289,-0.2682,-0.6187,-1.0748,0.0,0.0,0.0,0.0,-1.0791,-1.0667,-0.9478,-0.9025,-0.9214,-1.0704,0.0,0.0,0.0,0.0,0.0,0.0,0.0,0.0,0.0,0.0,-0.8198,-0.5182,-0.4293,-0.4144,-0.4247,-0.5064,-0.6046,0.0,-0.8253,-0.9951,-1.1553,0.0,0.0,0.0,0.0,-1.2403,-1.2956,-1.2321,-1.2383,-1.3887,-1.3625,-1.3479,-1.3749,-1.3389,-1.2862,-1.2124,-1.1563,-1.1219,-1.1055,-1.0576,-1.0437,0.0,0.0,0.0,0.0,0.0,0.0,0.0,0.0,0.0,0.0,0.0,0.0,0.0,0.0,0.0,0.0,0.0,0.0,0.0,0.0,0.0,0.0,0.0,0.0,0.0,0.0,0.0,0.0,-2.5652,-2.5836,-2.3791,-2.6209,-2.8669,0.0,0.0,0.0,0.0,0.0,0.0,-3.043,-2.7063,-2.4067,-2.1521,-1.8743,-1.6599,-1.5287,-1.5251,-1.5199,-1.5219,-1.2919,-1.1965,-1.2134,-0.9606,-0.8172,-0.7561,-0.5628,-0.3364,-0.1093,-0.2855,-0.4575,-0.6298,-0.9232,-1.0664,-1.0969,-0.9718,-0.9716,-1.0018,-0.824,-0.7697,-0.7842,-0.8449,-0.8847,-0.9332,-1.0367,0.0,0.0,0.0,0.0,-1.0226,-0.856,-0.825,-0.7339,-0.3643,-0.2548,-0.2446,-0.3005,-0.3121,-0.3793,0.0,-0.7962,-0.9279,-1.0504,0.0,0.0,0.0,0.0,-1.195,-1.2965,-1.2462,-1.2475,-1.3793,-1.3336,-1.3032,-1.3108,-1.2751,-1.2273,-1.1538,-1.1243,-1.0806,-1.0013,-0.994,-0.953,-0.8838,0.0,0.0,0.0,0.0,0.0,0.0,0.0,0.0,0.0,0.0,0.0,0.0,0.0,0.0,0.0,0.0,0.0,0.0,0.0,0.0,0.0,0.0,0.0,0.0,0.0,0.0,0.0,0.0,0.0,-2.4236,-2.9,0.0,0.0,0.0,0.0,-3.6028,-3.6843,-3.5789,-3.2095,-2.9085,-2.6101,-2.309,-1.9187,-1.7334,-1.7517,-1.6331,-1.5792,-1.571,-1.4441,-1.3765,-1.3771,-1.2078,-0.9862,-0.7446,-0.7263,-0.582,-0.3392,-0.3578,-0.4838,-0.6832,-0.8328,-0.9816,-1.0979,-1.0301,-0.9666,-0.8983,-0.8217,-0.7437,-0.6773,-0.6551,-0.7841,-0.9691,-1.0491,-1.1162,0.0,0.0,-0.9701,-0.8473,-0.6606,-0.4582,-0.3107,-0.3105,-0.1594,-0.0737,-0.2685,-0.3107,-0.4604,0.0,-0.8053,-0.5929,-0.5818,0.0,-0.9247,-1.0496,-1.0922,-1.1404,-1.2151,-1.1745,-1.2077,-1.3685,-1.2753,-1.2068,-1.2245,-1.1745,-1.1276,-1.0721,-1.0667,-1.0349,-0.9726,-0.8392,-0.8027,-0.8903,-0.7195,0.0,0.0,0.0,0.0,0.0,0.0,0.0,0.0,0.0,0.0,0.0,0.0,0.0,0.0,0.0,0.0,0.0,0.0,0.0,0.0,0.0,0.0,0.0,0.0,0.0,0.0,0.0,0.0,-3.3871,-3.4203,0.0,-3.62,-3.7708,-3.8443,-3.8085,-3.8206,-3.7717,-3.6324,-3.2075,-2.868,-2.6384,-2.2172,-1.9642,-1.8864,-1.794,-1.7755,-1.8118,-1.6209,-1.5162,-1.4708,-1.3199,-1.1491,-0.9492,-0.7923,-0.6656,-0.5852,-0.5673,-0.6081,-0.6795,-0.7349,-0.8392,-0.9391,-0.8238,-0.851,-0.8968,-0.5895,-0.4777,-0.4764,-0.4934,-0.6127,-0.7544,-0.8091,-0.8584,-0.8922,-0.9178,-0.8614,-0.7693,-0.6479,-0.5693,-0.4518,-0.1757,-0.0571,-0.0167,-0.0942,-0.1107,-0.1607,-0.3514,-0.5548,-0.6528,-0.5101,-0.6016,-0.7911,-1.0685,-1.0667,-1.0729,-1.1868,-1.2016,-1.2199,-1.2828,-1.1589,-1.1,-1.1606,-1.0678,-1.0109,-1.0301,-1.0274,-1.0094,-0.9699,-0.8972,-0.8303,-0.7725,-0.6894,-0.6895,0.0,0.0,0.0,0.0,0.0,0.0,0.0,0.0,0.0,0.0,0.0,0.0,0.0,0.0,0.0,0.0,0.0,0.0,0.0,0.0,0.0,0.0,0.0,0.0,0.0,0.0,-3.6192,-3.953,-3.8916,-3.8511,-3.9346,-4.0192,-4.0753,-4.0937,-4.098,-4.0762,-4.0216,-3.5977,-3.243,-2.9966,-2.5383,-2.2255,-2.0801,-1.9555,-1.9206,-1.9579,-1.7942,-1.6945,-1.6461,-1.5205,-1.3693,-1.1883,-0.9864,-0.8479,-0.7705,-0.7152,-0.6939,-0.6847,-0.6796,-0.6753,-0.6515,-0.5085,-0.5407,-0.616,-0.3252,-0.3212,-0.4454,-0.4396,-0.5394,-0.6749,-0.7394,-0.7539,-0.7845,-0.8902,-0.8332,-0.7306,-0.6946,-0.6638,-0.5781,-0.2882,-0.106,-0.0,-0.0,-0.0,-0.0437,-0.1861,-0.5058,-0.6777,-0.443,-0.5585,-0.7881,-1.0755,-1.0647,-1.0734,-1.2198,-1.2247,-1.2118,-1.2017,-1.1243,-1.0868,-1.1228,-1.0635,-1.0225,-1.0093,-1.0268,-1.0107,-0.9552,-0.9418,-0.8744,-0.7542,-0.6824,-0.6709,-0.724,0.0,0.0,0.0,0.0,0.0,0.0,0.0,0.0,0.0,0.0,0.0,0.0,0.0,0.0,0.0,0.0,0.0,0.0,0.0,0.0,0.0,0.0,0.0,-3.631,-3.8885,-4.0557,-4.0441,-4.2875,-4.3889,-4.221,-4.3622,-4.4688,-4.4676,-4.5326,-4.5019,-4.3439,-4.0458,-3.7223,-3.3774,-2.8762,-2.5267,-2.3533,-2.1398,-2.0189,-1.9918,-1.9474,-1.9129,-1.8919,-1.814,-1.6584,-1.4382,-1.3149,-1.1177,-0.8873,-0.7752,-0.7179,-0.6915,-0.6699,-0.5117,-0.274,-0.0991,-0.05,-0.0584,-0.0754,-0.3149,-0.6047,-0.5031,-0.5934,-0.757,-0.851,-0.8564,-0.8533,-0.997,-0.8937,-0.7381,-0.7732,-0.7038,-0.6362,-0.6521,-0.3346,-0.0163,-0.0,-0.0085,-0.1389,-0.5489,-0.6727,-0.6236,-0.3701,-0.6241,-0.9047,-1.0484,-1.076,0.0,-1.3016,-1.2424,-1.1757,-1.147,-1.169,-1.1623,-1.1056,-1.1716,-1.154,-1.0174,-1.0554,-1.0376,-0.921,-0.9408,-0.9138,-0.8323,-0.6904,-0.6243,-0.6426,0.0,0.0,0.0,0.0,0.0,0.0,0.0,0.0,0.0,0.0,0.0,0.0,0.0,0.0,0.0,0.0,0.0,0.0,0.0,0.0,0.0,0.0,-3.8654,-3.8416,-3.971,-4.1894,-4.5178,-4.5903,-4.6433,-4.7096,-4.6648,-4.6364,-4.6409,-4.6105,-4.5604,-4.4864,-4.2411,-3.9952,-3.7631,-3.3186,-2.9949,-2.811,-2.4804,-2.3248,-2.3374,-2.2155,-2.0929,-1.9848,-1.9195,-1.7701,-1.5391,-1.2753,-1.1289,-1.0494,-0.8123,-0.7161,-0.7168,-0.685,-0.5339,-0.3149,-0.0916,-0.2008,-0.4699,-0.4717,-0.4456,-0.4425,-0.627,-0.7118,-0.7659,-0.8923,-0.9393,-0.953,-0.9945,-0.9251,-0.8263,-0.788,-0.711,-0.6396,-0.6379,-0.5595,-0.3984,-0.0735,-0.2392,-0.4931,-0.6036,-0.6557,-0.678,-0.7033,-0.7805,-0.8936,-1.0687,-1.0825,0.0,-1.2182,-1.2077,-1.1979,-1.2186,-1.1344,-1.1063,-1.1661,-1.085,-1.0193,-0.9846,-0.9737,-0.9455,-0.8945,-0.8465,-0.7627,-0.6334,-0.6145,-0.6312,0.0,0.0,0.0,0.0,0.0,0.0,0.0,0.0,0.0,0.0,0.0,0.0,0.0,0.0,0.0,0.0,0.0,0.0,0.0,0.0,0.0,0.0,-4.0523,-4.214,-4.2784,-4.3469,-4.5088,-4.8384,-4.8362,-4.8479,-4.9565,-4.7976,-4.695,-4.7139,-4.6454,-4.5937,-4.5665,-4.3969,-4.2124,-4.0304,-3.635,-3.3181,-3.0952,-2.7711,-2.5948,-2.563,-2.4176,-2.278,-2.1511,-2.0688,-1.8941,-1.6601,-1.4386,-1.2632,-1.1096,-0.9065,-0.793,0.0,0.0,0.0,0.0,0.0,-0.1637,-0.3899,-0.4377,-0.4766,-0.5366,-0.657,-0.7553,-0.8428,-0.9406,-0.9688,-0.9705,-1.002,-0.9138,-0.8016,-0.7862,-0.7091,-0.6366,-0.6288,-0.6428,-0.5624,-0.2425,-0.341,-0.5235,-0.6138,-0.6887,0.0,-0.8693,-0.8811,-0.9448,-1.1241,-1.1484,-1.1621,-1.2221,-1.1607,-1.1305,-1.1689,-1.0721,-1.0442,-1.1341,-1.0718,0.0,0.0,0.0,-0.8883,-0.8539,-0.8154,0.0,0.0,0.0,-0.6633,-0.689,0.0,0.0,0.0,-0.7431,-0.7349,0.0,0.0,0.0,0.0,0.0,0.0,0.0,0.0,0.0,0.0,0.0,0.0,0.0,0.0,0.0,0.0,-4.3546,-4.5411,-4.8181,-4.879,-4.9324,-5.0434,-5.0188,-5.0066,-5.0446,-4.8433,-4.7202,-4.7435,-4.6792,-4.6312,-4.6186,0.0,0.0,0.0,0.0,-3.5616,-3.3054,-3.0309,-2.827,-2.7116,-2.5721,-2.453,-2.3556,-2.2181,-2.0207,-1.7789,-1.6643,-1.4372,-1.145,-1.0199,-0.8843,-0.7462,-0.66,-0.5149,-0.321,-0.1452,-0.0946,-0.1388,-0.2343,0.0,0.0,-0.6655,-0.7739,-0.9539,-0.9804,-0.9577,-0.9462,-0.9879,-0.8628,-0.7165,-0.7534,-0.6945,-0.6338,-0.6338,-0.6271,-0.5993,-0.4736,-0.3949,-0.4034,-0.6147,-0.743,-0.8474,-0.9337,-0.9607,-1.0264,-1.1977,-1.2198,-1.2222,-1.2516,-1.1129,-1.0189,-1.0533,0.0,0.0,-1.0581,-1.0962,-1.0724,-0.9686,-0.9183,-0.8625,-0.8079,-0.8226,-0.7869,-0.6959,-0.7136,-0.7057,-0.6696,-0.6696,-0.7128,-0.7842,-0.8551,-0.8585,0.0,0.0,0.0,0.0,0.0,0.0,0.0,0.0,0.0,0.0,0.0,0.0,0.0,0.0,0.0,-4.4238,-4.7511,-5.016,-5.1385,-5.2145,-5.2349,-5.1769,-5.11,-5.0931,-5.1541,-5.0444,-4.9495,-4.9011,-4.8448,-4.7874,-4.7319,-4.6855,-4.5897,-4.4345,-4.1358,-3.8909,-3.7019,-3.2887,-3.0209,-2.8922,0.0,0.0,-2.4204,-2.2297,-2.0393,-1.8581,-1.6268,-1.4504,-1.3081,-1.07,-0.8769,-0.7394,-0.6634,-0.6029,-0.5629,-0.5213,-0.5579,-0.6353,-0.6555,-0.7237,-0.8152,-0.8633,-0.9203,-0.962,-0.9462,-0.9491,0.0,-0.8112,-0.7459,-0.7021,-0.671,-0.6412,-0.6338,-0.6338,-0.6271,-0.6207,-0.5914,-0.5761,-0.6152,-0.7643,-0.7936,-0.8435,-1.0196,-1.0524,-1.0917,-1.2144,-1.1613,-1.0967,-1.0653,-1.0227,-1.0039,-1.0318,-1.0745,-1.1005,-1.1024,-1.0767,-1.0193,-0.9365,-0.8996,-0.8527,-0.781,-0.7817,-0.7492,-0.6709,-0.6723,-0.7009,-0.7509,-0.7509,-0.7883,-0.854,-0.7552,-0.7023,0.0,0.0,0.0,0.0,0.0,0.0,0.0,0.0,0.0,0.0,0.0,-3.6844,0.0,0.0,-4.4602,-4.8778,-5.0759,-5.2225,-5.3566,-5.3517,-5.2989,-5.2006,-5.123,-5.0942,-5.1275,-5.0259,-4.9528,-4.9364,-4.8931,-4.8505,-4.8164,-4.7504,-4.6745,-4.5822,-4.278,-4.0422,-3.8918,-3.514,-3.2444,-3.0869,-2.8819,-2.6978,-2.5341,-2.3803,-2.1922,-1.9689,-1.7912,-1.6148,-1.4316,-1.1695,-1.0063,-0.9117,-0.8595,-0.7919,-0.7293,-0.7126,-0.7601,-0.8217,-0.8089,-0.8499,-0.9053,-0.8872,-0.9254,-0.9695,-0.9212,-0.8737,-0.8255,-0.7784,-0.7074,-0.6447,-0.6481,-0.6276,-0.6166,-0.6244,-0.6268,-0.6247,-0.6169,-0.6213,-0.6475,-0.7003,-0.7503,-0.8084,-0.9135,-0.9739,-1.0415,-1.1391,-1.1087,-1.0495,-0.9543,-0.8967,-0.8944,-0.9789,-0.9718,-0.9866,-1.0423,-0.9993,-0.9321,-0.8494,-0.8671,-0.8321,-0.7182,-0.7503,-0.7343,-0.6588,-0.6907,-0.7283,-0.7723,-0.799,-0.8362,-0.8685,-0.7931,-0.7664,0.0,0.0,0.0,0.0,0.0,0.0,0.0,0.0,-3.1912,-3.5666,-3.6621,-3.8335,-4.3427,-4.4703,-4.6819,-5.2455,-5.3069,-5.3315,-5.4679,-5.3944,-5.2849,-5.1735,-5.1197,-5.0917,-5.0917,-4.9898,-4.9369,-4.9677,-4.9359,-4.9104,-4.8957,-4.8158,-4.7396,-4.6704,-4.3857,-4.16,-3.9991,-3.7199,-3.4832,-3.2849,-3.0956,-2.9009,-2.6916,-2.5708,-2.3706,-2.1144,-1.9852,-1.7887,-1.5442,-1.3168,-1.1875,-1.1249,-1.0723,-0.9922,-0.8944,-0.8375,-0.8656,-0.9171,-0.8832,-0.9428,-1.0053,-0.8964,-0.9267,-0.9839,-0.8913,-0.8006,-0.7402,-0.7671,-0.6869,-0.6009,-0.6439,-0.627,-0.6067,-0.6224,-0.6338,-0.6227,-0.6101,-0.6149,-0.6329,-0.6496,-0.7175,-0.788,-0.8179,-0.8817,-0.9599,-1.0415,-1.0335,-0.9798,-0.868,-0.7785,-0.7808,-0.9131,-0.8662,-0.874,-0.9765,-0.9328,-0.8677,-0.7955,-0.848,-0.8268,-0.7074,-0.7616,-0.7616,-0.702,-0.7498,-0.7765,-0.7883,-0.8362,-0.8573,-0.8573,-0.8573,-0.8633,-2.3091,-2.4768,-2.725,-2.9484,-2.9573,-3.0823,0.0,0.0,-3.7594,-4.2121,-4.3717,-4.4757,-4.6345,-4.8239,-5.0209,-5.2212,-5.3798,-5.4626,-5.4197,-5.3946,-5.3098,-5.1141,-5.1353,-5.1673,-5.1673,-5.1168,-5.0907,-5.1062,-5.0914,-5.0542,-4.9898,-4.9627,-4.8623,-4.6673,-4.5318,-4.3429,-4.0979,-3.9009,-3.6965,-3.4821,-3.2164,-3.0407,-2.9401,-2.7254,-2.5231,-2.3103,-2.0456,-1.8361,-1.6636,-1.5182,-1.3897,-1.2756,-1.1419,-1.1171,-1.1419,-0.9843,-0.9807,-1.0563,-1.0136,-1.0692,-1.1348,-1.0278,-1.0243,-1.0271,-0.8369,-0.7938,-0.7888,-0.6893,-0.6474,-0.6345,-0.6303,-0.6332,-0.6289,-0.63,-0.6338,-0.6254,-0.624,-0.6139,-0.6492,-0.801,-0.7877,-0.8038,-0.9577,-0.9532,-0.9372,-0.9448,-0.8689,-0.8009,-0.7664,-0.747,-0.7533,-0.8273,-0.8941,-0.9438,-0.9682,-0.9192,-0.8785,-0.8699,-0.8752,-0.8752,-0.854,-0.8646,-0.8646,-0.854,-0.8646,-0.858,-0.8521,-0.8573,-0.8521,-0.8421,-0.8421,-0.8474,-2.6544,-2.6964,-2.7834,0.0,-3.0939,-3.2479,-3.7419,-3.7908,-3.8639,-4.3318,-4.4849,-4.5983,-4.7916,-4.9908,-5.1775,0.0,-5.4343,-5.4938,-5.4784,-5.3796,-5.2567,-5.1206,-5.0576,-5.0411,-5.0786,-5.0544,-5.0462,-5.0753,-5.1016,-5.1024,-5.0707,-4.965,-4.8534,-4.7388,-4.5313,-4.3586,-4.2296,-4.0225,-3.8459,-3.6938,-3.4584,-3.2723,-3.1223,-2.9441,-2.7242,-2.4751,-2.223,-2.0461,-1.9252,-1.7499,-1.648,-1.5835,-1.4288,-1.3841,-1.3843,-1.1458,-1.1125,-1.181,-1.1372,-1.1253,-1.1115,-0.9976,-0.9483,-0.906,-0.7646,-0.7236,-0.722,-0.6801,-0.6452,-0.6295,-0.6543,-0.6389,-0.6218,-0.6451,-0.6412,-0.621,-0.6034,-0.6013,-0.6198,-0.6722,-0.698,-0.7266,-0.7542,-0.7761,-0.7785,-0.7451,-0.7635,-0.7524,-0.6923,-0.6589,-0.6695,-0.7279,-0.8185,-0.8778,-0.8928,-0.8796,-0.8692,-0.8804,-0.8804,-0.8804,-0.8804,-0.8804,-0.8804,-0.8804,-0.8646,-0.8586,-0.8626,-0.8421,-0.8321,-0.8268,-0.8268,-0.8321,-2.7861,-2.8198,0.0,-3.0784,-3.2407,-3.4248,-3.7612,-3.8388,-3.9581,-4.3819,-4.4997,-4.6007,-4.8407,-5.0142,-5.1773,-5.3588,-5.4361,-5.485,-5.5204,-5.3689,-5.2201,-5.1323,-4.9819,-4.9056,-4.962,-4.9444,-4.9704,-5.074,-5.085,-5.0972,-5.1206,-4.9703,-4.858,-4.8048,-4.5588,-4.3924,-4.3204,-4.1305,-3.9748,-3.8533,-3.6471,-3.4646,-3.2973,-3.1069,-2.8845,-2.6445,-2.4257,-2.2799,-2.1873,-1.9722,-1.8683,-1.8176,-1.6446,-1.561,-1.5154,-1.2855,-1.2349,-1.2671,-1.1998,-1.1526,-1.0967,-0.95,-0.8796,-0.8309,-0.7322,-0.6939,-0.6859,-0.6851,-0.663,-0.6357,-0.6659,-0.6407,-0.6139,-0.6451,-0.6412,-0.62,-0.5976,-0.5949,-0.5988,-0.6026,-0.6499,-0.6812,-0.6504,-0.694,-0.7128,-0.6676,-0.7319,-0.7421,-0.6343,-0.6145,-0.6278,-0.6693,-0.7711,-0.8408,-0.8521,-0.8676,-0.8804,-0.8925,-0.8851,-0.8804,-0.8804,-0.8804,-0.8804,-0.8745,-0.8533,-0.8474,-0.8474,-0.8268,-0.8168,-0.8115,-0.8115,-0.8115,-2.4989,-2.7208,-2.9703,-3.2251,-3.4197,-3.6353,-4.0054,-4.089,-4.1738,-4.4833,-4.5334,-4.5802,-4.7691,-4.8601,-4.9913,-5.2427,-5.3677,-5.4492,-5.5022,-5.3665,-5.2264,-5.1406,-4.9313,-4.8128,0.0,-4.8236,-4.9045,-5.1658,-5.0725,-5.0404,-5.1248,-5.0263,-4.9271,-4.8412,-4.6606,-4.4915,-4.3398,-4.2282,-4.0954,-3.9341,-3.7303,-3.5858,-3.4794,-3.1667,-2.9606,-2.8461,-2.6347,-2.4858,-2.3885,-2.1669,-2.0062,-1.8791,-1.6858,-1.5609,-1.4776,-1.384,-1.3477,-1.3281,-1.1735,-1.1452,-1.1316,-0.9367,-0.8699,-0.8551,-0.771,-0.748,-0.7363,-0.7045,-0.6916,-0.6763,-0.6399,-0.6325,-0.6286,-0.6297,-0.6338,-0.6257,-0.6247,-0.6017,-0.6064,-0.6861,-0.6978,-0.7138,-0.7958,-0.8131,-0.8136,-0.8141,-0.8009,-0.7449,-0.6165,-0.6478,-0.6873,-0.686,-0.7999,-0.8784,-0.8778,-0.9029,-0.917,-0.917,-0.8965,-0.8804,-0.8804,-0.8804,-0.8745,-0.8626,-0.8573,-0.8474,-0.8221,-0.8221,-0.8115,-0.7901,-0.7901,-0.7901,-2.6061,-2.8651,-3.1712,-3.4015,-3.5672,-3.7436,-4.0356,-4.102,-4.1593,-4.3563,-4.2696,-4.1839,-4.2825,-4.4661,-4.6588,-4.8407,-5.1756,-5.4584,-5.5796,-5.4479,-5.2893,-5.1537,-4.963,0.0,0.0,0.0,0.0,-5.037,-5.0112,-5.0269,-5.1176,-4.9761,-4.8751,-4.8412,-4.6338,-4.4851,-4.4061,-4.2741,-4.1616,-4.0706,-3.7673,-3.5383,-3.3725,-3.2164,-3.0602,-2.9046,-2.702,-2.5538,-2.4415,-2.233,-2.1201,-2.0607,-1.8312,-1.7136,-1.6512,-1.4551,-1.3682,-1.3404,-1.2629,-1.1691,-1.072,-0.982,-0.877,-0.7863,-0.7561,-0.7403,-0.7246,-0.6995,-0.678,-0.6648,-0.6529,-0.6409,-0.6346,-0.6475,-0.6412,-0.6203,-0.6,-0.639,-0.674,-0.6656,-0.7482,-0.8135,-0.7736,-0.8243,-0.8475,-0.7995,-0.7911,-0.7644,-0.6971,-0.7282,-0.7453,-0.7182,-0.7896,-0.8494,-0.8778,-0.8984,-0.9079,-0.9079,-0.8987,-0.8843,-0.8692,-0.8685,-0.8633,-0.8626,-0.8521,-0.8374,-0.8221,-0.8062,-0.7955,-0.7901,-0.7901,-0.7901,-2.8594,-3.0974,-3.3404,-3.5999,-3.7219,-3.8381,-4.0524,-4.1163,-4.1603,-4.2582,-4.1153,-3.9896,-4.0352,-4.1805,-4.3298,-4.4421,-4.7886,-5.1269,-5.3693,-5.2257,-5.1154,-5.1752,-4.9977,-4.8345,0.0,0.0,0.0,-4.9254,-4.9377,-4.9644,-5.0215,-4.8791,-4.7934,-4.7868,-4.5975,-4.4732,-4.428,-4.2903,-4.1485,-4.0097,-3.7435,-3.5155,-3.3143,-3.2434,-3.0987,-2.9033,-2.7404,-2.5835,-2.4404,-2.2738,-2.1619,-2.0817,-1.8887,-1.7623,-1.6619,-1.4712,-1.3777,-1.3419,-1.2813,-1.1842,-1.0795,-1.0196,-0.9165,-0.8209,-0.8209,-0.8074,-0.7797,-0.755,-0.7472,-0.7315,-0.6901,-0.6751,-0.6721,-0.6567,-0.6412,-0.6283,-0.6374,-0.6757,-0.7101,-0.7086,-0.8038,-0.8623,-0.8098,-0.8673,-0.9053,-0.8517,-0.8446,-0.8198,-0.7321,-0.7461,-0.7507,-0.7235,-0.7744,-0.8289,-0.8594,-0.8903,-0.9117,-0.918,-0.9123,-0.8987,-0.8749,-0.8736,-0.8684,-0.8527,-0.8421,-0.8321,-0.8221,-0.8008,-0.7901,-0.7901,-0.7901,-0.7901,-3.2206,-3.3808,-3.4832,-3.8057,-3.8889,-3.9194,-4.0598,-4.1321,-4.1748,-4.1687,-4.0514,-3.9568,0.0,0.0,-4.0124,-4.082,-4.275,-4.5546,-4.9492,-4.7829,-4.7789,0.0,0.0,0.0,0.0,0.0,0.0,-4.837,0.0,-4.8587,-4.8516,-4.7546,-4.6959,-4.6893,-4.5625,-4.4663,-4.4117,-4.2796,-4.0711,-3.7806,-3.675,-3.5141,-3.3171,-3.2393,-3.0811,-2.8499,-2.7447,-2.5893,-2.3908,-2.2917,-2.1373,-1.9516,-1.8583,-1.7139,-1.5494,-1.4449,-1.3873,-1.3433,-1.2498,-1.1909,-1.1552,-1.0571,-0.9892,-0.9488,-0.9488,-0.9262,-0.8946,-0.8604,-0.8687,-0.8621,-0.7508,-0.7346,-0.7407,-0.6567,-0.6416,-0.6641,-0.7395,-0.7274,-0.7288,-0.8161,-0.8538,-0.882,-0.9003,-0.945,-0.9746,-0.9566,-0.9478,-0.892,-0.7428,-0.7216,-0.7212,-0.7197,-0.7683,-0.8181,-0.8427,-0.895,-0.9279,-0.946,-0.9279,-0.9151,-0.8961,-0.8948,-0.8764,-0.8374,-0.8374,-0.8321,-0.8168,-0.8008,-0.7901,-0.7901,-0.7901,-0.7901,-3.351,-3.5792,-3.7948,-3.942,-3.9797,-3.969,-3.958,-3.9632,-3.9372,-3.7954,-3.5661,-3.3743,0.0,0.0,0.0,-3.9756,-4.5125,0.0,-5.3176,-5.245,0.0,-5.2591,0.0,-4.9373,-4.8275,-4.8255,0.0,0.0,-4.7437,-4.7816,-4.8541,-4.763,-4.7028,-4.6893,-4.5841,-4.4943,-4.4242,-4.2479,-4.0384,-3.7946,-3.693,-3.5157,-3.2701,-3.1832,-2.9744,-2.6769,-2.6151,-2.4793,-2.284,-2.2272,-2.1686,-2.107,-2.0043,-1.9172,-1.8161,-1.6236,-1.5249,-1.477,-1.4118,-1.2938,-1.1632,-1.1254,-1.053,-0.9803,-0.9803,-0.9617,-0.9421,-0.9129,-0.9025,-0.8844,-0.8392,-0.8358,-0.8322,-0.8169,-0.8093,-0.8129,-0.8202,-0.8524,-0.8796,-0.8726,-0.9069,-0.9362,-0.962,-0.9587,-0.9615,-0.9742,-0.943,-0.9086,-0.8646,-0.8696,-0.8743,-0.8556,-0.8658,-0.8907,-0.9309,-0.9375,-0.9304,-0.9162,-0.9091,-0.8877,-0.84,-0.8381,-0.8344,-0.8275,-0.8268,-0.8168,-0.7955,-0.7901,-0.7901,-0.7901,-0.7901,-0.7622,-3.6695,-3.8537,-4.0062,-4.0791,-4.0968,-4.048,-3.8612,-3.837,-3.7793,-3.514,-3.2861,-3.1197,-3.0538,-3.3238,0.0,0.0,0.0,0.0,-5.0587,-5.053,-5.0796,0.0,-5.1211,0.0,-4.8619,-4.8275,-4.765,0.0,-4.6837,-4.7153,-4.7278,-4.6752,-4.6378,-4.6256,-4.5706,-4.4909,-4.3923,-4.1923,-3.9907,-3.7845,-3.6379,-3.4422,-3.2132,-3.1268,-2.9314,-2.654,0.0,-2.495,-2.2895,-2.2552,-2.1793,-2.0863,-2.0158,-1.925,-1.8109,-1.677,-1.602,-1.5532,-1.5174,-1.4307,-1.3295,-1.2725,-1.1752,-1.0777,-1.0777,-1.0627,-1.0315,-1.0103,-1.0036,-0.9898,-0.9229,-0.9155,-0.916,-0.878,-0.8703,-0.8864,-0.9364,-0.9387,-0.9325,-0.9186,-0.9314,-0.9526,-0.9676,-0.958,-0.9532,-0.9682,-0.934,-0.9174,-0.9232,-0.9065,-0.8887,-0.8857,-0.8643,-0.8724,-0.9238,-0.9143,-0.9069,-0.898,-0.902,-0.8847,-0.8421,-0.8402,-0.8286,-0.8062,-0.8168,-0.8115,-0.7901,-0.7901,-0.7901,-0.7901,-0.7901,-0.7515,-4.0197,-4.1229,-4.1448,-4.21,-4.2046,-4.1046,-3.7789,-3.7323,-3.6538,-3.2716,-3.1113,-3.0281,-2.9889,-3.242,-3.434,-3.3665,0.0,-4.2878,-4.6147,-4.6493,-4.7944,-5.2031,-5.1152,-4.9754,-4.8608,-4.7827,-4.7002,-4.6028,-4.6551,-4.6554,-4.5673,-4.5603,-4.5531,-4.5419,-4.5207,-4.4478,-4.3264,-4.1196,-3.9319,-3.7663,-3.5712,-3.3741,-3.179,-3.0901,-2.9278,-2.7009,-2.6951,-2.5601,-2.3441,-2.3227,-2.1914,-1.9919,-1.972,-1.8665,-1.718,-1.6828,-1.6509,-1.6219,-1.5965,-1.5675,-1.5321,-1.4474,-1.3344,-1.2274,-1.2274,-1.2025,-1.1744,-1.1405,-1.1442,-1.1338,-1.0315,-1.0194,-1.0212,-0.9523,-0.9372,-0.9681,-1.0906,-1.0355,-0.9605,-0.9645,-0.9612,-0.9612,-0.9548,-0.9484,-0.9484,-0.9484,-0.9244,-0.9216,-0.9521,-0.8854,-0.8429,-0.8657,-0.8273,-0.8171,-0.8591,-0.8693,-0.8816,-0.8924,-0.8986,-0.8901,-0.854,-0.8515,-0.8294,-0.7901,-0.8055,-0.8055,-0.7901,-0.7901,-0.7901,-0.7901,-0.7901,-0.7461,-4.0662,-4.1461,-4.2135,-4.2832,-4.1939,-4.0034,-3.7001,-3.5913,0.0,0.0,-2.8867,-2.8544,-2.7453,-2.9682,-3.278,-3.5947,-3.9802,-4.414,-4.911,-4.9726,-5.0177,0.0,-5.0781,-4.9754,-4.8611,-4.7827,0.0,0.0,-4.6274,-4.5938,-4.5775,-4.5648,-4.5568,-4.5495,-4.4151,-4.3118,-4.2508,-4.0408,-3.8807,-3.7597,-3.6283,-3.4666,-3.2734,-3.1305,-2.9433,-2.7242,-2.6559,0.0,-2.3261,-2.2956,-2.2096,-2.0841,-2.0607,-2.0073,-1.9399,-1.8233,-1.7707,-1.7392,-1.6912,-1.6167,-1.5463,-1.5117,-1.472,-1.4379,-1.4157,-1.3968,-1.378,-1.3509,-1.3403,-1.323,-1.286,-1.283,-1.2865,-1.2858,-1.2851,-1.291,-1.3345,-1.2745,-1.1833,-1.0533,-1.0364,-1.0174,-0.9606,-0.9484,-0.9484,-0.9484,-0.9244,-0.9328,-0.9868,-0.9188,-0.8627,-0.8675,-0.8597,-0.8495,-0.8369,-0.8753,-0.8872,-0.8444,-0.8661,-0.857,-0.8045,-0.8021,-0.7943,-0.7723,-0.7777,-0.7777,-0.7723,-0.7723,-0.7723,-0.7723,-0.7723,-0.7015,-4.1779,-4.2734,-4.3553,-4.3754,-4.2904,-4.0942,-3.6445,0.0,0.0,0.0,-2.6975,-2.7055,-2.6724,-2.9216,0.0,-3.4181,-3.8164,-4.2295,-4.606,-4.7391,0.0,-4.9939,-4.9355,-4.8606,0.0,-4.7206,-4.661,-4.6356,-4.5993,-4.5775,-4.5692,-4.5437,-4.5072,-4.4632,-4.3453,-4.2292,-4.1163,-3.9355,-3.7707,-3.6222,-3.5052,-3.359,-3.1866,-3.1127,-2.9697,-2.7709,-2.7235,-2.5924,-2.4032,-2.3751,-2.2891,-2.168,-2.1495,-2.1059,-2.0482,-1.9369,-1.9073,-1.9168,-1.8424,-1.8065,-1.7852,-1.758,-1.6349,-1.4824,-1.4681,-1.453,-1.4386,-1.4243,-1.4034,-1.3818,-1.3673,-1.36,-1.36,-1.3673,-1.3767,-1.3669,-1.3005,-1.2859,-1.2472,-1.1276,-1.1031,-1.0905,-1.0598,-1.0231,-1.0168,-1.0471,-1.0034,-0.9903,-1.0663,-1.0301,-0.9879,-0.9679,-0.9711,-0.9535,-0.9067,-0.9239,-0.9103,-0.8371,-0.8405,-0.8303,-0.7919,-0.7901,-0.7788,-0.7622,-0.767,-0.7616,-0.7521,-0.7616,-0.7723,-0.7723,-0.7723,-0.7122,-4.2059,-4.3491,-4.4474,-4.4326,-4.3763,-4.1723,-3.6102,-3.4095,0.0,-2.6699,-2.5782,-2.6134,-2.6624,-2.8876,-3.0962,0.0,-3.5332,-3.9053,-4.2325,-4.4034,-4.5852,0.0,-4.7988,0.0,-4.7151,-4.6499,0.0,-4.5832,-4.5803,-4.5733,-4.5603,-4.513,-4.4543,-4.3836,-4.2822,-4.1593,-4.0155,-3.8398,-3.6772,-3.5213,-3.386,-3.2541,-3.1311,-3.0891,-2.9855,-2.8457,-2.8079,-2.6862,-2.5179,-2.4658,-2.3772,-2.2579,-2.2098,-2.169,-2.1227,-2.0333,-2.0279,-2.0526,-1.9759,-1.977,-2.0031,-1.9759,-1.7978,-1.586,-1.5649,-1.5508,-1.55,-1.5359,-1.5147,-1.5013,-1.4791,-1.4728,-1.4641,-1.4427,-1.4352,-1.4032,-1.2695,-1.2838,-1.2862,-1.1903,-1.1695,-1.1695,-1.1509,-1.1031,-1.0905,-1.1392,-1.0875,-1.0662,-1.1515,-1.1495,-1.1323,-1.1123,-1.0905,-1.0444,-0.968,-0.967,-0.9277,-0.8281,-0.8255,-0.8171,-0.7913,-0.7901,-0.7788,-0.7568,-0.7622,-0.7568,-0.7365,-0.7521,-0.7622,-0.7622,-0.7622,-0.7241,-4.0238,-4.2196,-4.3628,-4.4181,-4.3255,-4.0935,-3.601,0.0,-3.1367,-2.6653,-2.5933,-2.6295,-2.6725,-2.7223,-2.8512,-3.1283,-3.2329,-3.5045,-4.1533,-4.2646,-4.4014,-4.734,0.0,0.0,-4.6296,-4.6147,0.0,-4.589,-4.5825,-4.5733,-4.5603,-4.4803,-4.4212,-4.3899,-4.1935,-4.0686,-4.0281,-3.7917,-3.6469,-3.5985,-3.4186,-3.305,-3.255,-3.0814,-2.9887,-2.9674,-2.834,-2.7179,0.0,-2.5153,-2.4381,-2.3701,-2.2243,-2.1803,-2.2017,-2.1055,-2.0643,-2.059,-2.0333,-2.015,-2.0096,-1.9868,-1.9475,-1.909,-1.869,-1.8623,-1.8556,-1.8412,-1.8345,-1.8277,-1.8085,-1.8085,-1.7784,-1.673,-1.6066,-1.5367,-1.4383,-1.4202,-1.3876,-1.2637,-1.2389,-1.2197,-1.1578,-1.1454,-1.1454,-1.1509,-1.1425,-1.15,-1.1913,-1.2177,-1.2458,-1.273,-1.178,-1.0588,-0.9417,-0.9556,-0.9193,-0.8021,-0.8159,-0.8171,-0.7913,-0.7901,-0.7842,-0.767,-0.7568,-0.7521,-0.7467,-0.7365,-0.7311,-0.7311,-0.7311,-0.6928,-3.9322,-4.1644,-4.3554,-4.4289,-4.2194,-3.9096,-3.5925,0.0,-2.9526,-2.6337,-2.5976,-2.633,-2.6725,-2.6989,-2.7557,-2.8786,-3.0008,0.0,-3.5855,-3.7834,-4.0218,-4.3856,-4.4777,0.0,0.0,0.0,-4.5261,-4.5071,-4.4954,-4.4877,-4.4833,-4.4288,-4.3501,-4.2368,-4.113,-3.9674,-3.8015,-3.6875,-3.563,-3.4288,-3.3318,-3.2724,-3.2387,-3.1381,-3.0593,-2.9912,-2.8944,-2.8027,0.0,-2.5631,-2.519,-2.5342,-2.387,-2.3332,-2.3293,-2.2426,-2.2051,-2.1848,-2.1267,-2.128,-2.1397,-2.1044,-2.064,-2.0102,-1.9381,-1.911,-1.8977,-1.8977,-1.8834,-1.8767,-1.87,-1.8308,-1.7609,-1.6138,-1.5487,-1.4905,-1.3941,-1.3714,-1.3593,-1.3164,-1.307,-1.3009,-1.2757,-1.2381,-1.2258,-1.2634,-1.2389,-1.2281,-1.2819,-1.3047,-1.3141,-1.3314,-1.2862,-1.1988,-1.0523,-1.0315,-0.9706,-0.8214,-0.8087,-0.8009,-0.7907,-0.7901,-0.7919,-0.7964,-0.7757,-0.7643,-0.7743,-0.7541,-0.7419,-0.7413,-0.7311,-0.7149,-3.7731,-4.054,-4.2976,-4.3942,-4.1374,-3.8019,0.0,0.0,-2.8516,-2.6236,-2.601,-2.633,-2.6725,-2.7021,-2.7204,-2.7193,-2.8367,-3.0009,-3.2152,-3.4154,-3.68,0.0,0.0,-4.2822,0.0,-4.4975,-4.4674,-4.4214,-4.4092,-4.3916,-4.3624,-4.3118,-4.2373,-4.1338,-4.0349,-3.8887,-3.6946,-3.6233,-3.5086,-3.3514,-3.3001,-3.2615,-3.2324,-3.1736,-3.1037,-3.0242,-2.9281,-2.8574,0.0,-2.6115,-2.5868,-2.6525,-2.5075,-2.4521,-2.4365,-2.3582,-2.3085,-2.2724,-2.212,-2.212,-2.2363,-2.1982,-2.1473,-2.0807,-1.998,-1.9393,-1.9136,-1.9328,-1.9456,-1.9465,-1.9207,-1.8637,-1.7695,-1.6177,-1.5645,-1.5259,-1.4435,-1.4197,-1.4109,-1.4039,-1.4003,-1.3983,-1.3812,-1.3373,-1.3243,-1.3743,-1.3199,-1.2895,-1.3398,-1.3459,-1.3459,-1.3459,-1.345,-1.2929,-1.1546,-1.1103,-1.0271,-0.8689,-0.8311,-0.8055,-0.7901,-0.7901,-0.7937,-0.8011,-0.7823,-0.7757,-0.7833,-0.7606,-0.7521,-0.7521,-0.7365,-0.7203,-3.5134,-3.8553,-4.1542,-4.2896,-4.0996,-3.8164,0.0,-3.2197,-2.8808,-2.6385,-2.6118,-2.6383,-2.6758,-2.7181,-2.7441,-2.7233,-2.7549,0.0,-3.2145,-3.2742,0.0,0.0,0.0,-3.9355,-4.2175,-4.3983,-4.4557,-4.3483,-4.3408,0.0,-4.2063,-4.1089,-4.0775,-4.1284,-3.9621,-3.8455,-3.7895,-3.6229,-3.51,-3.4461,-3.3623,-3.297,-3.2573,-3.1573,-3.1048,-3.0892,-2.9212,-2.8485,0.0,-2.6738,-2.643,-2.6855,-2.5422,-2.4934,-2.4897,-2.417,-2.3454,-2.2777,-2.2618,-2.2524,-2.2363,-2.2268,-2.1982,-2.1584,-2.0913,-1.9983,-1.9362,-2.0018,-2.0631,-2.098,-2.0177,-1.9619,-1.9002,-1.776,-1.7248,-1.6992,-1.666,-1.6338,-1.5894,-1.5321,-1.5286,-1.5177,-1.4588,-1.4469,-1.4469,-1.4469,-1.383,-1.3302,-1.3302,-1.3302,-1.3302,-1.3302,-1.3407,-1.3109,-1.2145,-1.1636,-1.0793,-0.9404,-0.8837,-0.8368,-0.7901,-0.7901,-0.7901,-0.7907,-0.7783,-0.7723,-0.7723,-0.7568,-0.7521,-0.7521,-0.7365,-0.6928,-3.2928,-3.4856,-3.647,-3.7935,-3.5389,-3.2419,-3.2147,-2.9347,-2.6587,-2.6085,-2.6189,-2.6453,-2.6691,-2.7135,-2.7366,-2.7233,-2.7923,-2.8821,0.0,0.0,0.0,-3.7805,-4.0842,-4.2859,0.0,0.0,-4.3658,-4.2719,-4.1974,-4.1408,-4.1129,-3.9642,-3.9115,-3.9842,-3.8574,-3.7508,-3.6755,-3.5871,-3.5057,-3.4297,-3.3603,-3.2883,-3.2181,-3.159,-3.0803,-2.9916,-2.9038,-2.8721,-2.8683,-2.6896,-2.6732,-2.7478,-2.5991,-2.5474,-2.5431,-2.5077,-2.4296,-2.338,-2.3209,-2.28,-2.2359,-2.2163,-2.1552,-2.0888,-2.0576,-2.0306,-2.01,-2.0323,-2.0141,-1.9977,-2.0109,-1.9463,-1.8573,-1.7874,-1.7345,-1.6963,-1.6646,-1.65,-1.6315,-1.5808,-1.5706,-1.5523,-1.4881,-1.4883,-1.4942,-1.4765,-1.4291,-1.3872,-1.3769,-1.3484,-1.3302,-1.3302,-1.3407,-1.3117,-1.2102,-1.1341,-1.0441,-0.9307,-0.8527,-0.8055,-0.7901,-0.7901,-0.7985,-0.8165,-0.7931,-0.7931,-0.8104,-0.7811,-0.7568,-0.7521,-0.7467,-0.73,-3.1121,-3.2749,-3.4074,-3.5203,-3.2843,0.0,0.0,-2.8015,-2.5799,-2.6285,-2.6573,-2.6838,-2.7172,-2.7625,-2.7841,-2.7421,-2.8053,-2.8753,0.0,0.0,0.0,-3.6869,0.0,0.0,0.0,-4.2574,-4.2607,-4.1402,-4.0694,-4.015,-3.9785,-3.8382,-3.7795,-3.8281,-3.7584,-3.6894,-3.6235,-3.5534,-3.4829,-3.4184,-3.3413,-3.2746,-3.2172,-3.147,-3.0725,-2.9866,-2.9126,-2.875,0.0,-2.7068,-2.6829,-2.7278,-2.6299,-2.5751,-2.5559,-2.5469,-2.4678,-2.3694,-2.3537,-2.3083,-2.2537,-2.2278,-2.1589,-2.0795,-2.061,-2.0373,-2.006,-1.9746,-1.9568,-1.9369,-1.9313,-1.8918,-1.8362,-1.7664,-1.7637,-1.7685,-1.7486,-1.7559,-1.7478,-1.6957,-1.6769,-1.6387,-1.5753,-1.5518,-1.541,-1.5294,-1.4756,-1.4282,-1.3941,-1.3709,-1.3425,-1.2989,-1.3135,-1.2865,-1.1841,-1.1429,-1.0778,-0.9852,-0.8904,-0.8321,-0.8156,-0.8008,-0.7979,-0.8141,-0.7985,-0.7979,-0.8141,-0.7973,-0.7783,-0.7568,-0.772,-0.772,0.0,-3.1758,-3.3594,-3.4041,-3.2553,-3.0789,-3.0111,-2.7894,0.0,-2.6835,-2.7103,-2.7425,-2.794,-2.8415,-2.8525,-2.7752,-2.7988,-2.8703,0.0,-3.1129,0.0,0.0,-3.8947,0.0,-3.8741,-4.0737,-4.1458,-3.9836,-3.9591,-3.909,-3.8083,-3.719,-3.6659,-3.6543,-3.6454,-3.637,-3.6245,-3.5116,-3.4414,-3.4153,-3.313,-3.254,-3.2334,-3.1247,-3.0646,0.0,-2.9325,-2.8609,-2.8109,-2.7276,-2.674,-2.6436,-2.6258,-2.5917,-2.546,-2.546,-2.4752,-2.3822,-2.3709,-2.3319,-2.2795,-2.2615,-2.1969,-2.1175,-2.0894,-2.019,-1.9388,-1.8817,-1.8975,-1.9084,-1.8189,-1.823,-1.8255,-1.7301,-1.8038,-1.8924,-1.8892,-1.9156,-1.9219,-1.8627,-1.8108,-1.76,-1.6946,-1.6331,-1.5931,-1.5931,-1.5235,-1.4529,-1.3863,-1.3941,-1.357,-1.2512,-1.2664,-1.2486,-1.1515,-1.1738,-1.1581,-1.0786,-0.979,-0.9001,-0.8626,-0.8162,-0.7955,-0.7901,-0.7901,-0.7901,-0.7901,-0.8115,-0.8055,-0.7783,-0.8141,-0.8019,-2.8587,0.0,-2.9265,-2.9724,-2.8706,-2.7656,0.0,0.0,0.0,0.0,0.0,-2.6858,-2.7195,-2.7257,-2.7468,-2.7965,-2.8061,-2.8722,-3.0576,0.0,0.0,-3.8441,-4.05,-4.1188,-3.9574,-4.0054,-4.0292,-3.9881,-3.8576,-3.7362,-3.6416,-3.5445,-3.456,-3.3827,-3.3795,-3.4389,-3.5603,-3.4533,-3.392,-3.3809,-3.3194,-3.2261,-3.1028,-3.0516,-2.9777,-2.89,-2.8578,-2.7893,-2.7017,-2.7099,-2.6644,-2.5895,-2.6166,-2.617,-2.6007,-2.5901,-2.5406,-2.4863,-2.4759,-2.4048,-2.2979,-2.2356,-2.1983,-2.1684,-2.114,-2.0322,-1.9642,-1.9867,-1.929,-1.8677,-1.9206,-1.8892,-1.8372,-1.8207,-1.8505,-1.8899,-1.8881,-1.8966,-1.8966,-1.8722,-1.827,-1.7754,-1.7098,-1.6653,-1.641,-1.6306,-1.571,-1.5118,-1.4874,-1.4231,-1.3674,-1.3271,-1.3219,-1.2806,-1.1942,-1.1311,-1.0724,-1.021,-0.9553,-0.9001,-0.8626,-0.8474,-0.8262,-0.7901,-0.8062,-0.8115,-0.8115,-0.8268,-0.8315,-0.8262,-0.8331,-0.8277,-2.8493,-2.8436,-2.8276,-2.8451,-2.7807,-2.716,-2.7011,0.0,0.0,0.0,0.0,-2.708,-2.7482,-2.8022,-2.8415,-2.846,-2.9245,0.0,0.0,0.0,0.0,-3.8152,-3.9572,-4.0223,0.0,0.0,-3.9331,-3.8203,-3.7203,-3.6072,-3.4779,-3.4127,-3.3547,-3.3021,-3.2574,-3.2955,-3.4249,-3.3559,-3.3184,-3.3132,-3.2311,-3.1443,-3.0583,-2.9904,-2.9241,-2.8633,-2.859,-2.7911,-2.6827,-2.686,-2.6256,-2.5306,-2.5665,-2.5778,-2.5775,-2.5999,-2.5542,-2.482,-2.5041,-2.4364,-2.3319,-2.2785,-2.2434,-2.2077,-2.1589,-2.0806,-2.0025,-2.0035,-1.9446,-1.8869,-1.9195,-1.8913,-1.8508,-1.8441,-1.8757,-1.8946,-1.8627,-1.8794,-1.8884,-1.8521,-1.7966,-1.7447,-1.7137,-1.6653,-1.6353,-1.6202,-1.5894,-1.5584,-1.5118,-1.4834,-1.4273,-1.338,-1.3353,-1.3037,-1.2095,-1.1259,-1.0705,-1.0352,-0.9769,-0.9406,-0.9242,-0.9145,-0.8988,-0.8883,-0.8738,-0.8639,-0.8639,-0.8527,-0.8474,-0.8421,-0.8474,-0.8421,-2.8794,-2.8967,-2.9092,-2.8742,-2.8347,-2.7892,-2.73,0.0,0.0,0.0,0.0,0.0,-2.8174,-2.9138,0.0,0.0,0.0,0.0,-3.3272,-3.3858,-3.4899,-3.6744,-3.7903,0.0,-3.9048,-3.9115,-3.8241,-3.6152,-3.5742,-3.49,-3.3278,-3.3073,-3.294,-3.2714,-3.1948,-3.178,-3.2326,-3.2364,-3.239,-3.2371,-3.1224,-3.0577,-3.0255,-2.944,-2.887,-2.8562,0.0,0.0,-2.6792,-2.6508,-2.5719,-2.4722,-2.5007,-2.508,-2.5096,-2.5675,-2.516,-2.4313,-2.4814,-2.4411,-2.3631,-2.3463,-2.3024,-2.2495,-2.2184,-2.1495,-2.0664,-2.0141,-1.9659,-1.9261,-1.8967,-1.8874,-1.8768,-1.8394,-1.8799,-1.9039,-1.8463,-1.8695,-1.8888,-1.8351,-1.7687,-1.7144,-1.7026,-1.6526,-1.6066,-1.5961,-1.6009,-1.5884,-1.5186,-1.542,-1.505,-1.3433,-1.3515,-1.3234,-1.2214,-1.1648,-1.1277,-1.0964,-1.0336,-1.002,-1.0064,-0.9814,-0.9762,-1.0012,-0.9562,-0.9361,-0.9361,-0.8942,-0.8679,-0.858,-0.8633,-0.858,-2.8668,-2.9508,-3.0207,-2.9253,-2.8599,-2.807,-2.7618,0.0,0.0,0.0,0.0,0.0,0.0,-2.819,-2.8251,0.0,0.0,-3.4331,0.0,0.0,-3.797,-3.6876,0.0,-3.847,-3.6489,-3.6421,-3.6348,-3.6015,-3.4629,-3.3338,-3.226,-3.2193,-3.1817,-3.1017,-3.0836,-3.0443,-2.977,-3.1129,-3.1834,-3.1821,-3.1382,-3.0357,-2.883,-2.9174,-2.8463,-2.6995,0.0,-2.6976,-2.551,-2.5859,-2.5252,-2.417,-2.4547,-2.4503,-2.4264,-2.4332,-2.4149,-2.3914,-2.4095,-2.4087,-2.3897,-2.3528,-2.3319,-2.3143,-2.2646,-2.2253,-2.1918,-2.1704,-2.0439,-1.9246,-1.9711,-1.9631,-1.9279,-1.8632,-1.8958,-1.9298,-1.906,-1.8965,-1.8815,-1.8578,-1.7916,-1.7301,-1.6787,-1.6351,-1.6114,-1.6056,-1.6114,-1.6124,-1.6134,-1.6009,-1.5511,-1.4717,-1.4547,-1.4035,-1.2866,-1.2698,-1.2499,-1.2147,-1.125,-1.0651,-1.0517,-1.0167,-0.9961,-1.0012,-1.0012,-1.0064,-1.0064,-0.9658,-0.9458,-0.9406,-0.8956,-0.8692,-2.8528,-2.9135,-2.961,-2.9283,-2.9686,-3.0123,-2.9989,0.0,0.0,0.0,0.0,0.0,0.0,0.0,-3.0043,-3.2637,0.0,-3.4377,-3.6061,-3.5695,-3.5458,0.0,0.0,-3.642,-3.5715,-3.5775,-3.5284,-3.3935,-3.2668,-3.158,-3.0757,-3.0216,-2.976,-2.9313,-2.9232,-2.898,-2.8559,-2.9272,-2.9863,-3.0294,-3.0073,-2.9464,-2.8555,-2.8652,-2.7951,-2.6709,0.0,-2.6783,-2.5215,-2.5275,-2.4676,-2.377,-2.4135,-2.4081,-2.3759,-2.3483,-2.3571,-2.3736,-2.3367,-2.333,-2.3433,-2.3621,-2.3266,-2.273,-2.2513,-2.1872,-2.1173,-2.1187,-2.0844,-2.0514,-2.068,-2.061,-2.0359,-1.9876,-1.9876,-1.99,-1.94,-1.9192,-1.8948,-1.8237,-1.7761,-1.7277,-1.6711,-1.6477,-1.6343,-1.6228,-1.6285,-1.6343,-1.6363,-1.6136,-1.5739,-1.5134,-1.4848,-1.4379,-1.357,-1.3165,-1.2681,-1.2098,-1.1701,-1.141,-1.1191,-1.1099,-1.1049,-1.1141,-1.0897,-1.0795,-1.0795,-1.0277,-0.9865,-0.9614,-0.9361,-0.9054,-2.8481,-2.8917,-2.9296,-2.945,-3.0344,0.0,0.0,0.0,0.0,0.0,0.0,0.0,0.0,-3.0363,0.0,-3.4596,-3.4431,-3.4367,-3.5529,-3.4243,-3.375,-3.5372,-3.504,-3.4753,-3.4982,-3.4917,-3.4074,-3.2137,-3.1028,-3.0181,-2.9629,-2.8724,-2.8223,-2.8196,-2.8101,-2.7944,-2.7714,-2.7844,-2.8222,-2.8824,-2.8657,-2.8398,-2.8066,-2.7957,-2.7288,-2.6222,-2.693,-2.6368,-2.4926,-2.4697,-2.4159,-2.3517,-2.3739,-2.3561,-2.3181,-2.2852,-2.3005,-2.3259,-2.2816,-2.2735,-2.292,-2.347,-2.3064,-2.2301,-2.2162,-2.1393,-2.0585,-2.077,-2.1198,-2.1539,-2.1349,-2.1218,-2.1042,-2.0735,-2.0667,-2.0471,-1.9724,-1.9495,-1.912,-1.8112,-1.762,-1.7148,-1.6606,-1.6581,-1.6581,-1.641,-1.657,-1.6627,-1.6457,-1.6337,-1.5978,-1.5415,-1.5028,-1.4645,-1.4146,-1.3563,-1.2871,-1.2197,-1.2157,-1.2067,-1.1778,-1.1877,-1.1977,-1.2076,-1.1728,-1.1477,-1.1477,-1.0889,-1.032,-0.9762,-0.9666,-0.9309,-2.8605,-2.9537,-3.0479,-3.0212,-2.9621,0.0,-3.1172,-3.124,0.0,-3.1871,0.0,0.0,0.0,-3.1447,-3.2098,-3.3426,-3.4101,-3.5145,-3.7127,0.0,-3.6766,-3.5647,-3.5457,-3.4846,-3.3432,-3.2569,-3.2057,-3.1998,-3.0498,-2.9595,-2.9609,-2.8769,-2.8258,-2.8201,-2.8196,-2.7768,-2.6889,-2.7612,-2.7995,-2.7979,-2.7967,-2.7436,-2.6492,-2.7085,-2.6373,-2.4684,-2.5317,-2.5051,-2.4165,-2.4028,-2.3768,-2.3477,-2.3376,-2.296,-2.2371,-2.2276,-2.2128,-2.2029,-2.2599,-2.2702,-2.2671,-2.2904,-2.2891,-2.2633,-2.1868,-2.1505,-2.1392,-2.1657,-2.167,-2.152,-2.1056,-2.0955,-2.0899,-2.0353,-2.0646,-2.0837,-2.0245,-1.9742,-1.9246,-1.8725,-1.782,-1.6926,-1.6384,-1.6581,-1.6751,-1.657,-1.6786,-1.6955,-1.6955,-1.6656,-1.6297,-1.5829,-1.5477,-1.503,-1.4417,-1.3999,-1.3563,-1.3122,-1.2813,-1.248,-1.2076,-1.2076,-1.2076,-1.2076,-1.2076,-1.2026,-1.2026,-1.1519,-1.0947,-1.0312,-0.9814,-0.9309,-2.8369,-2.9107,-2.9755,-2.9627,-2.9374,0.0,0.0,-3.2966,-3.2866,-3.2225,-3.2456,0.0,0.0,0.0,-3.3769,-3.3864,-3.4997,-3.6138,-3.6923,-3.6463,-3.5844,-3.5315,-3.4438,-3.3455,-3.2351,-3.1444,-3.0743,-3.0283,-2.8715,-2.7809,-2.792,-2.708,-2.6638,-2.6637,-2.6649,-2.6476,-2.6116,-2.6337,-2.6423,-2.6417,-2.6863,-2.6836,-2.6371,-2.6534,-2.5842,-2.4547,-2.5282,-2.5022,-2.4094,-2.3996,-2.3876,-2.3714,-2.3405,-2.3146,-2.29,-2.2616,-2.232,-2.2089,-2.2287,-2.2195,-2.2049,-2.249,-2.241,-2.2059,-2.1792,-2.1348,-2.0837,-2.0455,-2.0385,-2.0514,-2.1016,-2.1121,-2.0844,-2.0003,-1.9965,-1.9993,-1.9674,-1.9483,-1.9115,-1.8228,-1.7759,-1.7198,-1.637,-1.6425,-1.6629,-1.6743,-1.6949,-1.7057,-1.6938,-1.6624,-1.6249,-1.5708,-1.5218,-1.4804,-1.4545,-1.4104,-1.361,-1.3112,-1.2852,-1.2529,-1.2126,-1.2076,-1.2076,-1.2076,-1.2076,-1.2076,-1.2076,-1.1578,-1.0998,-1.0364,-0.9865,-0.9249,-2.795,-2.8444,-2.8735,-2.8538,0.0,0.0,-3.2345,-3.3371,-3.3816,-3.3584,-3.3315,-3.2954,-3.2206,0.0,0.0,0.0,-3.4636,-3.5442,-3.5522,-3.4668,-3.4015,-3.3906,-3.2766,-3.1693,-3.0948,-3.0121,-2.9387,-2.8853,-2.7489,-2.676,-2.6888,-2.6071,-2.5633,-2.5703,-2.57,-2.5693,-2.5707,-2.5621,-2.5546,-2.5518,-2.6025,-2.6207,-2.6071,-2.5932,-2.5416,-2.4697,-2.5206,-2.4964,-2.4229,-2.4135,-2.4037,-2.3876,-2.3576,-2.3394,-2.3253,-2.2849,-2.2493,-2.2164,-2.2039,-2.1827,-2.1671,-2.2083,-2.1924,-2.1542,-2.1458,-2.0972,-2.0399,-1.9938,-1.9826,-1.9969,-2.0642,-2.0792,-2.0543,-1.9658,-1.951,-1.9485,-1.9195,-1.9066,-1.8824,-1.8103,-1.7673,-1.7195,-1.6528,-1.6423,-1.6446,-1.6658,-1.6818,-1.6818,-1.6714,-1.6379,-1.5981,-1.5482,-1.5084,-1.4697,-1.4419,-1.3952,-1.342,-1.2832,-1.2559,-1.2323,-1.2026,-1.2076,-1.2076,-1.2076,-1.2076,-1.2076,-1.2076,-1.1578,-1.0998,-1.0364,-0.9865,-0.9249,-2.7365,-2.7657,-2.7748,-2.7162,0.0,0.0,-3.0646,-3.2047,-3.3938,-3.6282,-3.411,-3.1951,-3.2415,-3.1625,0.0,-3.25,-3.2621,-3.2679,-3.2943,-3.2284,-3.1653,-3.1321,-3.0509,-2.974,-2.9148,-2.8352,-2.7913,-2.7981,-2.7179,-2.6741,-2.6886,-2.6069,-2.5633,-2.5703,-2.5703,-2.5702,-2.5707,-2.5707,-2.5636,-2.5505,-2.5561,-2.5531,-2.5389,-2.5182,-2.5072,-2.4998,-2.4869,-2.4685,-2.4495,-2.4372,-2.4136,-2.3896,-2.3828,-2.3611,-2.3277,-2.2865,-2.2485,-2.2181,-2.1899,-2.1724,-2.1589,-2.1589,-2.145,-2.1214,-2.0763,-2.0429,-2.0242,-2.0438,-2.0333,-2.0049,-1.9835,-1.988,-1.9832,-1.9238,-1.9398,-1.951,-1.8929,-1.8567,-1.8455,-1.8571,-1.7551,-1.6715,-1.6879,-1.6627,-1.635,-1.6221,-1.6311,-1.635,-1.6221,-1.5822,-1.547,-1.5165,-1.5108,-1.4823,-1.4071,-1.3647,-1.3084,-1.2323,-1.2076,-1.1877,-1.1877,-1.2026,-1.2076,-1.2076,-1.2076,-1.2076,-1.2076,-1.1578,-1.0998,-1.0364,-0.9865,-0.9249,-2.8293,-2.7969,-2.7612,-2.8745,0.0,0.0,0.0,-3.1718,0.0,0.0,-3.334,-3.2319,-3.2827,0.0,0.0,-3.1482,-3.1455,-3.15,-3.1839,-3.0865,-3.007,-2.9983,-2.8844,-2.8084,-2.8052,-2.7261,-2.6841,-2.6998,-2.6217,-2.5757,-2.5848,-2.5649,-2.5558,-2.5633,-2.5682,-2.5703,-2.5702,-2.5696,-2.5683,-2.5639,-2.5605,-2.5523,-2.5398,-2.5348,-2.5207,-2.4998,-2.4962,-2.4832,-2.462,-2.4391,-2.4135,-2.3896,-2.3828,-2.3743,-2.3634,-2.3394,-2.3,-2.2556,-2.2456,-2.2101,-2.1664,-2.162,-2.1511,-2.134,-2.1087,-2.0811,-2.061,-2.0524,-2.0177,-1.9768,-1.9566,-1.929,-1.9009,-1.8599,-1.8589,-1.8563,-1.8317,-1.8181,-1.7934,-1.7268,-1.6817,-1.6369,-1.5753,-1.5649,-1.5693,-1.5964,-1.6107,-1.6192,-1.6192,-1.5835,-1.5497,-1.539,-1.5198,-1.4971,-1.4569,-1.3695,-1.2967,-1.2686,-1.2157,-1.1877,-1.1877,-1.1927,-1.1977,-1.2076,-1.2026,-1.2026,-1.2076,-1.1578,-1.0998,-1.0364,-0.9865,-0.9197,-2.7205,-2.6995,0.0,-2.8258,-2.8633,-2.8987,-3.0232,0.0,0.0,0.0,-3.2293,-3.1384,-3.2418,-3.1322,0.0,-3.0268,-2.998,-2.9746,-2.9776,-2.8796,-2.8165,-2.8387,-2.7379,-2.6736,-2.6944,-2.6203,-2.5748,-2.5886,-2.5447,-2.5216,-2.5277,-2.5402,-2.5508,-2.5595,-2.5636,-2.5662,-2.5703,-2.5702,-2.5697,-2.5709,-2.5664,-2.5578,-2.5478,-2.5425,-2.5318,-2.5152,-2.5056,-2.4902,-2.4682,-2.4425,-2.4173,-2.3917,-2.3852,-2.3828,-2.3783,-2.3567,-2.3236,-2.2857,-2.259,-2.2198,-2.1781,-2.1634,-2.1481,-2.1325,-2.123,-2.0974,-2.0679,-2.0429,-1.998,-1.9566,-1.9325,-1.8965,-1.8634,-1.8411,-1.8254,-1.8095,-1.8042,-1.7962,-1.7774,-1.7186,-1.6905,-1.6552,-1.5768,-1.5603,-1.5586,-1.5591,-1.5672,-1.5765,-1.5892,-1.5657,-1.5513,-1.5558,-1.5379,-1.496,-1.4316,-1.3552,-1.2822,-1.2236,-1.1968,-1.1828,-1.1828,-1.1877,-1.1977,-1.2076,-1.1977,-1.1977,-1.2076,-1.1578,-1.0998,-1.0364,-0.9814,-0.9152,-2.5089,-2.5228,-2.5648,-2.6464,-2.772,0.0,-2.8553,-3.0366,-3.2303,-3.2945,0.0,-2.9792,-3.1359,-2.9834,-2.8467,-2.8865,-2.8255,-2.7602,-2.7186,-2.6459,-2.6136,-2.6674,-2.6005,-2.5593,-2.5853,-2.519,-2.4775,-2.4804,-2.4911,-2.5031,-2.5081,-2.5286,-2.5453,-2.558,-2.5595,-2.5631,-2.5682,-2.5703,-2.5703,-2.5696,-2.5703,-2.5677,-2.5605,-2.5473,-2.5406,-2.538,-2.5134,-2.4896,-2.4712,-2.4439,-2.4211,-2.4016,-2.3937,-2.3852,-2.3765,-2.344,-2.3277,-2.3116,-2.2466,-2.2153,-2.1969,-2.1648,-2.1435,-2.1199,-2.1183,-2.0925,-2.0597,-2.0273,-1.9889,-1.953,-1.9191,-1.8941,-1.8711,-1.8595,-1.8293,-1.8042,-1.8042,-1.7975,-1.7922,-1.7842,-1.7461,-1.6989,-1.6522,-1.6163,-1.5736,-1.5198,-1.5108,-1.5198,-1.5468,-1.5513,-1.557,-1.5671,-1.5558,-1.4983,-1.3653,-1.3389,-1.2774,-1.161,-1.1669,-1.1769,-1.1769,-1.1828,-1.1977,-1.2076,-1.1977,-1.1977,-1.2076,-1.1619,-1.1057,-1.0474,-0.9865,-0.9256,-2.5834,-2.497,0.0,-2.6509,-2.7824,-2.8349,-2.7864,-2.8219,-2.8866,-2.9517,-2.9851,-3.0013,-2.9826,-2.8292,-2.7023,-2.6869,-2.6225,-2.577,-2.5946,-2.5276,-2.4915,-2.5296,-2.4626,-2.4298,-2.4787,-2.4671,-2.4623,-2.479,-2.4911,-2.5003,-2.5019,-2.5262,-2.5413,-2.5434,-2.5559,-2.5618,-2.5622,-2.5677,-2.5702,-2.5703,-2.5702,-2.5683,-2.5685,-2.5593,-2.5479,-2.5313,-2.5252,-2.513,-2.4907,-2.4648,-2.4424,-2.421,-2.3978,-2.3855,-2.3792,-2.366,-2.3481,-2.3212,-2.2764,-2.2375,-2.201,-2.1601,-2.1402,-2.134,-2.1151,-2.1087,-2.1038,-2.0924,-2.061,-2.0273,-2.0135,-1.9588,-1.9072,-1.8988,-1.8644,-1.8347,-1.8189,-1.8149,-1.7989,-1.7447,-1.6989,-1.6509,-1.602,-1.568,-1.5402,-1.5267,-1.5165,-1.5198,-1.5468,-1.5513,-1.5513,-1.5558,-1.5513,-1.5232,-1.4617,-1.4107,-1.3684,-1.3294,-1.2647,-1.2332,-1.2332,-1.1977,-1.1877,-1.2076,-1.1877,-1.1877,-1.2076,-1.1977,-1.1619,-1.1108,-1.0854,-1.0336,-2.4926,-2.4432,0.0,-2.5855,0.0,-2.696,-2.6592,-2.6356,-2.6204,-2.6234,-2.7157,-2.7888,-2.7695,-2.6656,-2.5597,-2.497,-2.4545,-2.4275,-2.4217,-2.3857,-2.371,-2.4039,-2.3728,-2.3635,-2.406,-2.4117,-2.4229,-2.4476,-2.4682,-2.4747,-2.4747,-2.505,-2.5226,-2.5262,-2.5421,-2.5546,-2.5603,-2.5627,-2.5676,-2.57,-2.5701,-2.5703,-2.5693,-2.5593,-2.5486,-2.5348,-2.5303,-2.5187,-2.4987,-2.4861,-2.4604,-2.4284,-2.4154,-2.3998,-2.3855,-2.3768,-2.3656,-2.344,-2.3067,-2.2625,-2.2192,-2.1836,-2.1524,-2.1294,-2.1262,-2.1215,-2.1119,-2.0909,-2.0662,-2.0342,-1.9929,-1.95,-1.9087,-1.8784,-1.8567,-1.8372,-1.8254,-1.8175,-1.8016,-1.7639,-1.7352,-1.7018,-1.6539,-1.5932,-1.5468,-1.5312,-1.521,-1.5198,-1.5468,-1.5513,-1.5468,-1.5334,-1.5334,-1.5006,-1.4258,-1.3732,-1.3246,-1.2919,-1.2353,-1.2026,-1.2026,-1.1769,-1.1719,-1.1977,-1.1728,-1.1728,-1.1927,-1.1927,-1.1619,-1.1124,-1.0964,-1.0549,-2.3767,-2.3885,-2.4382,-2.4553,-2.4794,0.0,-2.4846,-2.4549,-2.4173,-2.349,-2.4342,-2.5258,-2.5329,-2.4797,-2.405,-2.3137,-2.3013,-2.2878,-2.2544,-2.2512,-2.2652,-2.3069,-2.3117,-2.3253,-2.3566,-2.3671,-2.3816,-2.4094,-2.4338,-2.4495,-2.4495,-2.4671,-2.4817,-2.4867,-2.4932,-2.5092,-2.5368,-2.5375,-2.5473,-2.5699,-2.5702,-2.5703,-2.5696,-2.5589,-2.5486,-2.5406,-2.535,-2.5146,-2.4834,-2.4803,-2.4549,-2.4182,-2.4134,-2.4044,-2.3937,-2.3891,-2.3786,-2.3656,-2.3301,-2.2875,-2.2432,-2.2001,-2.1606,-2.1276,-2.1048,-2.1037,-2.1006,-2.0571,-2.0485,-2.0326,-1.9645,-1.9369,-1.9161,-1.8655,-1.85,-1.8383,-1.8266,-1.8108,-1.8002,-1.8002,-1.7855,-1.7544,-1.6985,-1.6262,-1.5644,-1.5217,-1.5152,-1.5198,-1.5424,-1.5468,-1.5379,-1.5108,-1.5108,-1.4686,-1.3552,-1.3256,-1.2822,-1.2116,-1.1859,-1.1719,-1.1628,-1.1528,-1.1628,-1.1828,-1.1619,-1.1578,-1.1728,-1.1728,-1.1469,-1.1023,-1.0863,-1.0541,-2.4402,0.0,-2.2883,0.0,-2.2499,-2.2831,0.0,0.0,-2.2766,0.0,-2.3323,-2.4182,-2.3001,-2.2607,-2.2214,-2.1456,-2.1327,-2.142,-2.1702,-2.1744,-2.1989,-2.2695,-2.2772,-2.2898,-2.3236,-2.3522,-2.3714,-2.3756,-2.4211,-2.4495,-2.4495,-2.4095,-2.3907,-2.3973,-2.3493,-2.3638,-2.4471,-2.4475,-2.4898,-2.5694,-2.5701,-2.5703,-2.5703,-2.5672,-2.5617,-2.5486,-2.5412,-2.4947,-2.4197,-2.3961,-2.3809,-2.3676,-2.3502,-2.3724,-2.4154,-2.4078,-2.3917,-2.3656,-2.3247,-2.3035,-2.2694,-2.1328,-2.1309,-2.1474,-1.9763,-2.0127,-2.0943,-2.0131,-2.0288,-2.0728,-2.0613,-2.0326,-1.9965,-1.9603,-1.9236,-1.8822,-1.8187,-1.8028,-1.8002,-1.7909,-1.7475,-1.6767,-1.5674,-1.5555,-1.5381,-1.4716,-1.491,-1.5153,-1.53,-1.5357,-1.521,-1.496,-1.5108,-1.4869,-1.3826,-1.4129,-1.3941,-1.2919,-1.2716,-1.2491,-1.2224,-1.1728,-1.1528,-1.1569,-1.1528,-1.1578,-1.1728,-1.1728,-1.1678,-1.1578,-1.1469,-1.1167,-2.397,-2.2828,-2.1661,0.0,-2.0576,-2.0578,-2.0607,-2.0879,-2.1037,-2.0683,-2.1524,-2.2201,-2.18,-2.1666,-2.1521,-2.107,-2.0991,-2.1055,-2.1244,-2.1275,-2.1475,-2.2017,-2.2074,-2.2307,-2.2873,-2.3045,-2.3212,-2.3414,-2.3803,-2.3858,-2.3418,-2.3446,-2.3285,-2.2918,-2.2753,-2.2953,-2.3508,-2.3996,-2.4728,-2.5637,-2.5679,-2.568,-2.5627,-2.5174,-2.4921,-2.4812,-2.4761,-2.4207,-2.3361,-2.3236,-2.308,-2.2918,-2.2827,-2.3165,-2.363,-2.2995,-2.2941,-2.3091,-2.2346,-2.1877,-2.1479,-2.0764,-2.0528,-2.0395,-1.941,-1.9466,-1.9874,-1.9845,-2.0036,-2.0256,-2.0403,-2.0326,-2.0035,-1.9391,-1.9109,-1.8808,-1.8095,-1.7962,-1.7962,-1.7733,-1.7475,-1.704,-1.6338,-1.6261,-1.6077,-1.5358,-1.5304,-1.5379,-1.5312,-1.521,-1.5074,-1.4743,-1.4891,-1.4605,-1.3742,-1.3847,-1.3658,-1.3064,-1.2589,-1.2206,-1.2076,-1.1619,-1.1377,-1.1377,-1.1377,-1.1427,-1.1477,-1.1477,-1.1477,-1.1477,-1.1175,-1.1074,0.0,0.0,-2.1444,-2.0057,-1.9566,-1.9397,0.0,0.0,-1.9427,0.0,-1.9688,-2.0167,-2.0606,-2.0788,-2.0848,-2.0693,-2.0665,-2.0698,-2.0797,-2.0829,-2.0991,-2.1399,-2.1521,-2.1803,-2.2378,-2.2591,-2.2797,-2.3045,-2.3213,-2.307,-2.2535,-2.2555,-2.2334,-2.1854,-2.1851,-2.2077,-2.2508,-2.365,-2.455,-2.527,-2.5291,-2.5293,-2.5249,-2.4413,-2.3913,-2.3663,-2.383,-2.3353,-2.25,-2.2502,-2.2365,-2.2178,-2.2144,-2.2488,-2.2899,-2.2078,-2.2061,-2.2316,-2.1506,-2.0986,-2.0603,-2.0229,-1.9923,-1.9601,-1.8898,-1.8812,-1.9026,-1.9242,-1.9403,-1.961,-1.9976,-2.003,-1.989,-1.931,-1.9001,-1.8631,-1.8028,-1.7895,-1.776,-1.737,-1.7262,-1.7128,-1.6673,-1.6542,-1.6308,-1.5726,-1.5496,-1.5334,-1.521,-1.5074,-1.4834,-1.4523,-1.4616,-1.4326,-1.3515,-1.3515,-1.3372,-1.288,-1.2452,-1.2157,-1.2058,-1.1719,-1.1528,-1.1528,-1.1377,-1.1326,-1.1326,-1.1326,-1.1326,-1.1267,-1.0871,-1.082,0.0,-2.3559,0.0,-2.0216,-1.9948,-2.0034,0.0,0.0,-1.8292,-1.8266,-1.8248,-1.8383,-1.8936,-1.945,-1.9792,-1.9762,-1.9747,-1.9909,-2.028,-2.0348,-2.0516,-2.0991,-2.1368,-2.1612,-2.1642,-2.2296,-2.2721,-2.2721,-2.2377,-2.2264,-2.2497,-2.1261,-2.0655,-2.0881,-2.0387,-2.0565,-2.1468,-2.3295,-2.4263,-2.4375,-2.4302,-2.4308,-2.4339,-2.3466,-2.2651,-2.1964,-2.2734,-2.2537,-2.1655,-2.1662,-2.1613,-2.1531,-2.1484,-2.1749,-2.2148,-2.2032,-2.1728,-2.136,-2.1187,-2.1108,-2.0862,-1.9646,-1.9762,-1.9935,-1.7707,-1.8049,-1.8977,-1.7909,-1.8179,-1.89,-1.9563,-1.9624,-1.9619,-1.9873,-1.9246,-1.849,-1.7985,-1.7693,-1.7356,-1.6837,-1.6639,-1.631,-1.5593,-1.5446,-1.5318,-1.5163,-1.4887,-1.4789,-1.4903,-1.4743,-1.4523,-1.4269,-1.4477,-1.4186,-1.3112,-1.3621,-1.3536,-1.2569,-1.289,-1.2967,-1.257,-1.2255,-1.2076,-1.2076,-1.1578,-1.1326,-1.1326,-1.1326,-1.1326,-1.1267,-1.0871,-1.0446,0.0,0.0,0.0,-2.0289,-1.9197,-1.8555,-1.8311,-1.7942,-1.7712,-1.8072,-1.8098,-1.8185,-1.8341,-1.8817,-1.9281,-1.9639,-1.969,-1.9747,-1.9909,-1.9909,-2.007,-2.0483,-2.0682,-2.1007,-2.1552,-2.1832,-2.2136,-2.2409,-2.2037,-2.1616,-2.1171,-2.0562,-2.0078,-1.9773,-1.9713,-2.0221,-2.1318,-2.2685,-2.3638,-2.4167,-2.4183,-2.4213,-2.4197,-2.2792,-2.203,-2.1792,-2.1561,-2.1218,-2.0827,-2.0789,-2.0739,-2.0723,-2.0666,-2.1032,-2.1487,-2.0731,-2.0633,-2.0727,-1.9957,-1.9629,-1.9459,-1.8836,-1.8733,-1.8659,-1.7612,-1.7501,-1.7738,-1.7741,-1.8171,-1.8808,-1.9515,-2.0019,-2.0172,-1.9587,-1.8263,-1.7086,-1.6969,-1.7063,-1.71,-1.682,-1.6599,-1.6389,-1.6282,-1.6386,-1.6459,-1.6321,-1.5799,-1.5355,-1.5277,-1.4789,-1.4373,-1.4222,-1.4373,-1.4186,-1.3467,-1.3763,-1.3668,-1.289,-1.2803,-1.2559,-1.2157,-1.1769,-1.1578,-1.1578,-1.1427,-1.1326,-1.1326,-1.1326,-1.1326,-1.1276,-1.0592,-1.0344,-2.4767,0.0,0.0,0.0,-1.958,-1.8694,-1.8277,0.0,-1.745,-1.7544,-1.7544,-1.7626,-1.7787,-1.8145,-1.8535,-1.908,-1.9169,-1.9169,-1.9169,-1.9169,-1.9339,-1.9778,-1.9989,-2.0351,-2.1086,-2.1306,-2.1568,-2.2032,-2.1542,0.0,-2.078,-2.0241,-1.9741,-1.9308,-1.9442,-1.9932,-2.0843,-2.2123,-2.2915,-2.3226,-2.3545,-2.3579,-2.328,-2.1872,-2.1262,-2.1305,-2.0786,-2.0526,-2.0432,-2.0394,-2.033,-2.0308,-2.0242,-2.0479,-2.0739,-1.9938,-1.9902,-2.0104,-1.9263,-1.8877,-1.8753,-1.8448,-1.8229,-1.8044,-1.771,-1.7368,-1.7199,-1.748,-1.7761,-1.8205,-1.9107,-1.9814,-2.0045,-1.8989,-1.7714,-1.6669,-1.6477,-1.6633,-1.6671,-1.6169,-1.6136,-1.6218,-1.6359,-1.6258,-1.6278,-1.6693,-1.5893,-1.5201,-1.522,-1.4697,-1.428,-1.414,-1.4233,-1.414,-1.3658,-1.3821,-1.3716,-1.3218,-1.289,-1.2608,-1.2353,-1.1819,-1.1578,-1.1578,-1.1368,-1.1326,-1.1326,-1.1175,-1.1124,-1.1074,-1.0182,-0.9821,0.0,0.0,0.0,0.0,0.0,0.0,-1.8475,0.0,-1.7464,-1.671,-1.6522,-1.6625,-1.7146,-1.7271,-1.7422,-1.7933,-1.8066,-1.8106,-1.8106,-1.8106,-1.8302,-1.8817,-1.9295,-1.9763,-2.023,-2.0682,-2.115,-2.1552,-2.0907,-2.0788,-2.1437,-2.0284,-1.9575,-1.9512,-1.9504,-1.9662,-1.9988,-2.1624,-2.2138,-2.1501,-2.2278,-2.2295,-2.1562,-2.0707,-2.0338,-2.0394,-2.0461,-2.0505,-2.051,-2.0501,-2.043,-2.0302,-2.0269,-2.0093,-1.9869,-1.9794,-1.9632,-1.9421,-1.9191,-1.9064,-1.8947,-1.8545,-1.8368,-1.8249,-1.7927,-1.7704,-1.7502,-1.7035,-1.6882,-1.712,-1.832,-1.8967,-1.9103,-1.8188,-1.7734,-1.7329,-1.6627,-1.6472,-1.6098,-1.4879,-1.5191,-1.5687,-1.5758,-1.482,-1.4537,-1.6026,-1.5006,-1.4193,-1.4538,-1.4351,-1.4118,-1.401,-1.414,-1.4035,-1.361,-1.3716,-1.3716,-1.3563,-1.3266,-1.3122,-1.3112,-1.2452,-1.2076,-1.2076,-1.1519,-1.1276,-1.1267,-1.0871,-1.0667,-1.0667,-0.9777,-0.8995,-2.5162,0.0,0.0,0.0,0.0,0.0,0.0,0.0,-1.7773,-1.7558,-1.698,-1.6411,-1.6114,-1.6058,-1.5971,-1.5684,-1.704,-1.8106,-1.8106,-1.8106,-1.8185,-1.8302,-1.8788,-1.9273,-1.9763,-2.023,-2.0682,0.0,-2.076,-2.0565,-2.0761,-1.9898,-1.953,-1.9848,-1.9454,-1.9339,-1.9638,-2.0921,-2.1464,-2.1289,-2.1618,-2.1674,-2.1504,-2.0684,-2.0302,-2.0322,-2.0445,-2.0504,-2.0503,-2.0501,-2.0455,-2.0303,-1.963,-1.9265,-1.9097,-1.896,-1.8828,-1.877,-1.9165,-1.9253,-1.913,-1.8947,-1.8734,-1.8469,-1.8217,-1.7898,-1.7566,-1.7337,-1.7763,-1.8445,-1.9045,-1.8439,-1.7578,-1.7288,-1.6424,-1.5672,-1.5513,-1.5698,-1.5737,-1.5339,-1.506,-1.4931,-1.498,-1.5008,-1.5069,-1.5189,-1.4421,-1.3948,-1.4258,-1.3849,-1.3672,-1.3978,-1.414,-1.4035,-1.361,-1.3266,-1.2909,-1.2463,-1.1931,-1.1493,-1.1259,-1.1065,-1.0922,-1.0922,-1.0446,-1.0226,-1.0226,-1.0277,-1.0328,-1.0328,-0.9302,-0.8514,0.0,0.0,0.0,0.0,0.0,0.0,-2.021,-1.9151,-1.817,0.0,-1.6864,-1.6312,-1.5952,-1.5738,-1.5499,-1.5141,-1.599,-1.6693,-1.6693,-1.7107,-1.7422,-1.7395,-1.7894,-1.8521,-1.9222,-1.9564,-1.9989,-2.0649,-2.0716,-2.078,-2.0921,-2.0174,-1.9817,-1.9951,-1.9326,-1.9125,-1.9462,-2.0474,-2.0872,-2.066,-2.1107,-2.1197,-2.0945,-2.0477,-2.0253,-2.0257,-2.0376,-2.0426,-2.0458,-2.0485,-2.0479,-2.0315,-1.9048,-1.8678,-1.8827,-1.8389,-1.8137,-1.8113,-1.8733,-1.8883,-1.886,-1.9054,-1.8696,-1.8163,-1.8037,-1.7708,-1.732,-1.7149,-1.7839,-1.8676,-1.8756,-1.7829,-1.691,-1.7057,-1.5771,-1.4645,-1.5183,-1.5051,-1.4796,-1.4848,-1.4774,-1.4669,-1.4518,-1.4464,-1.4461,-1.4467,-1.3812,-1.338,-1.3526,-1.3217,-1.3072,-1.3257,-1.3369,-1.3307,-1.3124,-1.2795,-1.2484,-1.2101,-1.1592,-1.1116,-1.071,-1.0565,-1.0522,-1.0522,-1.0249,-0.9873,-0.9399,-0.9503,-0.9444,-0.9228,-0.8613,-0.809,0.0,0.0,0.0,0.0,0.0,0.0,-2.0463,-1.9702,-1.8914,0.0,-1.6976,-1.6713,-1.6636,-1.6325,-1.5997,-1.5967,-1.5348,-1.4869,-1.4744,-1.5611,-1.6269,-1.6219,-1.6786,-1.7572,-1.8521,-1.8803,-1.9251,-2.0093,-2.0682,-2.1152,-2.1481,-2.0872,-2.0321,-1.9978,-1.927,-1.9037,-1.935,-2.0148,-2.0304,-1.9858,-2.0664,-2.0733,-2.0174,-2.019,-2.0205,-2.0192,-2.0275,-2.0326,-2.0395,-2.036,-2.0367,-2.0183,-1.8547,-1.8232,-1.8647,-1.787,-1.7489,-1.7461,-1.8005,-1.8267,-1.8387,-1.8877,-1.8453,-1.7767,-1.7733,-1.7452,-1.7104,-1.6965,-1.7452,-1.8032,-1.7824,-1.7104,-1.6533,-1.6931,-1.5369,-1.4098,-1.515,-1.4486,-1.3686,-1.3771,-1.4299,-1.4598,-1.4164,-1.3523,-1.3251,-1.3678,-1.3159,-1.2665,-1.2498,-1.2478,-1.2457,-1.2254,-1.2265,-1.231,-1.2387,-1.2279,-1.2176,-1.2092,-1.1701,-1.1259,-1.0846,-1.0557,-1.0411,-1.0411,-1.0308,-0.9725,-0.856,-0.8567,-0.8302,-0.7818,-0.7818,-0.7664,0.0,0.0,0.0,0.0,0.0,0.0,-2.2436,-2.1701,-2.1036,0.0,-2.0019,-1.9429,-1.882,-1.8789,-1.8642,-1.8112,-1.7079,-1.5919,-1.4835,-1.488,-1.5062,-1.505,-1.5959,-1.6634,-1.6873,-1.8104,-1.8968,-1.914,-2.0299,-2.1179,-2.1562,-2.1248,-2.0814,-2.0315,-1.9745,-1.9301,-1.8999,-1.9371,-1.9557,-1.949,-1.9931,-2.0088,-1.996,-2.0136,-2.0199,-2.0205,-2.0272,-2.0302,-2.0262,-1.9687,-1.9444,-1.9348,-1.8303,-1.7566,-1.7044,-1.6814,-1.665,-1.6643,-1.7397,-1.7971,-1.8416,-1.8571,-1.8738,-1.8832,-1.8574,-1.8282,-1.8063,-1.8185,-1.7489,-1.6746,-1.6949,-1.5939,-1.4796,-1.4623,-1.4187,-1.384,-1.3968,-1.3777,-1.3478,-1.3023,-1.3377,-1.3681,-1.3361,-1.3204,-1.2911,-1.2404,-1.2198,-1.1986,-1.1735,-1.1879,-1.1933,-1.1923,-1.2136,-1.2266,-1.225,-1.1565,-1.1169,-1.1375,-1.0533,-0.9976,-0.9873,-0.9821,-0.9777,-0.9777,-0.9152,-0.8256,-0.7128,-0.7818,-0.7871,-0.7241,-0.7241,-0.7133,0.0,0.0,0.0,-2.3699,0.0,0.0,0.0,-2.1896,-2.106,-2.0499,-1.9807,-1.9279,-1.9215,-1.8797,-1.8592,-1.906,-1.722,-1.5866,-1.6276,-1.5385,-1.4606,-1.4283,-1.5039,-1.5784,-1.6336,-1.7164,-1.809,-1.9148,-2.0112,-2.0943,-2.1552,-2.1126,-2.0887,-2.0938,-1.994,-1.9591,-1.9988,-1.9361,-1.9344,-1.9951,-1.975,-1.9688,-1.9743,-1.9904,-1.999,-2.0022,-1.9657,-1.9558,-1.9593,-1.8785,-1.8231,-1.787,-1.7459,-1.7013,-1.6547,-1.6072,-1.581,-1.583,-1.6624,-1.733,-1.791,-1.8328,-1.8281,-1.8009,-1.7853,-1.7273,-1.6741,-1.7139,-1.6648,-1.6013,-1.6082,-1.5376,-1.4551,-1.4225,-1.3763,-1.3449,-1.3619,-1.3275,-1.2899,-1.2719,-1.2796,-1.2779,-1.2423,-1.2564,-1.2423,-1.1605,-1.1714,-1.1678,-1.1259,-1.125,-1.1244,-1.1104,-1.1246,-1.1344,-1.1305,-1.0803,-1.06,-1.0951,-1.0142,-0.9715,-0.9769,-0.9465,-0.9152,-0.8771,-0.8243,-0.7557,-0.6804,-0.7015,-0.6961,-0.6647,-0.6647,-0.6593,0.0,0.0,0.0,0.0,0.0,-2.3725,0.0,0.0,0.0,-2.0131,-1.9564,0.0,0.0,0.0,0.0,0.0,0.0,0.0,0.0,-1.6454,0.0,-1.4518,-1.4529,-1.5014,-1.6213,-1.657,-1.7491,-1.9317,-2.0112,-2.0732,-2.1321,-2.0934,-2.09,-2.1284,-2.0213,-1.9991,-2.0728,-1.959,-1.9416,-2.0158,-1.9644,-1.9448,-1.9553,-1.9638,-1.9744,-1.9805,-1.9163,-1.8888,-1.8864,-1.8172,-1.7365,-1.6589,-1.6653,-1.6542,-1.6275,-1.5553,-1.5237,-1.5237,-1.5869,-1.6633,-1.7422,-1.7843,-1.7492,-1.6893,-1.6876,-1.6088,-1.5325,-1.5783,-1.5724,-1.5488,-1.528,-1.4903,-1.4497,-1.4177,-1.3479,-1.3016,-1.3325,-1.277,-1.2269,-1.245,-1.2279,-1.2004,-1.1708,-1.2002,-1.2074,-1.133,-1.1567,-1.159,-1.0985,-1.0833,-1.0659,-1.0312,-1.0341,-1.04,-1.0382,-1.0218,-1.0232,-1.0527,-1.0003,-0.9719,-0.9739,-0.9235,-0.858,-0.7818,-0.7599,-0.7224,-0.6696,-0.6322,-0.6159,-0.6209,-0.6209,-0.6154,0.0,0.0,0.0,0.0,-2.4155,0.0,0.0,0.0,-2.3836,-2.2077,0.0,0.0,0.0,0.0,0.0,0.0,0.0,0.0,-1.9159,-1.7851,-1.7001,-1.689,-1.5175,-1.4554,-1.5911,-1.725,-1.8266,-1.8939,-2.0338,-2.0959,-2.0467,-2.1116,-2.12,-2.0626,-2.1019,-2.0653,-1.9428,-1.9659,-1.9503,-1.9003,-1.9214,-1.9346,-1.9438,-1.9559,-1.9625,-1.9619,-1.9525,-1.9178,-1.864,-1.8597,-1.7766,-1.6517,-1.6581,-1.6167,-1.5526,-1.5353,-1.5282,-1.5276,-1.5304,-1.6266,-1.7377,-1.6734,-1.6693,-1.6877,-1.6771,-1.6399,-1.604,-1.5993,-1.5454,-1.4865,-1.4725,-1.4,-1.3246,-1.3043,-1.2815,-1.2576,-1.2347,-1.2115,-1.1874,-1.1693,-1.1522,-1.151,-1.1796,-1.2108,-1.2172,-1.1778,-1.1779,-1.159,-1.1002,-1.085,-1.0554,-0.9932,-1.0196,-1.037,-1.0317,-1.0134,-0.997,-0.9923,-0.9516,-0.916,-0.8848,-0.8813,-0.8368,-0.7396,-0.7444,-0.6961,-0.59,-0.5845,-0.595,-0.6209,-0.6209,-0.605,0.0,0.0,0.0,0.0,0.0,0.0,-2.3905,0.0,-2.4091,0.0,0.0,0.0,0.0,0.0,0.0,0.0,-2.1744,0.0,0.0,0.0,-1.678,0.0,0.0,0.0,-1.507,-1.6345,-1.7156,-1.7114,-1.8819,-1.9908,-1.9904,-2.0485,-2.0926,-2.1095,-2.0983,-2.1008,-2.1154,-2.0082,-1.9682,-1.9909,-1.9291,-1.898,-1.8929,-1.9191,-1.9361,-1.9364,-1.848,-1.7999,-1.7783,-1.6866,-1.6189,-1.5686,-1.5719,-1.5568,-1.5345,-1.5351,-1.5648,-1.5986,-1.5446,-1.627,-1.7404,-1.6472,-1.6272,-1.6268,-1.5714,-1.5398,-1.5198,-1.506,-1.4672,-1.4261,-1.415,-1.4008,-1.3709,-1.3117,-1.3086,-1.3109,-1.29,-1.2457,-1.2091,-1.2169,-1.1828,-1.152,-1.1484,-1.1556,-1.1425,-1.09,-1.0806,-1.0758,-1.0516,-1.0237,-1.001,-0.9913,-1.0088,-1.0155,-0.9953,-0.9708,-0.9578,-0.9716,-0.9345,-0.882,-0.8048,-0.8118,-0.7753,-0.6979,-0.6869,-0.6521,-0.5896,-0.5626,-0.5462,-0.534,-0.5563,-0.5622,-2.3569,0.0,0.0,0.0,0.0,0.0,0.0,0.0,0.0,0.0,0.0,0.0,0.0,0.0,0.0,0.0,0.0,-2.133,0.0,-1.9822,0.0,0.0,0.0,0.0,0.0,-1.6428,-1.6877,-1.6401,-1.8083,-1.9244,-1.9405,-1.9989,-2.0583,-2.115,-2.0907,-2.1216,-2.2014,-2.0391,-1.9797,-2.0279,-1.9165,-1.8605,-1.8529,-1.8771,-1.882,-1.8665,-1.7581,-1.6988,-1.669,-1.5552,-1.5053,-1.5004,-1.505,-1.5139,-1.5226,-1.5321,-1.5741,-1.6189,-1.5553,-1.6056,-1.6918,-1.6378,-1.6005,-1.5628,-1.4954,-1.4668,-1.4519,-1.4374,-1.4149,-1.3934,-1.383,-1.3953,-1.3969,-1.3327,-1.3322,-1.342,-1.3215,-1.2671,-1.2271,-1.2357,-1.1954,-1.146,-1.1108,-1.1156,-1.1038,-1.0497,-1.0351,-1.0344,-1.0449,-1.0026,-0.9842,-1.0128,-1.0166,-1.001,-0.9704,-0.9377,-0.9301,-0.9427,-0.8948,-0.8343,-0.7576,-0.7529,-0.7267,-0.6678,-0.6427,-0.6168,-0.595,-0.5407,-0.4967,-0.4691,-0.5022,-0.5132,0.0,0.0,0.0,-2.2464,0.0,0.0,0.0,0.0,-2.4991,0.0,0.0,0.0,0.0,0.0,0.0,0.0,0.0,0.0,0.0,0.0,0.0,0.0,0.0,0.0,0.0,-1.8392,-1.8517,0.0,-1.9061,-1.9566,-1.8954,-1.9814,-2.0314,-2.0348,-2.1149,-2.1249,-2.0558,-2.0365,-1.9911,-1.924,-1.8614,-1.8316,-1.8321,-1.8333,-1.7932,-1.7272,-1.7347,-1.6644,-1.5469,-1.5545,-1.524,-1.4719,-1.4924,-1.5004,-1.5025,-1.5226,-1.5367,-1.5426,-1.5403,-1.5438,-1.5575,-1.6261,-1.5868,-1.5105,-1.4944,-1.4804,-1.4651,-1.4451,-1.4263,-1.404,-1.3848,-1.3622,-1.343,-1.3396,-1.326,-1.3013,-1.2607,-1.2416,-1.2133,-1.1638,-1.1413,-1.1155,-1.0705,-1.1156,-1.1495,-1.1201,-1.0998,-1.0935,-1.1058,-1.0653,-1.0417,-1.057,-1.04,-1.0118,-0.9628,-0.9439,-0.9153,-0.8763,-0.8062,-0.7615,-0.7605,-0.7338,-0.6979,-0.6514,-0.637,-0.612,-0.5795,-0.5077,-0.4691,-0.4691,-0.4691,-0.4632,0.0,0.0,-2.3687,-2.3214,0.0,0.0,0.0,0.0,0.0,0.0,0.0,0.0,0.0,0.0,0.0,0.0,0.0,0.0,0.0,0.0,0.0,0.0,0.0,0.0,0.0,0.0,0.0,0.0,-1.7584,0.0,-1.7838,-1.914,-2.0139,-2.0681,-2.1023,-2.1332,-2.1623,-2.0617,-1.995,-1.9655,-1.8608,-1.8057,-1.798,-1.8208,-1.7872,-1.7107,-1.6676,-1.6054,-1.5306,-1.4849,-1.4671,-1.465,-1.4811,-1.4916,-1.5012,-1.5232,-1.5683,-1.6208,-1.6245,-1.5871,-1.5449,-1.5687,-1.5526,-1.521,-1.5076,-1.4973,-1.4877,-1.4718,-1.4489,-1.4257,-1.4056,-1.383,-1.3636,-1.3545,-1.3379,-1.3325,-1.3611,-1.3122,-1.2657,-1.2731,-1.214,-1.1527,-1.1173,-1.1121,-1.0903,-1.0247,-0.99,-0.973,-0.9825,-0.9499,-0.9391,-0.9702,-0.9641,-0.9507,-0.9347,-0.909,-0.8725,-0.8265,-0.795,-0.753,-0.6881,-0.6881,-0.6645,-0.6107,-0.5878,-0.5807,-0.5862,-0.5345,-0.4967,-0.4688,-0.4356,-0.419,-2.3346,-2.3482,0.0,-2.334,-2.3861,0.0,-2.4241,0.0,-2.5139,0.0,0.0,0.0,0.0,0.0,0.0,0.0,0.0,0.0,0.0,-2.2516,0.0,0.0,0.0,0.0,0.0,0.0,-1.7438,-1.5853,-1.727,-1.797,0.0,-1.8819,-2.0015,-2.0681,-2.091,-2.1339,-2.1991,-2.0646,-1.995,-1.9881,-1.8485,-1.7783,-1.7715,-1.7905,-1.7428,-1.6399,-1.5999,-1.5349,-1.4559,-1.4151,-1.4144,-1.4409,-1.4521,-1.4701,-1.4882,-1.5135,-1.5604,-1.615,-1.6211,-1.5868,-1.5407,-1.5409,-1.5359,-1.5287,-1.5166,-1.5076,-1.4977,-1.483,-1.4629,-1.4398,-1.4227,-1.4028,-1.3865,-1.3704,-1.3338,-1.3176,-1.371,-1.3094,-1.2542,-1.2925,-1.2347,-1.1703,-1.1445,-1.1118,-1.0681,-1.0008,-0.9661,-0.9539,-0.9636,-0.9357,-0.9276,-0.9602,-0.9472,-0.9238,-0.8939,-0.8706,-0.848,-0.8152,-0.7953,-0.7579,-0.7027,-0.6852,-0.6643,-0.6318,-0.5976,-0.5873,-0.5958,-0.5444,-0.4998,-0.4627,-0.4144,-0.3848]},{"header":{"parameterUnit":"m.s-1","parameterCategory":1,"la1":30.6,"la2":29.2853,"lo1":-89.7004,"lo2":-87.6739,"dy":0.0162,"dx":0.0183,"nx":112,"ny":82,"refTime":"2023-05-14T12:00:00:Z","depth":0,"parameterNumber":3,"parameterNumberName":"V-component_of_WINDS"},"data":[0.0,0.0,0.0,0.0,0.0,0.0,0.0,0.0,0.0,0.0,0.0,0.0,0.0,0.0,0.0,0.0,0.0,0.0,0.0,0.0,0.0,0.0,0.0,0.0,0.0,0.0,0.0,0.0,0.0,0.0,0.0,0.0,0.0,0.0,0.0,0.0,0.0,0.0,0.0,0.0,0.0,0.0,0.0,0.0,0.0,0.0,0.0,0.0,0.0,0.0,0.0,0.0,0.0,0.0,0.0,0.0,0.0,0.0,0.0,0.0,0.0,0.0,0.0,0.0,0.0,0.0,0.0,0.0,0.0,0.0,0.0,0.0,0.0,0.0,0.0,0.0,0.0,0.0,0.0,0.0,0.0,0.0,0.0,0.0,0.0,0.0,0.0,0.0,0.0,0.0,-2.6972,-3.0738,-3.6454,-3.996,-3.9881,-3.9613,-3.7754,-3.3752,0.0,0.0,0.0,0.0,0.0,0.0,0.0,0.0,0.0,0.0,0.0,0.0,0.0,0.0,0.0,0.0,0.0,0.0,0.0,0.0,0.0,0.0,0.0,0.0,0.0,0.0,0.0,0.0,0.0,0.0,0.0,0.0,0.0,0.0,0.0,0.0,0.0,0.0,0.0,0.0,0.0,0.0,0.0,0.0,0.0,0.0,0.0,0.0,0.0,0.0,0.0,0.0,0.0,0.0,0.0,0.0,0.0,0.0,0.0,0.0,0.0,0.0,0.0,0.0,0.0,0.0,0.0,0.0,0.0,0.0,0.0,0.0,0.0,0.0,0.0,0.0,0.0,0.0,0.0,0.0,0.0,0.0,0.0,0.0,0.0,0.0,0.0,0.0,0.0,0.0,0.0,0.0,0.0,0.0,0.0,0.0,0.0,0.0,0.0,0.0,0.0,0.0,0.0,0.0,-2.8839,-3.4729,-3.8255,-4.0131,-4.0075,-3.7934,-3.5721,-3.364,0.0,0.0,0.0,0.0,0.0,0.0,0.0,0.0,0.0,0.0,0.0,0.0,0.0,0.0,0.0,0.0,0.0,0.0,0.0,0.0,0.0,0.0,0.0,0.0,0.0,0.0,0.0,0.0,0.0,0.0,0.0,0.0,0.0,0.0,0.0,0.0,0.0,0.0,0.0,0.0,0.0,0.0,0.0,0.0,0.0,0.0,0.0,0.0,0.0,0.0,0.0,0.0,0.0,0.0,0.0,0.0,0.0,0.0,0.0,0.0,0.0,0.0,0.0,0.0,0.0,0.0,0.0,0.0,0.0,0.0,0.0,0.0,0.0,0.0,0.0,0.0,0.0,0.0,0.0,0.0,0.0,0.0,0.0,0.0,0.0,0.0,0.0,0.0,0.0,0.0,0.0,0.0,0.0,0.0,0.0,0.0,0.0,0.0,0.0,0.0,0.0,0.0,0.0,-2.6974,-3.0356,-3.4105,-3.6878,-3.864,-3.9031,-3.6743,-3.4783,-3.3539,-3.1099,0.0,0.0,0.0,0.0,0.0,0.0,0.0,0.0,0.0,0.0,0.0,0.0,0.0,0.0,0.0,0.0,0.0,0.0,0.0,0.0,0.0,0.0,0.0,0.0,0.0,0.0,0.0,0.0,0.0,0.0,0.0,0.0,0.0,0.0,0.0,0.0,0.0,0.0,0.0,0.0,0.0,0.0,0.0,0.0,0.0,0.0,0.0,0.0,0.0,0.0,0.0,0.0,0.0,0.0,0.0,0.0,0.0,0.0,0.0,0.0,0.0,0.0,0.0,0.0,0.0,0.0,0.0,0.0,0.0,0.0,0.0,0.0,0.0,0.0,0.0,0.0,0.0,0.0,0.0,0.0,0.0,0.0,0.0,0.0,0.0,0.0,0.0,0.0,0.0,0.0,0.0,0.0,0.0,0.0,0.0,0.0,0.0,0.0,0.0,0.0,0.0,0.0,-2.8398,-3.1124,-3.2958,-3.5344,-3.7101,-3.7707,-3.5549,-3.3748,-3.2891,-2.935,0.0,0.0,0.0,0.0,0.0,0.0,0.0,0.0,0.0,0.0,0.0,0.0,0.0,0.0,0.0,0.0,0.0,0.0,0.0,0.0,0.0,0.0,0.0,0.0,0.0,0.0,0.0,0.0,0.0,0.0,0.0,0.0,0.0,0.0,0.0,0.0,0.0,0.0,0.0,0.0,0.0,0.0,0.0,0.0,0.0,0.0,0.0,0.0,0.0,0.0,0.0,0.0,0.0,0.0,0.0,0.0,0.0,0.0,0.0,0.0,0.0,0.0,0.0,0.0,0.0,0.0,0.0,0.0,0.0,0.0,0.0,0.0,0.0,0.0,0.0,0.0,0.0,0.0,0.0,0.0,0.0,0.0,0.0,0.0,0.0,0.0,0.0,0.0,0.0,0.0,0.0,0.0,0.0,0.0,0.0,0.0,0.0,0.0,0.0,0.0,0.0,0.0,-2.7924,-3.0659,-3.328,-3.5287,-3.6451,-3.6429,-3.4018,-3.21,-3.1202,-2.7827,0.0,0.0,0.0,0.0,0.0,0.0,0.0,0.0,0.0,0.0,0.0,0.0,0.0,0.0,0.0,0.0,0.0,0.0,0.0,0.0,0.0,0.0,0.0,0.0,0.0,0.0,0.0,0.0,0.0,0.0,0.0,0.0,0.0,0.0,0.0,0.0,0.0,0.0,0.0,0.0,0.0,0.0,0.0,0.0,0.0,0.0,0.0,0.0,0.0,0.0,0.0,0.0,0.0,0.0,0.0,0.0,0.0,0.0,0.0,0.0,0.0,0.0,0.0,0.0,0.0,0.0,0.0,0.0,0.0,0.0,0.0,0.0,0.0,0.0,0.0,0.0,0.0,0.0,0.0,0.0,0.0,0.0,0.0,0.0,0.0,0.0,0.0,0.0,0.0,0.0,0.0,0.0,0.0,0.0,0.0,0.0,0.0,0.0,0.0,0.0,0.0,0.0,-2.7789,-2.9979,0.0,-3.335,-3.4466,-3.4423,-3.2611,-3.1099,-3.0185,0.0,0.0,0.0,0.0,0.0,0.0,0.0,0.0,0.0,0.0,0.0,0.0,0.0,0.0,0.0,0.0,0.0,0.0,0.0,0.0,0.0,0.0,0.0,0.0,0.0,0.0,0.0,0.0,0.0,0.0,0.0,0.0,0.0,0.0,0.0,0.0,0.0,0.0,0.0,0.0,0.0,0.0,0.0,0.0,0.0,0.0,0.0,0.0,0.0,0.0,0.0,0.0,0.0,0.0,0.0,0.0,0.0,0.0,0.0,0.0,0.0,0.0,0.0,0.0,0.0,0.0,0.0,0.0,0.0,0.0,0.0,0.0,0.0,0.0,0.0,0.0,0.0,0.0,0.0,0.0,0.0,0.0,0.0,0.0,0.0,0.0,0.0,0.0,0.0,0.0,0.0,0.0,0.0,0.0,0.0,0.0,0.0,0.0,0.0,0.0,0.0,0.0,-2.5118,-2.7122,-2.8937,0.0,-3.1726,-3.2807,-3.3279,-3.1274,-2.99,-2.9671,0.0,0.0,0.0,0.0,0.0,0.0,0.0,0.0,0.0,0.0,0.0,0.0,0.0,0.0,0.0,0.0,0.0,0.0,0.0,0.0,0.0,0.0,0.0,0.0,0.0,0.0,0.0,0.0,0.0,0.0,0.0,0.0,0.0,0.0,0.0,0.0,0.0,0.0,0.0,0.0,0.0,0.0,0.0,0.0,0.0,0.0,0.0,0.0,0.0,0.0,0.0,0.0,0.0,0.0,0.0,0.0,0.0,0.0,0.0,0.0,0.0,0.0,0.0,0.0,0.0,0.0,0.0,0.0,0.0,0.0,0.0,0.0,0.0,0.0,0.0,0.0,0.0,0.0,0.0,0.0,0.0,0.0,0.0,0.0,0.0,0.0,0.0,0.0,0.0,0.0,0.0,0.0,0.0,0.0,0.0,0.0,0.0,0.0,0.0,0.0,0.0,0.0,-2.4589,-2.5814,-2.7509,-2.9827,-3.0751,-3.1765,-3.3237,-2.9918,-2.8378,0.0,0.0,0.0,0.0,0.0,0.0,0.0,0.0,0.0,0.0,0.0,0.0,0.0,0.0,0.0,0.0,0.0,0.0,0.0,0.0,0.0,0.0,0.0,0.0,0.0,0.0,0.0,0.0,0.0,0.0,0.0,0.0,0.0,0.0,0.0,0.0,0.0,0.0,0.0,0.0,0.0,0.0,0.0,0.0,0.0,0.0,0.0,0.0,0.0,0.0,0.0,0.0,0.0,0.0,0.0,0.0,0.0,0.0,0.0,0.0,0.0,0.0,0.0,0.0,0.0,0.0,0.0,0.0,0.0,0.0,0.0,0.0,0.0,0.0,0.0,0.0,0.0,0.0,0.0,0.0,0.0,0.0,0.0,0.0,0.0,0.0,0.0,0.0,0.0,0.0,0.0,0.0,0.0,0.0,0.0,0.0,0.0,0.0,0.0,0.0,0.0,0.0,0.0,-2.4847,-2.6144,-2.7399,-2.8579,-2.9913,-3.0554,-3.014,-2.8626,-2.7849,-2.8102,0.0,0.0,0.0,0.0,0.0,0.0,0.0,0.0,0.0,0.0,0.0,0.0,0.0,0.0,0.0,0.0,0.0,0.0,0.0,0.0,0.0,0.0,0.0,0.0,0.0,0.0,0.0,0.0,0.0,0.0,0.0,0.0,0.0,0.0,0.0,0.0,0.0,0.0,0.0,0.0,0.0,0.0,0.0,0.0,0.0,0.0,0.0,0.0,0.0,0.0,0.0,0.0,0.0,0.0,0.0,0.0,0.0,0.0,0.0,0.0,0.0,0.0,0.0,0.0,0.0,0.0,0.0,0.0,0.0,0.0,0.0,0.0,0.0,0.0,0.0,0.0,0.0,0.0,0.0,0.0,0.0,0.0,0.0,0.0,0.0,0.0,0.0,0.0,0.0,0.0,0.0,0.0,0.0,0.0,0.0,0.0,0.0,0.0,0.0,0.0,0.0,0.0,-2.4931,-2.5993,-2.6952,-2.7661,-2.8904,-2.9418,-2.8881,-2.7618,-2.6943,-2.7106,0.0,0.0,0.0,0.0,0.0,0.0,0.0,0.0,0.0,0.0,0.0,0.0,0.0,0.0,0.0,0.0,0.0,0.0,0.0,0.0,0.0,0.0,0.0,0.0,0.0,0.0,0.0,0.0,0.0,0.0,0.0,0.0,0.0,0.0,0.0,0.0,0.0,0.0,0.0,0.0,0.0,0.0,0.0,0.0,0.0,0.0,0.0,0.0,0.0,0.0,0.0,0.0,0.0,0.0,0.0,0.0,0.0,0.0,0.0,0.0,0.0,0.0,0.0,0.0,0.0,0.0,0.0,0.0,0.0,0.0,0.0,0.0,0.0,0.0,0.0,0.0,0.0,0.0,0.0,0.0,0.0,0.0,0.0,0.0,0.0,0.0,0.0,0.0,0.0,0.0,0.0,0.0,0.0,0.0,0.0,0.0,0.0,0.0,0.0,0.0,0.0,0.0,-2.5042,-2.5681,-2.631,-2.7161,-2.7947,-2.8492,-2.8757,-2.6894,-2.5964,-2.6556,0.0,0.0,0.0,0.0,0.0,0.0,0.0,0.0,0.0,0.0,0.0,0.0,0.0,0.0,0.0,0.0,0.0,0.0,0.0,0.0,0.0,0.0,0.0,0.0,0.0,0.0,0.0,0.0,0.0,0.0,0.0,0.0,0.0,0.0,0.0,0.0,0.0,0.0,0.0,0.0,0.0,0.0,0.0,0.0,0.0,0.0,0.0,0.0,0.0,0.0,0.0,0.0,0.0,0.0,0.0,0.0,0.0,0.0,0.0,0.0,-2.5806,0.0,0.0,0.0,0.0,0.0,0.0,0.0,0.0,0.0,0.0,0.0,0.0,0.0,0.0,0.0,0.0,0.0,0.0,0.0,0.0,0.0,0.0,0.0,0.0,0.0,0.0,0.0,0.0,0.0,0.0,0.0,0.0,0.0,0.0,0.0,0.0,0.0,0.0,0.0,0.0,0.0,-2.5981,-2.6078,-2.6412,-2.7478,-2.8088,-2.8063,-2.7197,-2.6725,-2.6252,-2.5781,-2.509,0.0,0.0,0.0,0.0,0.0,0.0,0.0,0.0,0.0,0.0,0.0,0.0,0.0,0.0,0.0,0.0,0.0,0.0,0.0,0.0,0.0,0.0,0.0,0.0,0.0,0.0,0.0,0.0,0.0,0.0,0.0,0.0,0.0,0.0,0.0,0.0,0.0,0.0,0.0,0.0,0.0,0.0,0.0,0.0,0.0,0.0,0.0,0.0,0.0,0.0,0.0,0.0,0.0,0.0,0.0,0.0,0.0,0.0,0.0,0.0,-2.7825,0.0,0.0,0.0,0.0,0.0,0.0,0.0,0.0,0.0,0.0,0.0,0.0,0.0,0.0,0.0,0.0,0.0,0.0,0.0,0.0,0.0,0.0,0.0,0.0,0.0,0.0,0.0,0.0,0.0,0.0,0.0,0.0,0.0,0.0,0.0,0.0,0.0,0.0,0.0,0.0,-2.612,-2.6134,-2.6244,-2.686,-2.7487,-2.7545,-2.6725,-2.6353,-2.608,-2.5863,-2.5274,0.0,0.0,0.0,0.0,0.0,0.0,0.0,0.0,0.0,0.0,0.0,0.0,0.0,0.0,0.0,0.0,0.0,0.0,0.0,0.0,0.0,0.0,0.0,0.0,0.0,0.0,0.0,0.0,0.0,0.0,0.0,0.0,0.0,0.0,0.0,0.0,0.0,0.0,0.0,0.0,0.0,0.0,0.0,0.0,0.0,0.0,0.0,0.0,0.0,0.0,0.0,0.0,0.0,-3.3952,-3.4827,-3.4936,-3.5927,-3.6619,-3.6906,-3.3666,-3.2942,-3.3788,-3.0803,0.0,0.0,0.0,0.0,0.0,0.0,0.0,0.0,0.0,0.0,0.0,0.0,0.0,0.0,0.0,0.0,0.0,0.0,0.0,0.0,0.0,0.0,0.0,0.0,-2.9152,-2.9171,-2.7063,0.0,0.0,0.0,0.0,0.0,0.0,0.0,0.0,0.0,0.0,0.0,-2.6051,-2.6198,-2.6247,-2.6281,-2.7105,-2.7411,-2.6858,-2.643,-2.6227,-2.6283,-2.5611,-2.5442,0.0,0.0,0.0,0.0,0.0,0.0,0.0,0.0,0.0,0.0,0.0,0.0,0.0,0.0,0.0,0.0,0.0,0.0,0.0,0.0,0.0,0.0,0.0,0.0,0.0,0.0,0.0,0.0,0.0,0.0,0.0,0.0,1.5453,1.1463,0.0,0.0,0.0,0.0,0.0,0.0,0.0,0.0,0.0,0.0,0.0,0.0,0.0,-2.9854,-3.1432,-3.4276,-3.55,-3.5063,-3.8089,-3.9258,-3.8858,-3.9318,-3.9757,-4.0216,-4.044,0.0,-3.5538,-3.371,0.0,0.0,0.0,0.0,0.0,0.0,0.0,0.0,0.0,0.0,0.0,0.0,0.0,0.0,0.0,0.0,0.0,0.0,0.0,0.0,0.0,0.0,-3.0801,-3.0978,-3.1307,-3.1668,0.0,-2.9748,-2.7317,-2.6331,-2.5665,0.0,0.0,0.0,0.0,0.0,0.0,0.0,-2.6574,-2.6861,-2.7076,-2.7122,-2.8175,-2.8428,-2.7324,-2.8097,-2.8076,-2.6808,-2.6817,-2.6823,-2.6677,-2.7127,0.0,0.0,0.0,0.0,0.0,0.0,0.0,0.0,0.0,0.0,0.0,0.0,0.0,0.0,0.0,0.0,0.0,0.0,0.0,0.0,0.0,0.0,0.0,0.0,0.0,0.0,0.0,0.0,0.0,1.1378,1.0256,0.5433,0.4082,0.0363,0.0,0.0,0.0,0.0,0.0,0.0,0.0,0.0,0.0,-2.9984,-3.2379,-3.4519,-3.6469,-3.8222,-3.9242,-3.9436,-4.1241,-4.2228,-4.2465,-4.2508,-4.265,-4.2884,-4.2849,-4.1571,-3.9373,-3.7188,-3.4647,-3.189,0.0,0.0,0.0,0.0,-2.7929,-2.8915,-3.029,-3.0713,-3.0616,-3.0438,0.0,0.0,0.0,0.0,0.0,0.0,0.0,0.0,0.0,0.0,-3.2578,-3.3666,-3.4342,-3.5009,-3.5882,-3.4395,-3.2231,0.0,-2.8314,-2.6973,-2.6412,0.0,0.0,0.0,0.0,-2.7059,-2.7943,-2.8336,-2.8649,-2.8951,-2.9054,-2.8906,-2.8346,-2.8388,-2.8223,-2.7718,-2.7407,-2.7254,-2.7363,-2.7551,-2.773,0.0,0.0,0.0,0.0,0.0,0.0,0.0,0.0,0.0,0.0,0.0,0.0,0.0,0.0,0.0,0.0,0.0,0.0,0.0,0.0,0.0,0.0,0.0,0.0,0.0,0.0,0.0,0.0,0.9911,0.8146,0.2134,0.2697,-0.0375,0.0,0.0,0.0,0.0,0.0,0.0,-1.8374,-2.3734,-2.8682,-3.3299,-3.6197,-3.8636,-4.0617,-4.1339,-4.2044,-4.268,-4.3269,-4.3886,-4.4508,-4.4243,-4.4093,-4.4003,-4.3485,-4.2739,-4.1743,-3.9585,-3.7259,-3.4826,-3.2463,-3.0969,-3.0136,-3.0132,-3.0583,-3.1533,-3.3674,-3.4363,-3.431,-3.4206,-3.2732,-3.0764,-2.9687,0.0,0.0,0.0,0.0,-2.9281,-3.113,-3.2484,-3.3802,-3.5399,-3.6434,-3.7322,-3.8183,-3.7566,-3.609,0.0,-3.1348,-2.9656,-2.9058,0.0,0.0,0.0,0.0,-2.8324,-2.9119,-2.9719,-3.0116,-3.0267,-3.013,-2.9794,-2.9269,-2.8979,-2.8739,-2.8558,-2.8003,-2.7609,-2.7512,-2.7497,-2.729,-2.6803,0.0,0.0,0.0,0.0,0.0,0.0,0.0,0.0,0.0,0.0,0.0,0.0,0.0,0.0,0.0,0.0,0.0,0.0,0.0,0.0,0.0,0.0,0.0,0.0,0.0,0.0,0.0,0.0,0.0,0.77,0.7906,0.0,0.0,0.0,0.0,-0.611,-0.8421,-1.3026,-2.025,-2.4951,-3.0026,-3.5727,-3.934,-4.1591,-4.2551,-4.3104,-4.3387,-4.3458,-4.3794,-4.399,-4.4009,-4.3551,-4.3145,-4.2775,-4.2826,-4.208,-4.0816,-3.9898,-3.8033,-3.5561,-3.3713,-3.2107,-3.1004,-3.218,-3.3435,-3.4736,-3.5948,-3.6556,-3.6546,-3.4918,-3.2043,-2.9606,-3.1584,-3.0668,0.0,0.0,-3.1243,-3.1902,-3.3595,-3.4226,-3.4646,-3.5489,-3.6508,-3.7512,-3.8402,-3.7391,-3.6193,0.0,-3.4201,-3.2788,-3.2173,0.0,-3.0484,-3.0056,-3.063,-3.0705,-2.97,-3.0597,-3.1055,-3.038,-3.1564,-3.1644,-2.9746,-3.0597,-3.0564,-2.9062,-2.8915,-2.8242,-2.6722,-2.7028,-2.7098,-2.6802,-2.733,0.0,0.0,0.0,0.0,0.0,0.0,0.0,0.0,0.0,0.0,0.0,0.0,0.0,0.0,0.0,0.0,0.0,0.0,0.0,0.0,0.0,0.0,0.0,0.0,0.0,0.0,0.0,0.0,0.2517,0.6648,0.0,-0.4045,-0.2802,-0.2015,-0.3667,-0.5455,-0.9055,-1.5046,-2.2669,-2.9185,-3.4384,-3.8597,-4.118,-4.2121,-4.2523,-4.26,-4.2426,-4.3066,-4.3115,-4.2714,-4.2182,-4.1789,-4.1527,-4.1238,-4.0868,-4.0359,-3.9734,-3.8942,-3.805,-3.737,-3.6348,-3.5356,-3.6043,-3.6862,-3.7718,-3.8299,-3.8218,-3.7452,-3.5104,-3.3467,-3.2355,-3.186,-3.1487,-3.1373,-3.1747,-3.243,-3.3323,-3.4534,-3.5444,-3.6144,-3.6579,-3.7359,-3.8261,-3.9227,-3.9008,-3.8756,-3.9179,-3.6574,-3.4386,-3.4646,-3.3269,-3.2026,-3.1705,-3.1649,-3.1607,-3.1532,-3.2352,-3.2847,-3.2565,-3.2279,-3.1721,-3.0837,-3.0365,-2.957,-2.8301,-2.8227,-2.7732,-2.6649,-2.6243,-2.6135,-2.6291,-2.5955,-2.6662,0.0,0.0,0.0,0.0,0.0,0.0,0.0,0.0,0.0,0.0,0.0,0.0,0.0,0.0,0.0,0.0,0.0,0.0,0.0,0.0,0.0,0.0,0.0,0.0,0.0,0.0,1.1151,-0.0259,0.4864,0.567,-0.3615,-0.0526,0.1512,0.0179,-0.1163,-0.4554,-1.0494,-1.853,-2.5681,-3.1716,-3.6589,-3.9739,-4.1046,-4.1697,-4.1902,-4.175,-4.2013,-4.194,-4.1524,-4.0668,-4.0337,-4.0439,-3.9933,-3.989,-4.0106,-3.9554,-3.9354,-3.933,-3.9042,-3.8296,-3.7425,-3.7981,-3.847,-3.889,-3.9142,-3.8656,-3.7628,-3.5805,-3.4542,-3.3547,-3.2349,-3.2015,-3.2062,-3.2373,-3.3108,-3.4009,-3.4921,-3.5816,-3.6498,-3.6625,-3.7348,-3.8242,-3.9199,-3.9668,-4.0056,-4.0582,-3.8418,-3.6565,-3.6746,-3.5263,-3.38,-3.3101,-3.2767,-3.2553,-3.2409,-3.2975,-3.3293,-3.3018,-3.2422,-3.1787,-3.106,-3.0669,-2.9695,-2.7919,-2.8022,-2.7581,-2.6245,-2.6232,-2.6134,-2.5876,-2.5469,-2.5943,-2.7258,0.0,0.0,0.0,0.0,0.0,0.0,0.0,0.0,0.0,0.0,0.0,0.0,0.0,0.0,0.0,0.0,0.0,0.0,0.0,0.0,0.0,0.0,0.0,0.9053,0.9785,0.8344,0.0794,0.3374,0.471,0.1751,0.3816,0.5289,0.5387,0.4065,0.0,-0.7269,-1.2951,-1.9688,-2.7717,-3.338,-3.7284,-3.936,-4.0671,-4.1394,-4.1525,-4.0828,-4.0559,-4.0571,-3.9124,-3.8834,-3.9515,-3.9016,-3.9301,-4.0024,-3.9421,-3.9211,-3.9219,-3.8484,-3.7602,-3.6871,-3.7839,-3.82,-3.8238,-3.8391,-3.7897,-3.7128,-3.6964,-3.4989,-3.279,-3.3204,-3.2241,-3.1299,-3.2611,-3.3355,-3.3993,-3.4876,-3.5381,-3.5628,-3.5619,-3.6409,-3.7402,-3.8184,-3.9121,-3.978,-3.9681,-3.9668,-3.9372,-3.8435,-3.7294,-3.5949,-3.4292,-3.4125,0.0,-3.2216,-3.2365,-3.2302,-3.1513,-3.2118,-3.1935,-3.0375,-3.1547,-3.1071,-2.7952,-2.8416,-2.7753,-2.5476,-2.694,-2.7115,-2.5615,-2.5993,-2.5758,-2.4847,0.0,0.0,0.0,0.0,0.0,0.0,0.0,0.0,0.0,0.0,0.0,0.0,0.0,0.0,0.0,0.0,0.0,0.0,0.0,0.0,0.0,0.0,1.6408,1.351,1.5843,1.5664,0.9809,0.9967,0.9341,0.6619,0.6141,0.5898,0.5698,0.4338,0.1393,-0.3236,-0.8436,-1.4148,-2.0538,-2.7601,-3.2399,-3.4713,-3.8014,-3.9665,-3.9682,-4.0175,-3.9991,-3.9164,-3.8923,-3.8617,-3.8334,-3.8962,-3.937,-3.9509,-3.8628,-3.8639,-3.9154,-3.8358,-3.7986,-3.7897,-3.8173,-3.8307,-3.8267,-3.7734,-3.6959,-3.6038,-3.5109,-3.385,-3.2528,-3.1637,-3.146,-3.1663,-3.2027,-3.2802,-3.3769,-3.4823,-3.5745,-3.6276,-3.5724,-3.6349,-3.713,-3.7454,-3.7756,-3.81,-3.8653,-3.8667,-3.845,-3.7947,-3.7118,-3.6178,-3.5231,-3.4596,0.0,-3.2582,-3.2517,-3.247,-3.2163,-3.2035,-3.1679,-3.0984,-3.0428,-2.9189,-2.7053,-2.6573,-2.5803,-2.4575,-2.5116,-2.5342,-2.5172,-2.5842,-2.6043,0.0,0.0,0.0,0.0,0.0,0.0,0.0,0.0,0.0,0.0,0.0,0.0,0.0,0.0,0.0,0.0,0.0,0.0,0.0,0.0,0.0,0.0,1.4052,1.6281,1.5678,1.8006,1.8331,1.4217,1.2846,1.1415,0.9298,0.7599,0.639,0.5684,0.4166,0.1905,-0.1295,-0.5691,-1.06,-1.5775,-2.3493,-2.8843,-3.1497,-3.5629,-3.7931,-3.8358,-3.8877,-3.8672,-3.7827,-3.7905,-3.7784,-3.7506,-3.8222,-3.8878,-3.9344,-3.8498,-3.8548,0.0,0.0,0.0,0.0,0.0,-3.7484,-3.71,-3.63,-3.56,-3.4863,-3.3801,-3.2714,-3.1732,-3.1252,-3.0961,-3.1017,-3.2024,-3.2672,-3.3387,-3.4746,-3.5649,-3.6103,-3.5661,-3.5993,-3.6542,-3.6991,-3.7109,-3.7251,-3.7687,-3.7617,0.0,-3.6559,-3.635,-3.5886,-3.4853,-3.4321,-3.3511,-3.2046,-3.2107,-3.1925,-3.1057,-3.1136,-3.0983,-3.0332,-2.9853,0.0,0.0,0.0,-2.5799,-2.5338,-2.5095,0.0,0.0,0.0,-2.5882,-2.5491,0.0,0.0,0.0,-2.6132,-2.6277,0.0,0.0,0.0,0.0,0.0,0.0,0.0,0.0,0.0,0.0,0.0,0.0,0.0,0.0,0.0,0.0,1.3417,1.5636,1.5539,1.6919,1.7346,1.5539,1.38,1.2251,1.0953,0.8758,0.6844,0.5509,0.3888,0.182,-0.0705,0.0,0.0,0.0,0.0,-2.5876,-2.8988,-3.3368,-3.6184,-3.7322,-3.7424,-3.7236,-3.6798,-3.6733,-3.6833,-3.7087,-3.738,-3.8186,-3.9283,-3.8738,-3.869,-3.884,-3.743,-3.7224,-3.7637,-3.6944,-3.614,-3.5324,-3.4589,0.0,0.0,-3.2709,-3.1625,-3.0721,-3.1334,-3.0607,-3.0008,-3.2313,-3.277,-3.3001,-3.4699,-3.532,-3.5493,-3.5493,-3.5565,-3.5811,-3.6589,-3.68,-3.683,-3.6735,-3.6517,-3.5988,-3.4845,-3.5237,-3.5214,-3.3821,-3.3742,-3.313,-3.1175,-3.1427,-3.1129,-2.9338,0.0,0.0,-2.9072,-2.9514,-2.8874,-2.6612,-2.648,-2.6544,-2.6634,-2.5893,-2.5942,-2.6908,-2.6174,-2.5446,-2.4775,-2.4775,-2.4654,-2.4498,-2.5931,-2.6228,0.0,0.0,0.0,0.0,0.0,0.0,0.0,0.0,0.0,0.0,0.0,0.0,0.0,0.0,0.0,0.7106,0.8913,1.0319,1.0571,1.168,1.366,1.6696,1.648,1.545,1.381,1.0492,0.7618,0.5476,0.4239,0.23,-0.0723,-0.2353,-0.5027,-0.9123,-1.6083,-2.1457,-2.5205,-3.0802,-3.4296,-3.5715,0.0,0.0,-3.7449,-3.7664,-3.7755,-3.7679,-3.7864,-3.8282,-3.8812,-3.8583,-3.8366,-3.8038,-3.7147,-3.6517,-3.6047,-3.5952,-3.5225,-3.4279,-3.4122,-3.2985,-3.1521,-3.113,-3.0823,-3.0511,-3.0008,-3.0102,0.0,-3.2237,-3.2635,-3.3032,-3.4928,-3.546,-3.5493,-3.5493,-3.5565,-3.5655,-3.5824,-3.5868,-3.5803,-3.5575,-3.5431,-3.5134,-3.442,-3.4423,-3.4362,-3.3823,-3.3968,-3.3505,-3.1839,-3.1712,-3.1362,-3.0179,-3.0134,-2.9831,-2.8907,-2.8419,-2.7446,-2.5731,-2.5055,-2.4764,-2.4959,-2.4793,-2.4893,-2.5257,-2.5091,-2.4851,-2.4561,-2.4561,-2.4444,-2.4284,-2.4895,-2.5111,0.0,0.0,0.0,0.0,0.0,0.0,0.0,0.0,0.0,0.0,0.0,0.876,0.0,0.0,0.6666,0.545,0.6008,0.6412,0.5866,0.7521,1.042,1.4912,1.554,1.5211,1.434,1.1257,0.851,0.6609,0.3851,0.1694,0.0105,-0.2282,-0.481,-0.7463,-1.421,-1.928,-2.2357,-2.8329,-3.2162,-3.3835,-3.5748,-3.6794,-3.7044,-3.7543,-3.759,-3.7422,-3.7764,-3.8043,-3.829,-3.8252,-3.7885,-3.726,-3.6502,-3.6094,-3.5848,-3.5025,-3.4285,-3.358,-3.2746,-3.1996,-3.1315,-3.0941,-3.0992,-3.1225,-3.135,-3.1506,-3.1919,-3.3382,-3.328,-3.3168,-3.4971,-3.5147,-3.4968,-3.5411,-3.5545,-3.543,-3.4988,-3.5238,-3.5369,-3.481,-3.4926,-3.5016,-3.4696,-3.4532,-3.4334,-3.4043,-3.4123,-3.3799,-3.2739,-3.2334,-3.1712,-3.0581,-3.0132,-2.9487,-2.8443,-2.727,-2.6142,-2.5023,-2.4487,-2.4339,-2.4639,-2.4543,-2.4591,-2.4804,-2.4697,-2.4588,-2.4495,-2.4409,-2.4284,-2.4191,-2.4408,-2.4493,0.0,0.0,0.0,0.0,0.0,0.0,0.0,0.0,0.9985,1.202,1.1547,1.0272,0.8737,0.7983,0.6893,0.482,0.4293,0.3611,0.2268,0.4127,0.7075,1.0997,1.3121,1.424,1.424,1.1864,0.9596,0.809,0.3885,0.1286,0.0855,-0.284,-0.5505,-0.6876,-1.32,-1.7765,-2.0376,-2.5806,-2.9618,-3.186,-3.3782,-3.519,-3.6209,-3.6886,-3.7211,-3.7182,-3.7534,-3.7711,-3.7745,-3.7708,-3.7378,-3.6795,-3.5914,-3.5778,-3.5874,-3.4225,-3.3469,-3.3068,-3.1581,-3.1327,-3.1644,-3.126,-3.1538,-3.2182,-3.2977,-3.3028,-3.3048,-3.4249,-3.3761,-3.3231,-3.474,-3.4672,-3.441,-3.5295,-3.5493,-3.5315,-3.4603,-3.4872,-3.4999,-3.4213,-3.4496,-3.4823,-3.4734,-3.4718,-3.4612,-3.4334,-3.4338,-3.417,-3.3564,-3.3061,-3.2212,-3.0824,-3.0208,-2.927,-2.7767,-2.616,-2.5023,-2.4482,-2.4284,-2.4358,-2.467,-2.4528,-2.4528,-2.4685,-2.4524,-2.4441,-2.4444,-2.4284,-2.421,-2.421,-2.421,-2.421,1.4499,1.4444,1.5653,1.7367,1.6902,1.735,0.0,0.0,1.8133,1.9196,1.7552,1.5193,1.2526,1.0253,0.7728,0.4683,0.3408,0.2146,0.0473,0.1413,0.3015,0.4812,1.0915,1.4939,1.4939,1.3233,1.1402,0.9579,0.5688,0.2538,0.0653,-0.2818,-0.5432,-0.7079,-1.1826,-1.613,-1.9656,-2.3208,-2.6611,-2.9872,-3.2304,-3.4068,-3.5194,-3.6004,-3.6883,-3.7886,-3.7676,-3.7439,-3.7148,-3.688,-3.6924,-3.7045,-3.5944,-3.5429,-3.5144,-3.377,-3.3109,-3.2753,-3.1905,-3.1496,-3.1391,-3.1634,-3.224,-3.2825,-3.2655,-3.3064,-3.3498,-3.3138,-3.2924,-3.3029,-3.4011,-3.4164,-3.4351,-3.5282,-3.5493,-3.5468,-3.5391,-3.4814,-3.4194,-3.369,-3.3781,-3.3804,-3.34,-3.4083,-3.4674,-3.4653,-3.4851,-3.4693,-3.387,-3.3694,-3.2959,-3.1147,-3.0677,-2.9483,-2.6967,-2.5254,-2.4301,-2.4228,-2.4209,-2.4209,-2.4284,-2.4247,-2.4247,-2.4284,-2.4247,-2.4229,-2.4229,-2.421,-2.4229,-2.4284,-2.4284,-2.4266,2.1687,2.0878,2.0502,0.0,2.1363,2.1702,2.2706,2.1447,2.0437,2.1716,2.0557,1.8462,1.6033,1.349,1.0416,0.0,0.4754,0.2999,0.0359,0.1174,0.2295,0.2908,0.7784,1.1291,1.1842,1.2018,1.1418,0.9636,0.5475,0.2674,0.1882,-0.2385,-0.553,-0.7188,-1.1613,-1.5114,-1.752,-2.1614,-2.4619,-2.6714,-2.9668,-3.1877,-3.3482,-3.4778,-3.5988,-3.7043,-3.6634,-3.6536,-3.6592,-3.6078,-3.5954,-3.5987,-3.4925,-3.4474,-3.4262,-3.3278,-3.2773,-3.2449,-3.1673,-3.1777,-3.2281,-3.263,-3.3346,-3.411,-3.4135,-3.4044,-3.3968,-3.4193,-3.3585,-3.3158,-3.4462,-3.4471,-3.4384,-3.5235,-3.546,-3.5218,-3.4218,-3.4103,-3.3851,-3.2675,-3.284,-3.3118,-3.2997,-3.3287,-3.3722,-3.4318,-3.4797,-3.5021,-3.4806,-3.3897,-3.2541,-3.0611,-2.9267,-2.8053,-2.6876,-2.5188,-2.4209,-2.419,-2.419,-2.419,-2.419,-2.419,-2.419,-2.419,-2.4247,-2.4247,-2.4192,-2.4284,-2.4339,-2.4358,-2.4358,-2.4339,2.4866,2.4512,0.0,2.4268,2.5205,2.569,2.3731,2.3066,2.2967,2.3176,2.2068,2.0364,1.8099,1.5689,1.2669,0.8248,0.6314,0.4317,0.1084,0.1523,0.2165,0.2129,0.5456,0.777,0.8081,0.9723,1.0112,0.8491,0.4561,0.2114,0.2124,-0.2496,-0.5642,-0.686,-1.1155,-1.4166,-1.5725,-1.9923,-2.2833,-2.443,-2.7608,-2.9985,-3.1703,-3.3758,-3.5148,-3.5902,-3.5963,-3.596,-3.5869,-3.5762,-3.5324,-3.473,-3.4287,-3.386,-3.3446,-3.3057,-3.2811,-3.2584,-3.1879,-3.2323,-3.3258,-3.3686,-3.432,-3.4944,-3.5203,-3.4883,-3.4481,-3.484,-3.4108,-3.3484,-3.4659,-3.4567,-3.4378,-3.5235,-3.546,-3.5161,-3.3891,-3.3737,-3.3532,-3.2513,-3.2302,-3.2397,-3.2699,-3.2649,-3.2829,-3.3561,-3.4066,-3.4544,-3.5076,-3.3563,-3.1928,-3.0505,-2.8527,-2.7289,-2.7233,-2.556,-2.4522,-2.452,-2.4318,-2.419,-2.419,-2.419,-2.419,-2.419,-2.4266,-2.4266,-2.4266,-2.4358,-2.4412,-2.443,-2.443,-2.443,1.9788,2.1642,2.3839,2.6,2.8064,2.9438,2.857,2.8366,2.7495,2.4342,2.2356,2.0392,1.795,1.6262,1.3842,0.9717,0.7783,0.5848,0.2884,0.2226,0.2053,0.202,0.464,0.5803,0.0,0.635,0.733,0.5886,0.2769,0.077,0.0447,-0.3294,-0.5614,-0.573,-1.0226,-1.3411,-1.4943,-1.8057,-2.098,-2.3755,-2.6608,-2.8651,-3.0113,-3.3224,-3.4664,-3.468,-3.6263,-3.6168,-3.4917,-3.6243,-3.546,-3.3554,-3.4565,-3.4054,-3.2802,-3.3208,-3.3357,-3.3288,-3.2912,-3.3259,-3.4068,-3.4655,-3.4889,-3.4945,-3.5141,-3.519,-3.5015,-3.4244,-3.3991,-3.4002,-3.4112,-3.4126,-3.4332,-3.5262,-3.5493,-3.5488,-3.543,-3.4122,-3.3121,-3.3723,-3.2481,-3.1546,-3.2215,-3.2313,-3.2332,-3.2351,-3.2424,-3.2918,-3.4095,-3.2565,-3.1325,-3.1268,-2.9339,-2.8072,-2.8053,-2.6409,-2.5366,-2.5366,-2.463,-2.419,-2.419,-2.419,-2.419,-2.4192,-2.421,-2.4266,-2.4394,-2.4394,-2.443,-2.45,-2.45,-2.45,2.3363,2.4796,2.6258,2.804,2.8758,2.8726,2.7349,2.7022,2.6243,2.353,2.0365,1.7652,1.5905,1.3975,1.1508,0.7992,0.8082,0.7065,0.3046,0.2379,0.1963,0.0787,0.2384,0.0,0.0,0.0,0.0,0.5628,0.3504,0.2085,0.1899,-0.2499,-0.5339,-0.573,-0.9217,-1.1913,-1.3471,-1.6729,-1.9406,-2.1416,-2.6013,-2.9297,-3.1449,-3.3017,-3.4287,-3.5235,-3.5372,-3.5475,-3.5524,-3.5563,-3.5111,-3.4466,-3.499,-3.4559,-3.3669,-3.4074,-3.3864,-3.3386,-3.3332,-3.3714,-3.426,-3.4529,-3.4851,-3.5107,-3.5193,-3.4827,-3.4461,-3.4772,-3.4476,-3.4203,-3.4803,-3.5004,-3.5095,-3.5369,-3.546,-3.518,-3.4026,-3.3657,-3.313,-3.1651,-3.1165,-3.09,-3.0741,-3.1033,-3.1355,-3.1481,-3.2026,-3.215,-3.1444,-3.1232,-3.075,-2.963,-2.8233,-2.7569,-2.8053,-2.6466,-2.5461,-2.5461,-2.5203,-2.4799,-2.4209,-2.4191,-2.421,-2.4192,-2.4229,-2.4321,-2.4394,-2.4447,-2.4482,-2.45,-2.45,-2.45,2.5187,2.6105,2.681,2.8252,2.8431,2.7885,2.6569,2.5972,2.4997,2.288,1.9519,1.6628,1.549,1.3483,1.0896,0.7434,0.7157,0.6182,0.2462,0.1711,0.134,0.079,0.1527,0.116,0.0,0.0,0.0,0.2043,0.1293,0.065,0.0,-0.3626,-0.5779,-0.6302,-0.9041,-1.1361,-1.3011,-1.6254,-1.9455,-2.2456,-2.6456,-2.963,-3.2146,-3.2861,-3.3965,-3.522,-3.5076,-3.5235,-3.5508,-3.535,-3.5108,-3.4818,-3.515,-3.4774,-3.4073,-3.4451,-3.4099,-3.3422,-3.3597,-3.391,-3.4237,-3.442,-3.4507,-3.4526,-3.4526,-3.3956,-3.3439,-3.4056,-3.4053,-3.4047,-3.4691,-3.5139,-3.5403,-3.5432,-3.546,-3.5185,-3.3978,-3.3585,-3.3054,-3.1638,-3.0804,-3.0321,-3.0223,-3.0246,-3.0318,-3.0452,-3.0979,-3.0863,-2.9637,-2.9924,-2.9832,-2.8752,-2.7687,-2.7325,-2.811,-2.6802,-2.5924,-2.5923,-2.5943,-2.5556,-2.4707,-2.4671,-2.4523,-2.4247,-2.4284,-2.4339,-2.4394,-2.4465,-2.45,-2.45,-2.45,-2.45,2.5049,2.5592,2.5657,2.6896,2.7104,2.6937,2.6239,2.5198,2.3861,2.2399,1.9542,1.7102,0.0,0.0,1.1981,0.8027,0.5818,0.3785,0.1404,0.0522,0.0626,0.0,0.0,0.0,0.0,0.0,0.0,-0.4445,0.0,-0.3185,-0.4565,-0.6049,-0.7018,-0.7322,-0.949,-1.1551,-1.3488,-1.6535,-2.0855,-2.6472,-2.7693,-2.9617,-3.2033,-3.282,-3.3624,-3.4572,-3.529,-3.5313,-3.4949,-3.5629,-3.5395,-3.467,-3.5134,-3.4754,-3.3999,-3.4456,-3.4123,-3.3459,-3.3652,-3.3865,-3.403,-3.4307,-3.3939,-3.3364,-3.3364,-3.284,-3.2259,-3.2392,-3.2997,-3.3639,-3.3865,-3.456,-3.5226,-3.5432,-3.5479,-3.5398,-3.5168,-3.3856,-3.2874,-3.3352,-3.1318,-2.9776,-3.0638,-2.9971,-2.9342,-2.9442,-2.9388,-2.9175,-2.8723,-2.8676,-2.8657,-2.86,-2.7704,-2.7398,-2.8222,-2.7342,-2.6757,-2.6714,-2.6757,-2.6388,-2.5482,-2.5445,-2.5096,-2.4321,-2.4321,-2.4339,-2.4412,-2.4465,-2.45,-2.45,-2.45,-2.45,2.6299,2.5766,2.5117,2.5722,2.4989,2.4084,2.3547,2.3229,2.2389,2.0393,1.7683,1.5112,0.0,0.0,0.0,0.845,0.9592,0.0,0.4419,0.3668,0.0,0.0803,0.0,-0.0431,-0.2847,-0.2107,0.0,0.0,-0.4359,-0.2297,-0.1801,-0.4796,-0.6819,-0.7322,-0.86,-1.0583,-1.321,-1.7487,-2.1813,-2.6202,-2.7452,-2.911,-3.1168,-3.2111,-3.3325,-3.4728,-3.439,-3.4759,-3.5679,-3.5299,-3.5044,-3.4894,-3.5426,-3.5128,-3.4518,-3.4818,-3.4452,-3.3766,-3.326,-3.3486,-3.4023,-3.413,-3.4176,-3.4189,-3.4189,-3.4099,-3.3972,-3.4071,-3.4281,-3.451,-3.4622,-3.4812,-3.5001,-3.5037,-3.5054,-3.4865,-3.4166,-3.3563,-3.2826,-3.1732,-3.0374,-2.9692,-3.0511,-2.9948,-2.959,-3.0206,-2.924,-2.8386,-2.8278,-2.8222,-2.7941,-2.7345,-2.7046,-2.7212,-2.8025,-2.7818,-2.7409,-2.6797,-2.678,-2.6151,-2.4746,-2.469,-2.4579,-2.4376,-2.4358,-2.4412,-2.4482,-2.45,-2.45,-2.45,-2.45,-2.4547,2.6417,2.5994,2.5155,2.4148,2.3297,2.2208,2.053,2.0402,1.9989,1.7808,1.6295,1.4713,1.2884,1.2098,0.0,0.0,0.0,0.0,0.3427,0.2759,0.2107,0.0,0.0,0.0,-0.3826,-0.2847,-0.3436,0.0,-0.5233,-0.4022,-0.3929,-0.5948,-0.7449,-0.7948,-0.8471,-1.0471,-1.3849,-1.7903,-2.1668,-2.5168,-2.6553,-2.8375,-3.0492,-3.1405,-3.2556,-3.3817,0.0,-3.3873,-3.4921,-3.4562,-3.4539,-3.4722,-3.5091,-3.4728,-3.4059,-3.4195,-3.3776,-3.3121,-3.2727,-3.2903,-3.3325,-3.3588,-3.3652,-3.3669,-3.3669,-3.345,-3.322,-3.3306,-3.3612,-3.3958,-3.4146,-3.4469,-3.4791,-3.4889,-3.4908,-3.4585,-3.3481,-3.3008,-3.2253,-3.0523,-2.9768,-2.9537,-3.0002,-2.9704,-2.9556,-3.002,-2.8961,-2.8234,-2.8626,-2.7695,-2.6951,-2.6859,-2.6209,-2.6265,-2.7411,-2.7525,-2.7303,-2.6838,-2.7154,-2.6635,-2.4986,-2.4931,-2.4764,-2.4447,-2.4412,-2.443,-2.45,-2.45,-2.45,-2.45,-2.45,-2.458,2.6354,2.6014,2.5028,2.2621,2.1888,2.0801,1.7722,1.7702,1.7624,1.543,1.5512,1.5512,1.4097,1.2607,1.0663,0.7772,0.0,0.4223,0.1511,0.1014,0.0732,0.0114,0.0,-0.1086,-0.3719,-0.2821,-0.3184,-0.606,-0.6129,-0.6543,-0.7643,-0.7939,-0.8233,-0.8726,-0.9095,-1.109,-1.4791,-1.7913,-2.0906,-2.3649,-2.5239,-2.7201,-2.9515,-3.0499,-3.1397,-3.2332,-3.2405,-3.2915,-3.3633,-3.3639,-3.3906,-3.4327,-3.4329,-3.3847,-3.3179,-3.3206,-3.2754,-3.2179,-3.2197,-3.2317,-3.2486,-3.2894,-3.2821,-3.261,-3.261,-3.2161,-3.162,-3.1765,-3.2311,-3.2927,-3.322,-3.387,-3.4476,-3.4632,-3.4674,-3.4325,-3.3072,-3.2348,-3.1416,-2.9683,-2.9365,-2.9365,-2.9386,-2.9407,-2.9407,-2.9407,-2.8663,-2.8364,-2.9087,-2.725,-2.6135,-2.6842,-2.5652,-2.5336,-2.6637,-2.6953,-2.6934,-2.6672,-2.7453,-2.7193,-2.5523,-2.5449,-2.5152,-2.45,-2.4429,-2.4429,-2.45,-2.45,-2.45,-2.45,-2.45,-2.4596,2.8077,2.5532,2.264,2.2535,2.1024,1.9095,1.696,1.7613,0.0,0.0,1.6166,1.673,1.5453,1.488,1.3999,1.2465,1.2169,1.0495,0.5813,0.5226,0.3949,0.0,0.0,-0.1086,-0.3932,-0.2821,0.0,0.0,-0.6709,-0.615,-0.6331,-0.7434,-0.8137,-0.8432,-1.0702,-1.267,-1.4223,-1.757,-2.0201,-2.2257,-2.4129,-2.5652,-2.6984,-2.8686,-2.9951,-3.0792,-3.1511,0.0,-3.3687,-3.309,-3.3226,-3.3844,-3.3139,-3.2917,-3.2934,-3.2724,-3.2612,-3.2538,-3.1975,-3.2074,-3.2419,-3.2603,-3.2677,-3.2679,-3.2755,-3.2709,-3.2661,-3.2816,-3.2965,-3.3161,-3.3285,-3.3423,-3.3514,-3.3496,-3.3478,-3.3413,-3.3031,-3.1946,-3.0626,-2.9338,-2.9067,-2.9134,-2.9347,-2.9407,-2.9407,-2.9407,-2.8663,-2.8081,-2.8061,-2.7263,-2.6749,-2.6897,-2.6656,-2.634,-2.5949,-2.7139,-2.7306,-2.5987,-2.6656,-2.6377,-2.4761,-2.4687,-2.463,-2.4495,-2.4478,-2.4478,-2.4495,-2.4495,-2.4495,-2.4495,-2.4495,-2.4666,2.7003,2.4301,2.1242,1.971,1.7991,1.6127,1.454,0.0,0.0,0.0,1.5969,1.6742,1.5663,1.4806,0.0,1.3035,1.2492,1.0643,0.6268,0.5714,0.0,0.0436,0.0,-0.0848,0.0,-0.2371,-0.3464,-0.6825,-0.6464,-0.6331,-0.7033,-0.8421,-0.9272,-0.9182,-1.1847,-1.3436,-1.3873,-1.6301,-1.8391,-2.0182,-2.1375,-2.3194,-2.5575,-2.6468,-2.7693,-2.9199,-2.9721,-3.0488,-3.1461,-3.1234,-3.1363,-3.1692,-3.1275,-3.1075,-3.0945,-3.1148,-3.1125,-3.0975,-3.0969,-3.0977,-3.1077,-3.1232,-3.1915,-3.2716,-3.2781,-3.2827,-3.289,-3.2952,-3.3063,-3.3154,-3.3214,-3.3243,-3.3243,-3.3214,-3.2433,-3.1625,-3.1397,-3.0294,-2.9206,-2.8809,-2.8737,-2.8785,-2.892,-2.9093,-2.9115,-2.8966,-2.8334,-2.7966,-2.8145,-2.7551,-2.6958,-2.6594,-2.6499,-2.6376,-2.6148,-2.6833,-2.6817,-2.5764,-2.6061,-2.5745,-2.4555,-2.45,-2.4515,-2.4547,-2.4512,-2.4528,-2.4599,-2.4528,-2.4495,-2.4495,-2.4495,-2.4636,2.59,2.3003,1.9917,1.7126,1.4962,1.3356,1.2255,1.3259,0.0,1.4271,1.5568,1.641,1.5526,1.4397,1.3382,0.0,1.1908,0.9918,0.6043,0.5797,0.4516,0.0,0.0209,0.0,-0.1853,-0.203,0.0,-0.5425,-0.5827,-0.6631,-0.7939,-0.9182,-0.9875,-0.9819,-1.2077,-1.3314,-1.3436,-1.5125,-1.6661,-1.8136,-1.8963,-2.0931,-2.381,-2.4353,-2.5612,-2.7242,-2.7714,-2.8307,-2.8965,-2.9256,-2.9355,-2.9425,-2.9593,-2.9312,-2.895,-2.9585,-2.9645,-2.9451,-2.9995,-3.0011,-2.9837,-2.9995,-3.0982,-3.2161,-3.2264,-3.2332,-3.2315,-3.2382,-3.2482,-3.2565,-3.2645,-3.2695,-3.2692,-3.2594,-3.1493,-3.0264,-2.9727,-2.8834,-2.8223,-2.8386,-2.841,-2.841,-2.8485,-2.8737,-2.8785,-2.8554,-2.8148,-2.7958,-2.8146,-2.7752,-2.7168,-2.6363,-2.6327,-2.6345,-2.624,-2.6389,-2.6199,-2.5485,-2.5596,-2.5336,-2.4537,-2.45,-2.4515,-2.4564,-2.4547,-2.4564,-2.4666,-2.4599,-2.4547,-2.4547,-2.4547,-2.4642,2.6256,2.2318,1.8183,1.6739,1.395,1.1641,1.1787,0.0,1.3966,1.4023,1.5276,1.6114,1.5352,1.4781,1.4293,1.401,1.3308,1.1471,0.751,0.7616,0.6088,0.062,0.0,0.0,-0.1718,-0.2015,0.0,-0.4116,-0.5322,-0.6631,-0.7939,-0.8304,-0.8794,-0.9531,-1.0943,-1.2148,-1.2991,-1.4745,-1.6047,-1.6876,-1.8369,-1.9663,-2.0736,-2.301,-2.4202,-2.4462,-2.6083,-2.7179,0.0,-2.7813,-2.7924,-2.8121,-2.8599,-2.8543,-2.8181,-2.8979,-2.9345,-2.9406,-2.9585,-2.9733,-2.9793,-2.9876,-3.0133,-3.0402,-3.0649,-3.069,-3.073,-3.0794,-3.0834,-3.0874,-3.101,-3.101,-3.0959,-3.0653,-3.0698,-3.0487,-2.9166,-2.8798,-2.8609,-2.8217,-2.8156,-2.8219,-2.8478,-2.8529,-2.8529,-2.8485,-2.8456,-2.811,-2.7235,-2.7674,-2.7656,-2.669,-2.6931,-2.6708,-2.5525,-2.6078,-2.5959,-2.4687,-2.5299,-2.5336,-2.4537,-2.45,-2.4498,-2.4512,-2.4564,-2.4599,-2.4615,-2.4666,-2.4682,-2.4682,-2.4682,-2.4772,2.4571,2.1219,1.7487,1.4497,1.1999,1.075,1.2107,0.0,1.3534,1.5436,1.6074,1.6056,1.5352,1.4883,1.389,1.1703,1.0922,0.0,0.6081,0.557,0.4493,0.1627,0.1564,0.0,0.0,0.0,-0.2867,-0.5036,-0.6418,-0.7309,-0.7805,-0.8709,-0.9246,-0.949,-1.131,-1.2319,-1.2444,-1.3695,-1.4576,-1.5087,-1.6251,-1.7583,-1.9173,-2.0672,-2.1822,-2.2746,-2.3966,-2.4471,0.0,-2.5078,-2.5411,-2.5564,-2.6049,-2.6141,-2.6097,-2.6846,-2.6751,-2.6387,-2.6857,-2.6872,-2.6779,-2.7057,-2.7391,-2.8053,-2.9845,-3.0435,-3.0518,-3.0518,-3.0584,-3.0625,-3.0666,-3.047,-3.0044,-2.9263,-2.9281,-2.9253,-2.8426,-2.8275,-2.8182,-2.7911,-2.7869,-2.7897,-2.7992,-2.8139,-2.8192,-2.8047,-2.8156,-2.8076,-2.749,-2.7664,-2.7706,-2.7297,-2.7427,-2.7245,-2.6545,-2.6354,-2.596,-2.5281,-2.5076,-2.4834,-2.4518,-2.45,-2.474,-2.5259,-2.4791,-2.4806,-2.5327,-2.4858,-2.465,-2.4631,-2.4682,-2.4729,2.3577,2.0545,1.7037,1.3855,1.1669,1.0902,0.0,0.0,1.3755,1.6394,1.657,1.6056,1.5352,1.4824,1.3415,1.0032,0.908,0.7761,0.4877,0.3891,0.3139,0.0,0.0,0.0934,0.0,-0.0687,-0.2537,-0.5135,-0.6099,-0.6759,-0.7105,-0.8284,-0.9103,-0.9354,-1.0906,-1.1889,-1.2005,-1.2653,-1.3293,-1.3968,-1.4521,-1.5732,-1.7459,-1.8508,-1.9583,-2.0688,-2.1667,-2.1827,0.0,-2.2502,-2.2786,-2.2655,-2.3485,-2.3783,-2.3943,-2.4634,-2.4647,-2.4369,-2.4893,-2.4893,-2.4728,-2.5066,-2.5478,-2.6275,-2.8403,-2.93,-2.9608,-2.9763,-2.9959,-3.0117,-3.0004,-2.9971,-2.9743,-2.8592,-2.8665,-2.885,-2.8331,-2.8014,-2.784,-2.7853,-2.7631,-2.7444,-2.7552,-2.7725,-2.7765,-2.7565,-2.7829,-2.7971,-2.7777,-2.7748,-2.7748,-2.7748,-2.773,-2.7568,-2.7202,-2.6477,-2.5909,-2.5597,-2.4838,-2.4429,-2.45,-2.45,-2.4796,-2.5408,-2.4811,-2.4791,-2.5422,-2.4879,-2.4599,-2.4599,-2.4666,-2.4714,2.381,2.0391,1.6679,1.5825,1.3817,1.2492,0.0,1.4503,1.4917,1.6487,1.64,1.5931,1.5294,1.4529,1.3015,0.9979,0.8752,0.0,0.4518,0.3514,0.0,0.0,0.0,0.0258,0.1012,0.0384,-0.107,-0.3613,-0.3798,0.0,-0.5351,-0.6508,-0.7741,-0.9058,-0.9238,-1.0124,-1.1857,-1.1684,-1.2343,-1.3923,-1.3756,-1.425,-1.5275,-1.6876,-1.7746,-1.8016,-1.9243,-1.9761,0.0,-2.024,-2.0098,-1.9691,-2.1237,-2.1867,-2.2027,-2.2737,-2.3557,-2.4319,-2.4468,-2.4581,-2.4728,-2.4839,-2.5066,-2.5384,-2.594,-2.6761,-2.7524,-2.8065,-2.8659,-2.9009,-2.855,-2.9361,-2.9972,-2.8699,-2.9282,-2.9881,-2.9149,-2.8298,-2.7809,-2.8218,-2.7435,-2.6825,-2.7149,-2.7213,-2.7213,-2.7213,-2.7587,-2.7888,-2.7888,-2.7888,-2.7888,-2.7888,-2.7795,-2.7483,-2.6961,-2.629,-2.5739,-2.5322,-2.4614,-2.4303,-2.45,-2.45,-2.45,-2.4518,-2.4497,-2.4495,-2.4495,-2.4564,-2.4599,-2.4599,-2.4666,-2.4772,2.295,2.0943,1.8683,1.62,1.4749,1.4096,1.4566,1.4632,1.5042,1.6379,1.6285,1.5816,1.541,1.4656,1.3126,0.9979,0.8737,0.7119,0.0,0.0,0.0,0.3307,0.214,0.1029,0.0,0.0,-0.1715,-0.2519,-0.4042,-0.5084,-0.5415,-0.6279,-0.7161,-0.7835,-0.8375,-0.9005,-0.9677,-1.0796,-1.156,-1.1977,-1.3068,-1.3705,-1.3909,-1.5068,-1.5865,-1.6328,-1.7276,-1.7687,-1.7749,-1.8658,-1.8892,-1.8709,-1.9674,-1.9992,-2.0048,-2.0489,-2.0843,-2.1144,-2.1361,-2.1826,-2.2359,-2.2554,-2.3112,-2.3714,-2.3985,-2.53,-2.6917,-2.7845,-2.7977,-2.7878,-2.8192,-2.8452,-2.86,-2.8329,-2.8724,-2.9087,-2.8977,-2.8723,-2.8401,-2.8083,-2.776,-2.7437,-2.7124,-2.6989,-2.6956,-2.7053,-2.7307,-2.7522,-2.7617,-2.7801,-2.7888,-2.7888,-2.7795,-2.7501,-2.7023,-2.6397,-2.5842,-2.5399,-2.4764,-2.4429,-2.45,-2.45,-2.476,-2.5317,-2.4777,-2.4777,-2.5317,-2.4774,-2.4564,-2.4599,-2.4615,-2.4645,2.2923,2.1471,1.9772,1.7552,1.6375,0.0,0.0,1.5449,1.5501,1.5716,1.5419,1.4953,1.4296,1.3399,1.189,0.9509,0.831,0.6903,0.0,0.0,0.0,0.2174,0.0,0.0,0.0,-0.0557,-0.093,-0.1898,-0.3203,-0.4397,-0.515,-0.5736,-0.6325,-0.6836,-0.7476,-0.8011,-0.8449,-0.9854,-1.0732,-1.1025,-1.2244,-1.2899,-1.2917,-1.3684,-1.4246,-1.4729,-1.5405,-1.5855,0.0,-1.6832,-1.7174,-1.7378,-1.7906,-1.8284,-1.8485,-1.8675,-1.9108,-1.9619,-1.9837,-2.0422,-2.1109,-2.1326,-2.1969,-2.2694,-2.2889,-2.4387,-2.6262,-2.7178,-2.7307,-2.728,-2.7582,-2.7784,-2.7874,-2.7861,-2.8362,-2.886,-2.8958,-2.8937,-2.8803,-2.8501,-2.7908,-2.7408,-2.7147,-2.6877,-2.6691,-2.6758,-2.7036,-2.7289,-2.7509,-2.7647,-2.7678,-2.754,-2.7384,-2.6972,-2.6134,-2.5975,-2.5703,-2.5172,-2.4631,-2.4339,-2.4375,-2.4465,-2.4741,-2.5243,-2.476,-2.4741,-2.5243,-2.4723,-2.4497,-2.4564,-2.4864,-2.4864,0.0,2.1929,2.0086,1.9555,1.8418,1.7331,1.6863,1.6678,0.0,1.4798,1.4259,1.3673,1.2586,1.1265,0.9962,0.895,0.7828,0.6693,0.0,0.4306,0.0,0.0,0.17,0.0,-0.0845,0.0622,0.0724,-0.1478,-0.1729,-0.2648,-0.4592,-0.4814,-0.5234,-0.6115,-0.651,-0.707,-0.787,-0.8918,-0.9868,-1.0605,-1.1408,-1.1844,-1.2009,-1.2546,-1.293,0.0,-1.3597,-1.4186,-1.4946,-1.4887,-1.5206,-1.5806,-1.6249,-1.6751,-1.7335,-1.7335,-1.8232,-1.9463,-1.9631,-2.0182,-2.0888,-2.0997,-2.1589,-2.2314,-2.2603,-2.3955,-2.5497,-2.6018,-2.6602,-2.7003,-2.6839,-2.7283,-2.7711,-2.742,-2.8178,-2.9001,-2.9091,-2.8942,-2.89,-2.9239,-2.8017,-2.6973,-2.7251,-2.6781,-2.6383,-2.6383,-2.6791,-2.7181,-2.7504,-2.7509,-2.7367,-2.6986,-2.6851,-2.6178,-2.4693,-2.5171,-2.5265,-2.4658,-2.423,-2.4075,-2.4192,-2.4393,-2.4482,-2.45,-2.45,-2.45,-2.45,-2.443,-2.4429,-2.4497,-2.5243,-2.5241,2.2638,0.0,2.0587,1.9955,1.891,1.7874,0.0,0.0,0.0,0.0,0.0,1.5118,1.446,1.2855,1.1518,1.1441,0.9868,0.8033,0.636,0.0,0.0,0.2688,0.3187,0.288,0.1123,0.0612,0.0176,-0.0348,-0.1179,-0.2122,-0.3266,-0.4117,-0.5011,-0.5889,-0.5959,-0.6296,-0.6921,-0.7656,-0.8222,-0.8586,-1.0069,-1.056,-1.0307,-1.1182,-1.1804,-1.2193,-1.2352,-1.2785,-1.3397,-1.4182,-1.4618,-1.4875,-1.58,-1.6353,-1.6648,-1.674,-1.7379,-1.8147,-1.8321,-1.9214,-2.051,-2.1215,-2.1602,-2.1874,-2.2374,-2.3275,-2.4255,-2.4976,-2.5253,-2.5589,-2.6556,-2.6732,-2.6856,-2.7508,-2.7826,-2.8151,-2.8936,-2.9066,-2.9066,-2.9247,-2.854,-2.7734,-2.7363,-2.6651,-2.6134,-2.6222,-2.6538,-2.6858,-2.6971,-2.7338,-2.7577,-2.7513,-2.756,-2.7,-2.5464,-2.5109,-2.4664,-2.3907,-2.3946,-2.4075,-2.4192,-2.4266,-2.4339,-2.45,-2.4447,-2.443,-2.443,-2.4358,-2.4321,-2.4339,-2.4542,-2.4561,2.2061,2.1525,2.0923,2.0014,1.9022,1.8062,1.7541,0.0,0.0,0.0,0.0,1.4551,1.3777,1.2257,1.1265,1.1571,1.0213,0.0,0.0,0.0,0.0,0.359,0.3028,0.2372,0.0,0.0,0.0601,0.0,-0.0568,-0.126,-0.2127,-0.3211,-0.4193,-0.5009,-0.5451,-0.5885,-0.6193,-0.698,-0.7509,-0.7649,-0.9265,-0.9914,-0.9716,-1.0516,-1.1078,-1.1351,-1.1406,-1.1776,-1.2438,-1.3319,-1.3814,-1.4172,-1.5345,-1.5874,-1.6028,-1.6404,-1.6826,-1.7299,-1.7698,-1.878,-2.0093,-2.0696,-2.1104,-2.1506,-2.1969,-2.2312,-2.2834,-2.3983,-2.4338,-2.4591,-2.5472,-2.556,-2.5591,-2.6214,-2.6541,-2.6933,-2.7745,-2.8127,-2.8396,-2.8657,-2.8201,-2.7651,-2.7292,-2.6651,-2.617,-2.631,-2.6452,-2.659,-2.6858,-2.7038,-2.6985,-2.6545,-2.6493,-2.5865,-2.4392,-2.4145,-2.3904,-2.3526,-2.3732,-2.3878,-2.3921,-2.3979,-2.4039,-2.4078,-2.4172,-2.4228,-2.4228,-2.4247,-2.4266,-2.4284,-2.4266,-2.4284,2.1698,2.1729,2.1331,1.9939,1.8851,1.7941,1.7308,0.0,0.0,0.0,0.0,0.0,1.2544,1.1185,0.0,0.0,0.0,0.0,0.6921,0.4232,0.29,0.4105,0.2817,0.0,0.2046,0.1879,0.1252,0.0079,0.0,-0.0381,-0.1235,-0.2168,-0.3099,-0.4089,-0.4917,-0.5461,-0.5627,-0.6585,-0.7033,-0.7028,-0.8586,-0.9275,-0.9394,-1.0065,-1.0508,-1.0608,0.0,0.0,-1.1511,-1.2291,-1.2893,-1.3493,-1.473,-1.5294,-1.5454,-1.5966,-1.6339,-1.6554,-1.7375,-1.8395,-1.948,-1.9863,-2.0459,-2.1068,-2.1423,-2.1401,-2.1586,-2.2966,-2.3533,-2.3785,-2.4168,-2.4266,-2.4348,-2.4632,-2.5061,-2.5613,-2.6246,-2.6823,-2.7355,-2.7858,-2.7498,-2.7172,-2.7247,-2.6706,-2.6347,-2.6434,-2.6382,-2.6435,-2.6842,-2.6708,-2.62,-2.5264,-2.5021,-2.4373,-2.297,-2.3109,-2.3249,-2.3247,-2.3491,-2.3606,-2.3566,-2.3692,-2.3714,-2.3588,-2.3816,-2.3917,-2.3917,-2.4077,-2.4173,-2.4229,-2.421,-2.4229,2.18,2.2438,2.2352,1.9639,1.8395,1.7625,1.6759,0.0,0.0,0.0,0.0,0.0,0.0,1.1966,1.0492,0.0,0.0,0.7926,0.0,0.0,0.6099,0.6254,0.0,0.4128,0.3112,0.2148,0.119,0.0079,0.0,-0.0364,-0.1268,-0.1476,-0.2225,-0.3808,-0.3991,-0.4414,-0.5049,-0.5559,-0.5828,-0.5898,-0.6886,-0.7499,-0.786,-0.8989,-0.9662,-0.9892,0.0,-1.022,-1.0113,-1.111,-1.1842,-1.2448,-1.3607,-1.4433,-1.4942,-1.513,-1.5311,-1.5604,-1.6871,-1.742,-1.7845,-1.9482,-2.0093,-2.0295,-2.0934,-2.121,-2.1445,-2.1799,-2.2305,-2.2835,-2.3387,-2.3709,-2.4021,-2.4502,-2.4374,-2.448,-2.5524,-2.5983,-2.65,-2.7543,-2.7326,-2.7027,-2.7394,-2.6814,-2.6295,-2.633,-2.6295,-2.6312,-2.6329,-2.6382,-2.6202,-2.549,-2.5452,-2.4934,-2.3573,-2.3509,-2.3261,-2.2607,-2.3067,-2.3371,-2.3346,-2.3522,-2.361,-2.3588,-2.3588,-2.3566,-2.3566,-2.3756,-2.3858,-2.3878,-2.4113,-2.4209,2.1791,2.2155,2.201,2.022,1.9836,1.9562,1.8198,0.0,0.0,0.0,0.0,0.0,0.0,0.0,1.1608,1.1158,0.0,0.7543,0.7419,0.5973,0.522,0.0,0.0,0.3828,0.399,0.2973,0.1849,0.0815,0.0713,0.0344,-0.0537,-0.1055,-0.1625,-0.2436,-0.3266,-0.388,-0.4205,-0.4833,-0.5199,-0.5342,-0.6187,-0.687,-0.7451,-0.8623,-0.9285,-0.959,0.0,-1.0014,-0.9742,-1.0534,-1.0987,-1.1274,-1.2431,-1.328,-1.3925,-1.4461,-1.4872,-1.5268,-1.5687,-1.626,-1.7025,-1.8207,-1.9094,-1.9759,-2.0005,-2.0218,-2.0446,-2.046,-2.1304,-2.229,-2.2667,-2.2889,-2.3113,-2.3478,-2.3478,-2.3611,-2.4499,-2.4786,-2.5144,-2.6166,-2.6209,-2.6227,-2.6614,-2.6369,-2.6154,-2.6225,-2.6189,-2.6154,-2.6187,-2.5822,-2.531,-2.4697,-2.423,-2.3579,-2.2584,-2.2688,-2.276,-2.2634,-2.2841,-2.301,-2.3074,-2.314,-2.3164,-2.3098,-2.3236,-2.3283,-2.3283,-2.3495,-2.3671,-2.3795,-2.3917,-2.4056,2.1756,2.1989,2.1876,2.1103,2.0952,0.0,0.0,0.0,0.0,0.0,0.0,0.0,0.0,1.3045,0.0,1.0825,0.9145,0.7855,0.739,0.5654,0.4743,0.5523,0.438,0.3806,0.4528,0.3747,0.2682,0.1403,0.1287,0.0922,0.0065,-0.0627,-0.1047,-0.1231,-0.2397,-0.3184,-0.3464,-0.4099,-0.4596,-0.5018,-0.57,-0.6361,-0.6998,-0.8082,-0.8735,-0.9093,-0.9669,-0.9728,-0.9568,-1.0041,-1.0317,-1.047,-1.1386,-1.2265,-1.3049,-1.3731,-1.4305,-1.4818,-1.4676,-1.5263,-1.6198,-1.6974,-1.7939,-1.8879,-1.9012,-1.9178,-1.9364,-1.9538,-2.056,-2.1633,-2.182,-2.2165,-2.2466,-2.2431,-2.2653,-2.2935,-2.3299,-2.3441,-2.3823,-2.4816,-2.5048,-2.5303,-2.5941,-2.6026,-2.6026,-2.6134,-2.601,-2.5974,-2.6082,-2.5278,-2.4486,-2.3851,-2.3031,-2.2231,-2.1577,-2.1811,-2.2181,-2.2581,-2.2624,-2.2694,-2.2868,-2.2816,-2.2764,-2.2712,-2.2893,-2.302,-2.302,-2.3218,-2.3455,-2.3714,-2.3774,-2.3937,2.1851,2.2562,2.2968,2.195,2.0453,0.0,1.9479,1.8771,0.0,1.8586,0.0,0.0,0.0,1.2467,1.0429,0.927,0.9537,0.9499,0.8316,0.0,0.748,0.6366,0.6093,0.5597,0.4327,0.4143,0.3299,0.1467,0.1332,0.0904,0.0065,-0.0063,-0.0432,-0.1108,-0.1231,-0.1881,-0.3123,-0.3329,-0.3872,-0.4745,-0.4931,-0.5333,-0.5934,-0.6816,-0.7438,-0.7901,-0.8841,-0.918,-0.9095,-0.9344,-0.9784,-1.0269,-1.0592,-1.151,-1.2657,-1.2861,-1.323,-1.3765,-1.4328,-1.4673,-1.5006,-1.6187,-1.6708,-1.7055,-1.8026,-1.8367,-1.8678,-1.9672,-2.012,-2.0422,-2.0873,-2.1795,-2.2412,-2.1826,-2.2141,-2.2443,-2.1901,-2.2119,-2.2835,-2.4184,-2.4304,-2.4627,-2.5966,-2.6026,-2.5917,-2.601,-2.5848,-2.5738,-2.5738,-2.5045,-2.4275,-2.3578,-2.2731,-2.1972,-2.1374,-2.1556,-2.1811,-2.2056,-2.2304,-2.2515,-2.2712,-2.2712,-2.2712,-2.2712,-2.2712,-2.2738,-2.2738,-2.2977,-2.3212,-2.3437,-2.3692,-2.3937,2.1966,2.2639,2.3143,2.2733,2.1342,0.0,0.0,2.0699,1.936,1.8793,1.855,0.0,0.0,0.0,1.171,1.0677,1.0783,1.079,1.0326,0.8922,0.7783,0.7265,0.646,0.5749,0.5124,0.498,0.4389,0.2983,0.2765,0.2128,0.0731,0.0709,0.0349,-0.0407,-0.0756,-0.1214,-0.1712,-0.2594,-0.3244,-0.3595,-0.4315,-0.5034,-0.5665,-0.6187,-0.6864,-0.7622,-0.8275,-0.8738,-0.9008,-0.9211,-0.9465,-0.9762,-1.0482,-1.104,-1.1543,-1.2089,-1.2628,-1.3142,-1.3458,-1.3869,-1.4387,-1.5241,-1.5838,-1.6323,-1.6646,-1.7211,-1.7796,-1.7939,-1.8516,-1.9382,-2.0384,-2.1029,-2.1304,-2.0895,-2.1039,-2.1254,-2.1098,-2.1169,-2.1606,-2.2711,-2.2833,-2.3136,-2.4155,-2.4236,-2.4309,-2.4822,-2.4777,-2.4703,-2.4761,-2.4076,-2.3314,-2.2643,-2.1937,-2.144,-2.1263,-2.1511,-2.1781,-2.2039,-2.226,-2.2487,-2.2685,-2.2712,-2.2712,-2.2712,-2.2712,-2.2712,-2.2712,-2.297,-2.3188,-2.3414,-2.3671,-2.3939,2.1837,2.2123,2.245,2.27,0.0,0.0,2.35,2.1983,2.0018,1.9487,1.8657,1.7063,1.4339,0.0,0.0,0.0,1.1589,1.1516,1.12,0.9614,0.8245,0.7594,0.6666,0.5946,0.5457,0.5311,0.4852,0.3799,0.368,0.2872,0.1174,0.1081,0.0783,0.0,-0.0393,-0.0729,-0.0898,-0.1792,-0.246,-0.2907,-0.3426,-0.4209,-0.5186,-0.5571,-0.6161,-0.6907,-0.7466,-0.8051,-0.858,-0.8784,-0.9047,-0.9465,-1.019,-1.06,-1.0905,-1.1642,-1.2276,-1.2861,-1.3112,-1.3573,-1.4073,-1.4478,-1.4997,-1.5508,-1.559,-1.6238,-1.6891,-1.6954,-1.7618,-1.8622,-1.9588,-2.0166,-2.0364,-2.0004,-2.0203,-2.0444,-2.0316,-2.0356,-2.0633,-2.1575,-2.1728,-2.2009,-2.2853,-2.3024,-2.3271,-2.3791,-2.3797,-2.3797,-2.3871,-2.3175,-2.2404,-2.1704,-2.1244,-2.1087,-2.1277,-2.1587,-2.1899,-2.2226,-2.2426,-2.2579,-2.2738,-2.2712,-2.2712,-2.2712,-2.2712,-2.2712,-2.2712,-2.297,-2.3188,-2.3414,-2.3671,-2.3939,2.138,2.0936,2.0815,2.1606,0.0,0.0,2.4816,2.2232,1.9693,2.0947,1.8713,1.6192,1.5288,1.3669,0.0,1.1669,1.1793,1.1572,1.0545,1.0102,0.9151,0.7159,0.6764,0.6254,0.5205,0.4999,0.4546,0.3684,0.3639,0.287,0.1233,0.1138,0.0783,0.0056,0.0,-0.028,-0.0898,-0.0898,-0.1568,-0.285,-0.2293,-0.2796,-0.4249,-0.4952,-0.5386,-0.5542,-0.6258,-0.702,-0.7723,-0.7978,-0.8606,-0.9413,-0.9688,-1.0205,-1.0854,-1.1525,-1.2209,-1.2871,-1.342,-1.3773,-1.402,-1.402,-1.4197,-1.4512,-1.5085,-1.5534,-1.6029,-1.7149,-1.7753,-1.8131,-1.8336,-1.9198,-1.9832,-1.9238,-1.974,-2.0203,-1.9516,-1.9565,-1.9964,-2.0991,-2.1196,-2.1491,-2.2399,-2.2781,-2.3028,-2.3167,-2.308,-2.3028,-2.3167,-2.2492,-2.1688,-2.0873,-2.0794,-2.0974,-2.1462,-2.1735,-2.2101,-2.2579,-2.2712,-2.2816,-2.2816,-2.2738,-2.2712,-2.2712,-2.2712,-2.2712,-2.2712,-2.297,-2.3188,-2.3414,-2.3671,-2.3939,2.1032,2.1268,2.1476,2.1957,0.0,0.0,0.0,2.2834,0.0,0.0,1.8291,1.5938,1.6188,0.0,0.0,1.2164,1.2232,1.2171,1.1197,1.0178,0.9265,0.8668,0.7661,0.6678,0.5835,0.5608,0.5217,0.4457,0.427,0.3792,0.2774,0.2188,0.1563,0.0783,0.028,-0.0112,-0.028,-0.0617,-0.1009,-0.1512,-0.1734,-0.2683,-0.4193,-0.4015,-0.4501,-0.5542,-0.5878,-0.648,-0.7176,-0.7984,-0.8725,-0.9413,-0.9688,-0.9895,-1.0154,-1.06,-1.1342,-1.212,-1.2384,-1.3084,-1.3868,-1.3973,-1.4104,-1.4326,-1.4697,-1.5051,-1.539,-1.5891,-1.6485,-1.7033,-1.7235,-1.7832,-1.8357,-1.8357,-1.8589,-1.8808,-1.8639,-1.8663,-1.8981,-1.9952,-2.013,-2.0396,-2.1192,-2.1342,-2.16,-2.2176,-2.2169,-2.2083,-2.2083,-2.1399,-2.0848,-2.061,-2.0728,-2.0893,-2.1199,-2.1705,-2.2124,-2.2309,-2.2624,-2.2816,-2.2816,-2.279,-2.2764,-2.2712,-2.2738,-2.2738,-2.2712,-2.297,-2.3188,-2.3414,-2.3671,-2.3959,2.0594,2.1091,0.0,2.2077,2.2674,2.3264,2.3833,0.0,0.0,0.0,1.8832,1.6775,1.6696,1.5531,0.0,1.277,1.2649,1.2397,1.143,1.0481,0.9629,0.9019,0.811,0.7226,0.6407,0.623,0.5944,0.5502,0.5119,0.456,0.3834,0.3063,0.2232,0.1229,0.0671,0.0336,0.0056,-0.028,-0.0561,-0.0842,-0.1008,-0.1845,-0.3241,-0.3347,-0.3953,-0.5003,-0.5555,-0.6209,-0.6961,-0.7877,-0.8679,-0.9361,-0.9577,-0.9688,-0.9851,-1.0308,-1.0897,-1.1584,-1.2138,-1.288,-1.361,-1.3915,-1.415,-1.4384,-1.4523,-1.4891,-1.5232,-1.5534,-1.6107,-1.6637,-1.6947,-1.7378,-1.776,-1.7935,-1.8095,-1.8254,-1.8279,-1.8358,-1.8567,-1.9087,-1.9362,-1.9639,-2.0273,-2.0426,-2.0683,-2.1361,-2.1374,-2.1305,-2.1186,-2.0777,-2.0494,-2.046,-2.0595,-2.0877,-2.1324,-2.1794,-2.2209,-2.2537,-2.2747,-2.2842,-2.2842,-2.2816,-2.2764,-2.2712,-2.2764,-2.2764,-2.2712,-2.297,-2.3188,-2.3414,-2.3692,-2.3998,2.0226,2.0797,2.1331,2.2304,2.3991,0.0,2.4279,2.3406,2.2514,2.16,0.0,1.8257,1.7027,1.5696,1.4427,1.3383,1.3026,1.2434,1.1331,1.0892,1.0229,0.8731,0.845,0.8008,0.7048,0.6809,0.6696,0.6588,0.5923,0.5206,0.4535,0.3779,0.2788,0.1509,0.1229,0.0839,0.028,0.0112,-0.0168,-0.0617,-0.0168,-0.056,-0.1734,-0.279,-0.3627,-0.4304,-0.5285,-0.615,-0.6853,-0.7706,-0.8455,-0.9159,-0.9309,-0.9577,-0.9844,-1.0498,-1.0854,-1.115,-1.2325,-1.2919,-1.3266,-1.3858,-1.4255,-1.4569,-1.4627,-1.4926,-1.5311,-1.5768,-1.625,-1.668,-1.7128,-1.7432,-1.7679,-1.7801,-1.8055,-1.8279,-1.8279,-1.8372,-1.8478,-1.8556,-1.8889,-1.9288,-1.969,-1.996,-2.0323,-2.0728,-2.0794,-2.0728,-2.0527,-2.0494,-2.0475,-2.0423,-2.046,-2.0812,-2.1639,-2.1849,-2.2237,-2.291,-2.2902,-2.285,-2.285,-2.2842,-2.2764,-2.2712,-2.2764,-2.2764,-2.2712,-2.2927,-2.3182,-2.3387,-2.3671,-2.3958,2.092,2.1706,0.0,2.3974,2.5053,2.5638,2.4979,2.3889,2.2756,2.1841,2.0325,1.8937,1.8277,1.6582,1.4902,1.3691,1.3147,1.2569,1.1688,1.132,1.0833,0.9964,0.9639,0.8964,0.7637,0.7484,0.7235,0.6642,0.5923,0.5429,0.5261,0.4058,0.3289,0.2954,0.1843,0.1174,0.1063,0.056,0.028,0.0168,0.028,-0.0112,-0.0953,-0.1902,-0.3072,-0.4463,-0.4794,-0.5399,-0.6268,-0.7009,-0.7818,-0.8633,-0.9204,-0.9517,-0.9673,-1.0043,-1.0454,-1.0947,-1.185,-1.253,-1.316,-1.3894,-1.4233,-1.4326,-1.4673,-1.4765,-1.48,-1.4994,-1.539,-1.5768,-1.5944,-1.6582,-1.7173,-1.7323,-1.7693,-1.8029,-1.8189,-1.8228,-1.8386,-1.8874,-1.9288,-1.9675,-2.005,-2.0342,-2.0626,-2.0726,-2.0777,-2.0728,-2.0527,-2.0494,-2.0494,-2.046,-2.0494,-2.0679,-2.1071,-2.1415,-2.1688,-2.1907,-2.2354,-2.2596,-2.2596,-2.2764,-2.2816,-2.2712,-2.2816,-2.2816,-2.2712,-2.2764,-2.2927,-2.3157,-2.3277,-2.3491,2.0365,2.1521,0.0,2.5408,0.0,2.5472,2.5235,2.394,2.2579,2.1818,2.0464,1.9077,1.7814,1.6496,1.5153,1.377,1.3327,1.2839,1.1877,1.1636,1.1309,1.064,1.0379,0.985,0.8817,0.8718,0.8402,0.7717,0.6961,0.6573,0.6573,0.521,0.4278,0.4058,0.2896,0.2011,0.1454,0.0951,0.0616,0.0393,0.0336,-0.0056,-0.0729,-0.1902,-0.3016,-0.4015,-0.4405,-0.5124,-0.5941,-0.6372,-0.723,-0.8302,-0.8732,-0.9152,-0.9517,-0.9784,-1.0102,-1.0498,-1.125,-1.203,-1.2812,-1.3447,-1.3978,-1.443,-1.4477,-1.4581,-1.4719,-1.4983,-1.5289,-1.568,-1.6139,-1.6655,-1.7186,-1.7516,-1.7774,-1.7975,-1.8095,-1.8175,-1.8333,-1.8669,-1.8936,-1.9236,-1.9624,-2.012,-2.0527,-2.0693,-2.0744,-2.0728,-2.0527,-2.0494,-2.0527,-2.0628,-2.0628,-2.0844,-2.1339,-2.1658,-2.1936,-2.2153,-2.2517,-2.2738,-2.2738,-2.285,-2.2876,-2.2764,-2.2893,-2.2893,-2.279,-2.279,-2.2927,-2.3193,-2.3247,-2.3417,1.9592,2.1225,2.3138,2.6215,2.6014,0.0,2.4955,2.3501,2.1957,2.143,2.0335,1.8861,1.7004,1.6181,1.5321,1.3902,1.3691,1.3342,1.2304,1.2159,1.1855,1.1065,1.0965,1.072,1.0064,0.9865,0.9562,0.9008,0.8203,0.7723,0.7723,0.6323,0.5275,0.4834,0.3893,0.2859,0.1774,0.133,0.089,0.0449,0.028,-0.0056,-0.0617,-0.1958,-0.2847,-0.3345,-0.4128,-0.4831,-0.5562,-0.5783,-0.6635,-0.7741,-0.8075,-0.8633,-0.9309,-0.9532,-0.9792,-1.0102,-1.0804,-1.1592,-1.2307,-1.283,-1.3632,-1.4351,-1.413,-1.4391,-1.4846,-1.5083,-1.5297,-1.5668,-1.6484,-1.6837,-1.7102,-1.7625,-1.7787,-1.7908,-1.8028,-1.8187,-1.8319,-1.8319,-1.8489,-1.8731,-1.903,-1.9728,-2.0296,-2.0471,-2.0665,-2.0728,-2.0561,-2.0527,-2.0595,-2.0794,-2.0794,-2.1071,-2.1794,-2.1953,-2.2209,-2.2668,-2.2782,-2.2876,-2.2944,-2.2995,-2.2944,-2.2842,-2.2927,-2.297,-2.2893,-2.2893,-2.3003,-2.3241,-2.3295,-2.3399,1.9585,0.0,2.422,0.0,2.5209,2.4483,0.0,0.0,2.0861,0.0,1.9484,1.8472,1.7411,1.62,1.5196,1.4609,1.4521,1.4312,1.3627,1.3521,1.3082,1.1814,1.1665,1.1416,1.0712,1.0167,0.9762,0.9658,0.8455,0.7723,0.7723,0.6288,0.541,0.5205,0.3984,0.3007,0.241,0.1658,0.1087,0.0673,0.0336,0.0168,0.0056,-0.0784,-0.1847,-0.3016,-0.3855,-0.4287,-0.4485,-0.5257,-0.5826,-0.6344,-0.6962,-0.7823,-0.8732,-0.8883,-0.9361,-1.0102,-1.0964,-1.136,-1.1688,-1.2626,-1.3186,-1.3549,-1.352,-1.4093,-1.4732,-1.4492,-1.4808,-1.5198,-1.5322,-1.5668,-1.6095,-1.6595,-1.7018,-1.7475,-1.8108,-1.8266,-1.8319,-1.8464,-1.8822,-1.9119,-1.9099,-1.982,-2.0226,-1.9797,-2.0334,-2.0761,-2.0677,-2.066,-2.0744,-2.0877,-2.0794,-2.0942,-2.1598,-2.1448,-2.157,-2.2153,-2.2248,-2.2419,-2.2632,-2.2893,-2.2995,-2.2952,-2.2995,-2.297,-2.2893,-2.2893,-2.2919,-2.297,-2.3003,-2.3151,1.9497,2.1569,2.3331,0.0,2.3985,2.3362,2.2786,2.1433,2.0051,1.9203,1.8465,1.7739,1.6955,1.6327,1.5636,1.4822,1.4698,1.4606,1.4329,1.4283,1.3946,1.3034,1.2938,1.2492,1.1466,1.1116,1.0762,1.0364,0.9436,0.8802,0.8639,0.728,0.6294,0.5767,0.4836,0.3893,0.2939,0.2258,0.1675,0.1175,0.0504,0.0448,0.0951,-0.033,-0.1415,-0.2335,-0.315,-0.3726,-0.4172,-0.4622,-0.517,-0.5767,-0.6117,-0.6862,-0.7735,-0.8086,-0.8634,-0.9271,-0.9833,-1.0435,-1.1062,-1.1569,-1.2213,-1.2806,-1.3031,-1.3504,-1.4045,-1.4221,-1.449,-1.4852,-1.5374,-1.5668,-1.6008,-1.6782,-1.7131,-1.7462,-1.8254,-1.8358,-1.8358,-1.8606,-1.8822,-1.9008,-1.9129,-1.9551,-1.9854,-1.9924,-2.0309,-2.0595,-2.0693,-2.0744,-2.0843,-2.1055,-2.0974,-2.1151,-2.1675,-2.1631,-2.1751,-2.2068,-2.2364,-2.2598,-2.2712,-2.2927,-2.307,-2.307,-2.307,-2.3045,-2.302,-2.302,-2.302,-2.302,-2.3168,-2.3217,0.0,0.0,2.1727,2.2571,2.2509,2.2216,0.0,0.0,1.9683,0.0,1.812,1.7377,1.6761,1.6536,1.6142,1.5312,1.5152,1.5107,1.4971,1.4926,1.4698,1.4097,1.3909,1.3426,1.2404,1.2012,1.1616,1.1116,1.0335,0.9733,0.9392,0.8098,0.7042,0.6266,0.5448,0.4542,0.3464,0.2747,0.2202,0.1767,0.1049,0.0994,0.1489,0.0213,-0.0783,-0.1499,-0.2347,-0.3074,-0.3765,-0.3867,-0.4398,-0.5171,-0.5316,-0.6026,-0.7001,-0.7387,-0.8029,-0.8734,-0.9018,-0.9619,-1.0328,-1.0587,-1.1272,-1.2011,-1.239,-1.2869,-1.3384,-1.3788,-1.4032,-1.4378,-1.5259,-1.5509,-1.575,-1.6786,-1.6959,-1.7222,-1.8266,-1.845,-1.8472,-1.8546,-1.8593,-1.8611,-1.8681,-1.903,-1.9435,-1.9859,-2.0286,-2.0628,-2.0744,-2.0843,-2.099,-2.123,-2.1167,-2.134,-2.184,-2.184,-2.1928,-2.2198,-2.2463,-2.2624,-2.2677,-2.2876,-2.2995,-2.2995,-2.307,-2.3095,-2.3095,-2.3095,-2.3095,-2.3102,-2.3313,-2.3336,0.0,1.8573,0.0,2.0304,2.0838,2.1296,0.0,0.0,1.9875,1.9846,1.8897,1.7908,1.7352,1.6833,1.6461,1.6436,1.6423,1.6194,1.5632,1.5543,1.532,1.4698,1.4143,1.3768,1.3721,1.255,1.1765,1.1765,1.0793,0.9971,0.9434,0.8268,0.7263,0.6584,0.5415,0.4512,0.3882,0.2912,0.2336,0.2186,0.2126,0.1806,0.1329,0.1178,0.0494,-0.0623,-0.164,-0.2319,-0.2803,-0.3044,-0.3617,-0.4283,-0.442,-0.5372,-0.6718,-0.6894,-0.7801,-0.9012,-0.9267,-0.9398,-0.9562,-1.0227,-1.0674,-1.105,-1.1499,-1.2289,-1.3043,-1.3131,-1.339,-1.3794,-1.441,-1.4654,-1.4986,-1.6022,-1.6078,-1.6358,-1.8143,-1.8644,-1.8612,-1.8055,-1.7999,-1.7877,-1.7393,-1.8246,-1.9086,-1.9234,-2.0303,-2.1023,-2.0893,-2.1055,-2.123,-2.1355,-2.1262,-2.1433,-2.2039,-2.1797,-2.1873,-2.2443,-2.2215,-2.2124,-2.233,-2.2571,-2.2712,-2.2712,-2.297,-2.3095,-2.3095,-2.3095,-2.3095,-2.3102,-2.3313,-2.3463,0.0,0.0,0.0,1.8592,1.9114,1.9468,1.9296,1.9241,1.9161,1.8796,1.8416,1.8027,1.7867,1.7394,1.6909,1.6552,1.6522,1.6423,1.6194,1.6194,1.5964,1.5365,1.5096,1.4641,1.3862,1.3379,1.2909,1.255,1.1472,1.066,1.0326,0.8941,0.7808,0.7002,0.6263,0.5277,0.4047,0.334,0.3007,0.3021,0.2542,0.2438,0.2597,0.1644,0.0962,0.0475,-0.0282,-0.1158,-0.2143,-0.2645,-0.3146,-0.3608,-0.3924,-0.4663,-0.5607,-0.6141,-0.6904,-0.775,-0.8318,-0.8637,-0.8919,-0.9494,-0.9908,-1.029,-1.0846,-1.1529,-1.2191,-1.2596,-1.3202,-1.3854,-1.4375,-1.4746,-1.5063,-1.5441,-1.5876,-1.6356,-1.6895,-1.7516,-1.7941,-1.7803,-1.7956,-1.8043,-1.7691,-1.8439,-1.9102,-1.9194,-1.9951,-2.0563,-2.0646,-2.1023,-2.1309,-2.1386,-2.1309,-2.1433,-2.1869,-2.1708,-2.1768,-2.2215,-2.2287,-2.2426,-2.2624,-2.285,-2.297,-2.297,-2.3045,-2.3095,-2.3095,-2.3095,-2.3095,-2.3119,-2.3376,-2.3508,1.6084,0.0,0.0,0.0,1.763,1.7896,1.7961,0.0,1.8712,1.865,1.865,1.8574,1.8419,1.8066,1.7666,1.7105,1.7034,1.7034,1.7034,1.7034,1.6811,1.6232,1.5971,1.5475,1.4492,1.4236,1.3873,1.3238,1.2375,0.0,1.1049,0.96,0.8278,0.7027,0.6647,0.581,0.4335,0.41,0.3886,0.3679,0.3257,0.3157,0.3324,0.2299,0.1673,0.135,0.0771,-0.0269,-0.1518,-0.1964,-0.2541,-0.3126,-0.3524,-0.4166,-0.4979,-0.5576,-0.618,-0.6824,-0.7588,-0.8013,-0.8349,-0.9047,-0.9439,-0.9746,-1.038,-1.0905,-1.1384,-1.2014,-1.2669,-1.3288,-1.4074,-1.4661,-1.5037,-1.4969,-1.5466,-1.5887,-1.5636,-1.6706,-1.7568,-1.7263,-1.7533,-1.7776,-1.762,-1.7977,-1.8561,-1.9287,-1.9802,-2.0264,-2.0663,-2.1087,-2.1371,-2.1464,-2.1402,-2.1464,-2.1751,-2.1694,-2.1738,-2.1998,-2.2215,-2.2398,-2.2517,-2.2825,-2.297,-2.297,-2.3052,-2.3095,-2.3095,-2.3168,-2.3193,-2.3217,-2.3558,-2.371,0.0,0.0,0.0,0.0,0.0,0.0,1.7841,0.0,1.8646,1.9479,1.969,1.9551,1.9043,1.893,1.8765,1.8249,1.8145,1.8106,1.8106,1.8106,1.7907,1.7394,1.6773,1.6219,1.5664,1.5096,1.4468,1.3862,1.3384,1.2615,1.1519,1.0224,0.8613,0.6623,0.6526,0.5964,0.4845,0.5142,0.4908,0.4131,0.433,0.4032,0.3319,0.3095,0.2632,0.1964,0.1386,0.0358,-0.0851,-0.103,-0.1787,-0.2898,-0.312,-0.3906,-0.5,-0.5211,-0.5722,-0.6404,-0.7175,-0.7558,-0.7848,-0.8846,-0.9208,-0.9399,-1.004,-1.0428,-1.0725,-1.1383,-1.1712,-1.2155,-1.3495,-1.4358,-1.4791,-1.4533,-1.475,-1.4866,-1.4454,-1.6258,-1.7568,-1.638,-1.6651,-1.7044,-1.6898,-1.6825,-1.7479,-1.9441,-1.9824,-2.0176,-2.1054,-2.1276,-2.1432,-2.1573,-2.1464,-2.1509,-2.1781,-2.1738,-2.1738,-2.1811,-2.1969,-2.2056,-2.2039,-2.2463,-2.2712,-2.2712,-2.2977,-2.3119,-2.3102,-2.3313,-2.3407,-2.3407,-2.375,-2.4057,1.3948,0.0,0.0,0.0,0.0,0.0,0.0,0.0,1.8324,1.8584,1.9192,1.9732,1.9899,1.9919,1.9989,2.0165,1.9008,1.8106,1.8106,1.8106,1.8027,1.7907,1.7368,1.6828,1.6219,1.5664,1.5096,0.0,1.3611,1.2976,1.266,1.0916,0.9368,0.812,0.7419,0.6706,0.591,0.5459,0.5054,0.4768,0.4447,0.4164,0.3792,0.3369,0.2898,0.245,0.1609,0.0985,0.0447,-0.0537,-0.1475,-0.2268,-0.2628,-0.344,-0.4453,-0.4771,-0.5266,-0.5873,-0.6552,-0.7007,-0.7391,-0.7848,-0.839,-0.8958,-0.9332,-0.9972,-1.0659,-1.0992,-1.1981,-1.3157,-1.4222,-1.4277,-1.4045,-1.4,-1.4152,-1.4235,-1.4091,-1.5094,-1.5944,-1.5678,-1.608,-1.6438,-1.642,-1.6815,-1.7412,-1.8182,-1.8624,-1.9198,-2.0082,-2.0532,-2.0953,-2.1524,-2.1464,-2.1509,-2.1781,-2.1969,-2.2136,-2.2368,-2.2678,-2.2925,-2.3084,-2.3199,-2.3289,-2.3289,-2.3463,-2.3518,-2.3518,-2.3495,-2.3473,-2.3473,-2.3919,-2.4211,0.0,0.0,0.0,0.0,0.0,0.0,1.4683,1.5857,1.6943,0.0,1.8164,1.9099,1.9351,1.9875,2.0382,2.0649,1.9924,1.9287,1.9287,1.8999,1.8765,1.8736,1.8288,1.7653,1.6857,1.6489,1.5971,1.5141,1.4238,1.3366,1.2508,1.1183,0.9935,0.8779,0.8055,0.7294,0.6465,0.6113,0.5641,0.5055,0.4776,0.4457,0.4024,0.3657,0.3344,0.3073,0.2322,0.1832,0.1431,0.0358,-0.0626,-0.151,-0.1876,-0.2667,-0.366,-0.3951,-0.4438,-0.5066,-0.5862,-0.641,-0.6772,-0.7314,-0.784,-0.8325,-0.8459,-0.9169,-1.0,-1.0253,-1.1475,-1.2896,-1.3627,-1.3435,-1.3093,-1.3507,-1.3292,-1.3128,-1.3611,-1.4159,-1.4731,-1.5175,-1.5705,-1.6149,-1.6337,-1.6566,-1.7007,-1.7865,-1.8082,-1.8501,-1.9498,-1.9874,-2.0225,-2.071,-2.0685,-2.0887,-2.1416,-2.1614,-2.1953,-2.2521,-2.2875,-2.3175,-2.3365,-2.3453,-2.3494,-2.3494,-2.3571,-2.3689,-2.386,-2.3819,-2.3821,-2.3885,-2.4155,-2.4355,0.0,0.0,0.0,0.0,0.0,0.0,1.3352,1.4118,1.4844,0.0,1.661,1.7689,1.7762,1.8779,1.9667,1.9717,2.0276,2.075,2.0959,2.0345,1.9823,1.9763,1.931,1.8598,1.7653,1.7381,1.6883,1.584,1.5096,1.3868,1.1968,1.1332,1.041,0.9052,0.858,0.7885,0.6852,0.6937,0.6402,0.5275,0.52,0.4834,0.4196,0.4016,0.3836,0.3697,0.3211,0.2721,0.2144,0.1424,0.04,-0.0705,-0.1013,-0.1796,-0.2745,-0.303,-0.3479,-0.4071,-0.5163,-0.5716,-0.6108,-0.7011,-0.7456,-0.7679,-0.7757,-0.8371,-0.9142,-0.9598,-1.0695,-1.1823,-1.2307,-1.2144,-1.2067,-1.2874,-1.2335,-1.1882,-1.2997,-1.3332,-1.3686,-1.4639,-1.5401,-1.6001,-1.6439,-1.6188,-1.6437,-1.7988,-1.7864,-1.8003,-1.9154,-1.9307,-1.9367,-1.9611,-1.9628,-1.999,-2.0925,-2.1056,-2.1521,-2.2504,-2.2841,-2.3084,-2.3259,-2.3435,-2.3522,-2.3522,-2.3567,-2.3771,-2.4174,-2.4192,-2.4284,-2.4424,-2.4424,-2.4493,0.0,0.0,0.0,0.0,0.0,0.0,1.1804,1.2529,1.3144,0.0,1.4346,1.4976,1.5583,1.5558,1.5643,1.6166,1.7609,1.9226,2.0798,2.0862,2.0731,2.0715,1.9974,1.939,1.9156,1.8025,1.7229,1.7008,1.5576,1.4286,1.3408,1.2454,1.1478,1.0463,0.9684,0.8796,0.7773,0.7194,0.6734,0.638,0.5527,0.5009,0.4792,0.428,0.3972,0.3836,0.3347,0.3034,0.2758,0.1766,0.0594,-0.0549,-0.0799,-0.1344,-0.2055,-0.2588,-0.3086,-0.3614,-0.4257,-0.5068,-0.5763,-0.5856,-0.659,-0.7561,-0.8028,-0.8671,-0.9503,-1.0765,-1.0822,-1.072,-1.1649,-1.1422,-1.1099,-1.1579,-1.1591,-1.1613,-1.2035,-1.2135,-1.2351,-1.3023,-1.4471,-1.5669,-1.5993,-1.5946,-1.6159,-1.6916,-1.6945,-1.7358,-1.8599,-1.8647,-1.8913,-1.9746,-1.9707,-2.0017,-2.1005,-2.1412,-2.2038,-2.294,-2.3382,-2.3646,-2.3689,-2.371,-2.375,-2.375,-2.3998,-2.4321,-2.4654,-2.4424,-2.4407,-2.4642,-2.4642,-2.4673,0.0,0.0,0.0,0.9695,0.0,0.0,0.0,1.0798,1.1021,1.1363,1.1784,1.2341,1.3145,1.347,1.3883,1.4559,1.6128,1.7621,1.8641,2.0051,2.1055,2.1275,2.0699,2.0112,1.9641,1.8896,1.8011,1.6941,1.5784,1.4732,1.3862,1.3073,1.2181,1.1251,1.038,0.9555,0.8743,0.797,0.7377,0.6967,0.6275,0.5739,0.5475,0.5101,0.4753,0.4439,0.4089,0.3581,0.2885,0.2306,0.1355,0.0234,-0.0229,-0.078,-0.1339,-0.1796,-0.2433,-0.3113,-0.3609,-0.4442,-0.5348,-0.5516,-0.6117,-0.6823,-0.7168,-0.7735,-0.853,-0.9648,-0.9758,-0.9717,-1.0344,-1.042,-1.0475,-1.0915,-1.0997,-1.1136,-1.1632,-1.1642,-1.1768,-1.2554,-1.3544,-1.4381,-1.474,-1.5107,-1.5549,-1.612,-1.6499,-1.7071,-1.793,-1.8004,-1.817,-1.8757,-1.8717,-1.9068,-2.0084,-2.0424,-2.1144,-2.2452,-2.2914,-2.331,-2.3732,-2.3876,-2.3998,-2.4098,-2.4284,-2.4526,-2.4746,-2.4666,-2.4682,-2.4808,-2.4808,-2.4823,0.0,0.0,0.0,0.0,0.0,0.8989,0.0,0.0,0.0,0.8805,0.9019,0.0,0.0,0.0,0.0,0.0,0.0,0.0,0.0,1.7957,0.0,2.083,2.0846,2.0476,1.9667,1.9316,1.8432,1.6718,1.5784,1.4994,1.4179,1.3595,1.2807,1.192,1.1032,1.0241,0.9666,0.8773,0.8042,0.7487,0.6956,0.6507,0.6118,0.591,0.5615,0.5168,0.5001,0.4317,0.3241,0.3,0.2325,0.1306,0.0472,-0.018,-0.0675,-0.1019,-0.1702,-0.255,-0.3013,-0.384,-0.4709,-0.5159,-0.5641,-0.6065,-0.6226,-0.6787,-0.7475,-0.8129,-0.8493,-0.8718,-0.9001,-0.9358,-0.9732,-1.0159,-1.025,-1.04,-1.1132,-1.115,-1.1242,-1.2075,-1.2387,-1.2761,-1.3528,-1.4303,-1.4977,-1.5524,-1.6292,-1.6942,-1.741,-1.7505,-1.7566,-1.7772,-1.7732,-1.8104,-1.9121,-1.932,-2.0082,-2.1703,-2.2206,-2.2758,-2.3512,-2.3903,-2.4229,-2.4424,-2.4472,-2.4586,-2.4775,-2.4893,-2.4934,-2.4902,-2.4902,-2.4915,0.0,0.0,0.0,0.0,0.8435,0.0,0.0,0.0,0.6722,0.675,0.0,0.0,0.0,0.0,0.0,0.0,0.0,0.0,1.1229,1.376,1.6275,1.8192,1.9423,1.9941,1.9561,1.8257,1.741,1.7203,1.5395,1.4607,1.5353,1.431,1.3506,1.2951,1.1953,1.1039,1.0222,0.9324,0.8632,0.8066,0.728,0.6803,0.6598,0.6167,0.5953,0.5905,0.5876,0.5319,0.4432,0.3911,0.3173,0.2321,0.1159,0.0388,-0.0169,-0.0737,-0.1236,-0.1707,-0.2253,-0.3015,-0.3733,-0.3748,-0.4708,-0.5935,-0.6396,-0.7003,-0.7565,-0.793,-0.7916,-0.7821,-0.8162,-0.8288,-0.8398,-0.8674,-0.8973,-0.9306,-0.9734,-0.9898,-1.0096,-1.0482,-1.0698,-1.136,-1.3216,-1.4239,-1.4898,-1.5211,-1.6139,-1.6942,-1.7353,-1.7448,-1.7652,-1.8009,-1.7839,-1.8144,-1.9201,-1.9364,-1.9887,-2.1039,-2.2016,-2.2672,-2.2901,-2.3729,-2.4303,-2.4575,-2.454,-2.4682,-2.5057,-2.507,-2.5025,-2.4902,-2.4902,-2.4961,0.0,0.0,0.0,0.0,0.0,0.0,0.7709,0.0,0.5121,0.0,0.0,0.0,0.0,0.0,0.0,0.0,0.5472,0.0,0.0,0.0,1.3228,0.0,0.0,0.0,1.8281,1.8475,1.8398,1.7955,1.6723,1.5978,1.6046,1.5297,1.4449,1.3634,1.2858,1.2129,1.1426,1.0232,0.9546,0.9389,0.8238,0.7716,0.7841,0.7175,0.6761,0.6573,0.6138,0.546,0.4641,0.4127,0.3404,0.259,0.2104,0.1328,0.0435,-0.0167,-0.0717,-0.1258,-0.1589,-0.2395,-0.3304,-0.3576,-0.4246,-0.4974,-0.5296,-0.5719,-0.6179,-0.6509,-0.6803,-0.7071,-0.7249,-0.7805,-0.8319,-0.8236,-0.8785,-0.9437,-0.9721,-0.9689,-0.9835,-1.0532,-1.0418,-1.0556,-1.1635,-1.2722,-1.3615,-1.4014,-1.5011,-1.5949,-1.6667,-1.6954,-1.7337,-1.7975,-1.7922,-1.8041,-1.862,-1.8749,-1.921,-2.0143,-2.1238,-2.1967,-2.2262,-2.261,-2.3171,-2.3945,-2.3956,-2.4337,-2.5038,-2.512,-2.5156,-2.5122,-2.5094,-2.5101,0.9703,0.0,0.0,0.0,0.0,0.0,0.0,0.0,0.0,0.0,0.0,0.0,0.0,0.0,0.0,0.0,0.0,0.4194,0.0,0.7214,0.0,0.0,0.0,0.0,0.0,1.7928,1.8417,1.782,1.7235,1.6802,1.6646,1.5971,1.5231,1.4468,1.3707,1.3001,1.2455,1.1072,1.036,1.0277,0.909,0.8626,0.8788,0.8259,0.7796,0.7399,0.6793,0.5974,0.5063,0.4644,0.3963,0.3155,0.2925,0.2296,0.1433,0.0569,-0.0206,-0.0848,-0.1019,-0.1758,-0.268,-0.3258,-0.3695,-0.4005,-0.4253,-0.466,-0.5106,-0.5446,-0.6006,-0.6535,-0.6708,-0.7497,-0.8187,-0.7968,-0.8569,-0.9267,-0.9557,-0.9505,-0.9673,-1.0554,-1.0392,-1.0273,-1.0681,-1.1654,-1.2531,-1.2963,-1.3989,-1.505,-1.6014,-1.6442,-1.6961,-1.781,-1.7878,-1.7966,-1.8155,-1.8304,-1.8758,-1.9653,-2.058,-2.1316,-2.1849,-2.1865,-2.2365,-2.3483,-2.3573,-2.4066,-2.5025,-2.5168,-2.5258,-2.5311,-2.5248,-2.5225,0.0,0.0,0.0,0.9709,0.0,0.0,0.0,0.0,0.2516,0.0,0.0,0.0,0.0,0.0,0.0,0.0,0.0,0.0,0.0,0.0,0.0,0.0,0.0,0.0,0.0,1.5847,1.6239,0.0,1.5994,1.6273,1.7216,1.6188,1.5588,1.5543,1.44,1.3537,1.3097,1.1758,1.0811,1.0284,0.9587,0.9182,0.9084,0.9191,0.8989,0.8517,0.8181,0.7323,0.6133,0.5773,0.5173,0.436,0.3514,0.3155,0.2955,0.1433,0.0369,-0.0337,-0.0471,-0.0978,-0.1671,-0.2322,-0.2798,-0.3245,-0.3761,-0.435,-0.4902,-0.5295,-0.5835,-0.6399,-0.6717,-0.7205,-0.7637,-0.7695,-0.7928,-0.829,-0.8828,-0.9062,-0.9437,-1.0161,-1.0412,-1.0632,-1.1085,-1.1654,-1.2113,-1.2386,-1.3461,-1.4577,-1.5575,-1.6019,-1.659,-1.7505,-1.7743,-1.7883,-1.8107,-1.8229,-1.8766,-1.9915,-2.0335,-2.0923,-2.1777,-2.193,-2.2476,-2.3488,-2.3568,-2.4098,-2.5101,-2.5236,-2.5311,-2.5311,-2.5311,-2.5302,0.0,0.0,0.957,0.9794,0.0,0.0,0.0,0.0,0.0,0.0,0.0,0.0,0.0,0.0,0.0,0.0,0.0,0.0,0.0,0.0,0.0,0.0,0.0,0.0,0.0,0.0,0.0,0.0,1.6397,0.0,1.7151,1.6565,1.5876,1.5164,1.4652,1.3986,1.3121,1.2024,1.146,1.1348,1.0262,0.9804,0.9864,0.9478,0.9106,0.8716,0.8269,0.7443,0.6379,0.6,0.5376,0.4654,0.4038,0.3547,0.302,0.1567,0.0788,0.0318,-0.039,-0.0936,-0.1352,-0.1718,-0.2078,-0.2477,-0.2999,-0.356,-0.4091,-0.45,-0.5131,-0.5797,-0.6221,-0.6708,-0.7136,-0.7431,-0.7725,-0.8046,-0.8588,-0.8768,-0.9028,-0.9813,-1.0052,-1.0198,-1.0556,-1.0976,-1.149,-1.2104,-1.2614,-1.3331,-1.4363,-1.4767,-1.525,-1.6067,-1.6783,-1.724,-1.7305,-1.8034,-1.871,-1.9237,-1.9433,-1.9746,-2.027,-2.027,-2.0759,-2.1838,-2.2527,-2.3291,-2.4183,-2.4881,-2.5258,-2.5292,-2.5351,-2.5379,1.0517,1.021,0.0,0.9489,0.8449,0.0,0.6723,0.0,0.4546,0.0,0.0,0.0,0.0,0.0,0.0,0.0,0.0,0.0,0.0,0.2516,0.0,0.0,0.0,0.0,0.0,0.0,1.5159,1.5579,1.6246,1.6757,0.0,1.6723,1.6064,1.5164,1.4846,1.4258,1.3344,1.2283,1.181,1.1887,1.0834,1.0371,1.0487,1.0079,0.9611,0.909,0.8642,0.7863,0.6905,0.6486,0.5967,0.5352,0.4859,0.4285,0.3607,0.2194,0.1365,0.0846,-0.0106,-0.0589,-0.0841,-0.1111,-0.1479,-0.1945,-0.2504,-0.2999,-0.3458,-0.4043,-0.4718,-0.5383,-0.582,-0.6283,-0.6725,-0.7134,-0.728,-0.753,-0.8279,-0.8382,-0.8579,-0.9391,-0.9734,-0.9995,-1.026,-1.0643,-1.1108,-1.1718,-1.193,-1.2375,-1.3447,-1.3808,-1.4284,-1.5072,-1.5841,-1.6496,-1.6991,-1.8049,-1.8715,-1.8861,-1.8966,-1.9119,-1.9308,-1.935,-2.0,-2.133,-2.1732,-2.2508,-2.3676,-2.406,-2.4296,-2.4369,-2.4436,-2.4643]}]]